Time,TemperatureF,DewpointF,PressureIn,WindDirection,WindDirectionDegrees,WindSpeedMPH,WindSpeedGustMPH,Humidity,HourlyPrecipIn,Conditions,Clouds,dailyrainin,SoftwareType,DateUTC
2013-02-22 00:00:00,27.8,20.3,30.24,NNW,331,23.0,28.0,73,0.00,,---,0.00,VWS V14.01,2013-02-22 05:00:00,
2013-02-22 00:01:00,27.8,20.3,30.24,NNW,331,18.0,23.0,73,0.00,,---,0.00,VWS V14.01,2013-02-22 05:01:00,
2013-02-22 00:02:00,27.8,20.3,30.23,NNW,327,18.0,23.0,73,0.00,,---,0.00,VWS V14.01,2013-02-22 05:02:00,
2013-02-22 00:03:00,27.9,20.7,30.23,NNW,333,16.0,23.0,74,0.00,,---,0.00,VWS V14.01,2013-02-22 05:03:00,
2013-02-22 00:04:00,27.9,20.7,30.23,NNW,338,18.0,23.0,74,0.00,,---,0.00,VWS V14.01,2013-02-22 05:04:00,
2013-02-22 00:05:00,27.9,20.4,30.23,NNW,335,18.0,23.0,73,0.00,,---,0.00,VWS V14.01,2013-02-22 05:05:00,
2013-02-22 00:06:00,27.9,20.7,30.23,NNW,336,19.0,23.0,74,0.00,,---,0.00,VWS V14.01,2013-02-22 05:06:00,
2013-02-22 00:07:00,27.8,20.3,30.23,NNW,332,20.0,24.0,73,0.00,,---,0.00,VWS V14.01,2013-02-22 05:07:00,
2013-02-22 00:08:00,27.8,20.3,30.23,NNW,338,19.0,24.0,73,0.00,,---,0.00,VWS V14.01,2013-02-22 05:08:00,
2013-02-22 00:09:00,27.8,20.3,30.23,NNW,339,20.0,24.0,73,0.00,,---,0.00,VWS V14.01,2013-02-22 05:09:00,
2013-02-22 00:10:00,27.8,20.3,30.23,NNW,343,16.0,24.0,73,0.00,,---,0.00,VWS V14.01,2013-02-22 05:10:00,
2013-02-22 00:11:00,27.8,20.3,30.23,NW,325,17.0,24.0,73,0.00,,---,0.00,VWS V14.01,2013-02-22 05:11:00,
2013-02-22 00:12:00,27.8,20.3,30.23,NNW,331,17.0,24.0,73,0.00,,---,0.00,VWS V14.01,2013-02-22 05:12:00,
2013-02-22 00:13:00,27.8,20.3,30.23,NNW,339,21.0,24.0,73,0.00,,---,0.00,VWS V14.01,2013-02-22 05:13:00,
2013-02-22 00:14:00,27.9,20.4,30.23,NNW,344,21.0,24.0,73,0.00,,---,0.00,VWS V14.01,2013-02-22 05:14:00,
2013-02-22 00:15:00,27.8,20.3,30.23,NNW,336,18.0,24.0,73,0.00,,---,0.00,VWS V14.01,2013-02-22 05:15:00,
2013-02-22 00:16:00,27.8,20.3,30.23,NNW,345,20.0,24.0,73,0.00,,---,0.00,VWS V14.01,2013-02-22 05:16:00,
2013-02-22 00:17:00,27.8,20.3,30.23,NNW,333,16.0,24.0,73,0.00,,---,0.00,VWS V14.01,2013-02-22 05:17:00,
2013-02-22 00:18:00,27.8,20.3,30.23,NNW,341,17.0,24.0,73,0.00,,---,0.00,VWS V14.01,2013-02-22 05:18:00,
2013-02-22 00:19:00,27.8,20.3,30.23,NNW,331,18.0,24.0,73,0.00,,---,0.00,VWS V14.01,2013-02-22 05:19:00,
2013-02-22 00:20:00,27.8,20.6,30.23,NNW,346,18.0,24.0,74,0.00,,---,0.00,VWS V14.01,2013-02-22 05:20:00,
2013-02-22 00:21:00,27.8,20.6,30.23,NNW,345,19.0,24.0,74,0.00,,---,0.00,VWS V14.01,2013-02-22 05:21:00,
2013-02-22 00:22:00,27.9,20.7,30.23,NNW,336,17.0,24.0,74,0.00,,---,0.00,VWS V14.01,2013-02-22 05:22:00,
2013-02-22 00:23:00,27.9,20.7,30.23,NNW,347,18.0,24.0,74,0.00,,---,0.00,VWS V14.01,2013-02-22 05:23:00,
2013-02-22 00:24:00,27.9,20.4,30.23,North,355,21.0,24.0,73,0.00,,---,0.00,VWS V14.01,2013-02-22 05:24:00,
2013-02-22 00:25:00,27.9,20.7,30.23,NNW,344,18.0,24.0,74,0.00,,---,0.00,VWS V14.01,2013-02-22 05:25:00,
2013-02-22 00:26:00,28.0,20.8,30.23,North,355,16.0,24.0,74,0.00,,---,0.00,VWS V14.01,2013-02-22 05:26:00,
2013-02-22 00:27:00,28.0,21.1,30.22,NNW,343,17.0,24.0,75,0.00,,---,0.00,VWS V14.01,2013-02-22 05:27:00,
2013-02-22 00:28:00,28.0,20.8,30.22,NNW,327,16.0,24.0,74,0.00,,---,0.00,VWS V14.01,2013-02-22 05:28:00,
2013-02-22 00:29:00,28.0,20.8,30.22,NNW,340,18.0,24.0,74,0.00,,---,0.00,VWS V14.01,2013-02-22 05:29:00,
2013-02-22 00:30:00,28.0,20.8,30.22,NNW,346,17.0,24.0,74,0.00,,---,0.00,VWS V14.01,2013-02-22 05:30:00,
2013-02-22 00:31:00,28.0,20.8,30.23,North,349,22.0,22.0,74,0.00,,---,0.00,VWS V14.01,2013-02-22 05:31:00,
2013-02-22 00:32:00,28.0,20.8,30.23,NNW,338,19.0,22.0,74,0.00,,---,0.00,VWS V14.01,2013-02-22 05:32:00,
2013-02-22 00:33:00,28.0,20.8,30.23,NNW,340,19.0,22.0,74,0.00,,---,0.00,VWS V14.01,2013-02-22 05:33:00,
2013-02-22 00:34:00,28.0,20.8,30.23,NNW,348,18.0,22.0,74,0.00,,---,0.00,VWS V14.01,2013-02-22 05:34:00,
2013-02-22 00:35:00,28.0,20.8,30.23,NNW,340,18.0,22.0,74,0.00,,---,0.00,VWS V14.01,2013-02-22 05:35:00,
2013-02-22 00:36:00,28.0,20.8,30.23,NNW,332,16.0,22.0,74,0.00,,---,0.00,VWS V14.01,2013-02-22 05:36:00,
2013-02-22 00:37:00,28.1,20.9,30.23,NNW,340,16.0,22.0,74,0.00,,---,0.00,VWS V14.01,2013-02-22 05:37:00,
2013-02-22 00:38:00,28.1,20.9,30.23,NNW,340,17.0,22.0,74,0.00,,---,0.00,VWS V14.01,2013-02-22 05:38:00,
2013-02-22 00:39:00,28.0,20.8,30.23,NNW,333,19.0,22.0,74,0.00,,---,0.00,VWS V14.01,2013-02-22 05:39:00,
2013-02-22 00:40:00,28.0,20.8,30.23,NNW,338,16.0,22.0,74,0.00,,---,0.00,VWS V14.01,2013-02-22 05:40:00,
2013-02-22 00:41:00,28.0,20.8,30.23,NNW,336,14.0,22.0,74,0.00,,---,0.00,VWS V14.01,2013-02-22 05:41:00,
2013-02-22 00:42:00,28.0,20.8,30.23,NNW,331,19.0,22.0,74,0.00,,---,0.00,VWS V14.01,2013-02-22 05:42:00,
2013-02-22 00:43:00,28.0,20.8,30.23,NW,321,17.0,22.0,74,0.00,,---,0.00,VWS V14.01,2013-02-22 05:43:00,
2013-02-22 00:44:00,28.0,20.8,30.23,NNW,336,15.0,22.0,74,0.00,,---,0.00,VWS V14.01,2013-02-22 05:44:00,
2013-02-22 00:45:00,28.0,20.8,30.23,NNW,329,16.0,22.0,74,0.00,,---,0.00,VWS V14.01,2013-02-22 05:45:00,
2013-02-22 00:46:00,28.0,20.8,30.23,NNW,345,18.0,22.0,74,0.00,,---,0.00,VWS V14.01,2013-02-22 05:46:00,
2013-02-22 00:47:00,28.0,20.8,30.23,NNW,333,16.0,22.0,74,0.00,,---,0.00,VWS V14.01,2013-02-22 05:47:00,
2013-02-22 00:48:00,27.9,20.7,30.23,NW,323,16.0,22.0,74,0.00,,---,0.00,VWS V14.01,2013-02-22 05:48:00,
2013-02-22 00:49:00,27.9,20.4,30.24,NW,326,15.0,22.0,73,0.00,,---,0.00,VWS V14.01,2013-02-22 05:49:00,
2013-02-22 00:50:00,27.9,20.4,30.24,NNW,327,17.0,22.0,73,0.00,,---,0.00,VWS V14.01,2013-02-22 05:50:00,
2013-02-22 00:51:00,27.9,20.7,30.24,NNW,340,16.0,22.0,74,0.00,,---,0.00,VWS V14.01,2013-02-22 05:51:00,
2013-02-22 00:52:00,28.0,20.8,30.23,NW,321,16.0,22.0,74,0.00,,---,0.00,VWS V14.01,2013-02-22 05:52:00,
2013-02-22 00:53:00,28.1,20.9,30.23,NNW,336,17.0,22.0,74,0.00,,---,0.00,VWS V14.01,2013-02-22 05:53:00,
2013-02-22 00:54:00,28.1,21.2,30.23,NNW,336,15.0,22.0,75,0.00,,---,0.00,VWS V14.01,2013-02-22 05:54:00,
2013-02-22 00:55:00,28.1,20.9,30.23,NNW,341,17.0,22.0,74,0.00,,---,0.00,VWS V14.01,2013-02-22 05:55:00,
2013-02-22 00:56:00,28.1,20.9,30.23,NNW,338,14.0,22.0,74,0.00,,---,0.00,VWS V14.01,2013-02-22 05:56:00,
2013-02-22 00:57:00,28.1,20.9,30.23,NNW,336,17.0,22.0,74,0.00,,---,0.00,VWS V14.01,2013-02-22 05:57:00,
2013-02-22 00:58:00,28.1,20.9,30.23,NNW,344,19.0,22.0,74,0.00,,---,0.00,VWS V14.01,2013-02-22 05:58:00,
2013-02-22 00:59:00,28.1,20.9,30.23,NNW,344,18.0,22.0,74,0.00,,---,0.00,VWS V14.01,2013-02-22 05:59:00,
2013-02-22 01:00:00,28.2,21.0,30.24,NNW,344,19.0,22.0,74,0.00,,---,0.00,VWS V14.01,2013-02-22 06:00:00,
2013-02-22 01:01:00,28.2,21.0,30.24,NNW,338,18.0,20.0,74,0.00,,---,0.00,VWS V14.01,2013-02-22 06:01:00,
2013-02-22 01:02:00,28.1,20.9,30.24,NNW,331,15.0,20.0,74,0.00,,---,0.00,VWS V14.01,2013-02-22 06:02:00,
2013-02-22 01:03:00,28.1,20.9,30.24,NW,323,14.0,20.0,74,0.00,,---,0.00,VWS V14.01,2013-02-22 06:03:00,
2013-02-22 01:04:00,28.1,20.9,30.24,NNW,336,16.0,20.0,74,0.00,,---,0.00,VWS V14.01,2013-02-22 06:04:00,
2013-02-22 01:05:00,28.1,20.9,30.24,NW,324,15.0,20.0,74,0.00,,---,0.00,VWS V14.01,2013-02-22 06:05:00,
2013-02-22 01:06:00,28.2,21.3,30.24,NW,323,16.0,20.0,75,0.00,,---,0.00,VWS V14.01,2013-02-22 06:06:00,
2013-02-22 01:07:00,28.3,21.4,30.24,NW,325,18.0,20.0,75,0.00,,---,0.00,VWS V14.01,2013-02-22 06:07:00,
2013-02-22 01:08:00,28.2,21.3,30.24,NNW,333,16.0,20.0,75,0.00,,---,0.00,VWS V14.01,2013-02-22 06:08:00,
2013-02-22 01:09:00,28.2,21.0,30.24,NNW,335,18.0,20.0,74,0.00,,---,0.00,VWS V14.01,2013-02-22 06:09:00,
2013-02-22 01:10:00,28.2,21.0,30.24,NNW,338,17.0,20.0,74,0.00,,---,0.00,VWS V14.01,2013-02-22 06:10:00,
2013-02-22 01:11:00,28.2,21.0,30.24,NNW,329,17.0,20.0,74,0.00,,---,0.00,VWS V14.01,2013-02-22 06:11:00,
2013-02-22 01:12:00,28.1,21.2,30.24,NW,325,16.0,20.0,75,0.00,,---,0.00,VWS V14.01,2013-02-22 06:12:00,
2013-02-22 01:13:00,28.1,20.9,30.24,NNW,331,17.0,20.0,74,0.00,,---,0.00,VWS V14.01,2013-02-22 06:13:00,
2013-02-22 01:14:00,28.1,20.9,30.24,NNW,329,16.0,20.0,74,0.00,,---,0.00,VWS V14.01,2013-02-22 06:14:00,
2013-02-22 01:15:00,28.2,21.3,30.24,NNW,331,18.0,20.0,75,0.00,,---,0.00,VWS V14.01,2013-02-22 06:15:00,
2013-02-22 01:16:00,28.2,21.3,30.24,NNW,334,20.0,21.0,75,0.00,,---,0.00,VWS V14.01,2013-02-22 06:16:00,
2013-02-22 01:17:00,28.2,21.0,30.24,NNW,327,18.0,21.0,74,0.00,,---,0.00,VWS V14.01,2013-02-22 06:17:00,
2013-02-22 01:18:00,28.2,21.3,30.24,NNW,327,18.0,21.0,75,0.00,,---,0.00,VWS V14.01,2013-02-22 06:18:00,
2013-02-22 01:19:00,28.1,20.9,30.25,NNW,329,15.0,21.0,74,0.00,,---,0.00,VWS V14.01,2013-02-22 06:19:00,
2013-02-22 01:20:00,28.2,21.0,30.25,NNW,335,14.0,21.0,74,0.00,,---,0.00,VWS V14.01,2013-02-22 06:20:00,
2013-02-22 01:21:00,28.2,21.3,30.25,NNW,330,15.0,21.0,75,0.00,,---,0.00,VWS V14.01,2013-02-22 06:21:00,
2013-02-22 01:22:00,28.0,20.8,30.25,NNW,336,15.0,21.0,74,0.00,,---,0.00,VWS V14.01,2013-02-22 06:22:00,
2013-02-22 01:23:00,28.0,20.8,30.25,NNW,344,15.0,21.0,74,0.00,,---,0.00,VWS V14.01,2013-02-22 06:23:00,
2013-02-22 01:24:00,28.1,21.2,30.25,NNW,331,17.0,21.0,75,0.00,,---,0.00,VWS V14.01,2013-02-22 06:24:00,
2013-02-22 01:25:00,28.1,21.2,30.25,NNW,332,18.0,21.0,75,0.00,,---,0.00,VWS V14.01,2013-02-22 06:25:00,
2013-02-22 01:26:00,28.1,21.2,30.25,NNW,332,16.0,21.0,75,0.00,,---,0.00,VWS V14.01,2013-02-22 06:26:00,
2013-02-22 01:27:00,28.1,21.2,30.25,NNW,332,17.0,21.0,75,0.00,,---,0.00,VWS V14.01,2013-02-22 06:27:00,
2013-02-22 01:28:00,28.1,20.9,30.25,NNW,333,18.0,21.0,74,0.00,,---,0.00,VWS V14.01,2013-02-22 06:28:00,
2013-02-22 01:29:00,28.1,21.2,30.25,NW,317,15.0,21.0,75,0.00,,---,0.00,VWS V14.01,2013-02-22 06:29:00,
2013-02-22 01:30:00,28.1,21.2,30.25,NNW,337,17.0,21.0,75,0.00,,---,0.00,VWS V14.01,2013-02-22 06:30:00,
2013-02-22 01:31:00,28.2,21.3,30.25,NNW,338,17.0,19.0,75,0.00,,---,0.00,VWS V14.01,2013-02-22 06:31:00,
2013-02-22 01:32:00,28.1,21.2,30.25,NNW,336,16.0,19.0,75,0.00,,---,0.00,VWS V14.01,2013-02-22 06:32:00,
2013-02-22 01:33:00,28.1,21.2,30.25,NNW,338,16.0,19.0,75,0.00,,---,0.00,VWS V14.01,2013-02-22 06:33:00,
2013-02-22 01:34:00,28.1,21.2,30.25,NNW,332,17.0,19.0,75,0.00,,---,0.00,VWS V14.01,2013-02-22 06:34:00,
2013-02-22 01:35:00,28.1,21.2,30.25,NNW,333,18.0,19.0,75,0.00,,---,0.00,VWS V14.01,2013-02-22 06:35:00,
2013-02-22 01:36:00,28.1,21.2,30.25,NNW,334,17.0,20.0,75,0.00,,---,0.00,VWS V14.01,2013-02-22 06:36:00,
2013-02-22 01:37:00,28.1,21.2,30.25,NNW,339,17.0,20.0,75,0.00,,---,0.00,VWS V14.01,2013-02-22 06:37:00,
2013-02-22 01:38:00,28.2,21.3,30.25,NNW,333,17.0,21.0,75,0.00,,---,0.00,VWS V14.01,2013-02-22 06:38:00,
2013-02-22 01:39:00,28.1,21.2,30.25,NNW,342,16.0,21.0,75,0.00,,---,0.00,VWS V14.01,2013-02-22 06:39:00,
2013-02-22 01:40:00,28.3,21.4,30.25,NNW,338,17.0,21.0,75,0.00,,---,0.00,VWS V14.01,2013-02-22 06:40:00,
2013-02-22 01:41:00,28.2,21.3,30.25,NNW,338,14.0,21.0,75,0.00,,---,0.00,VWS V14.01,2013-02-22 06:41:00,
2013-02-22 01:42:00,28.2,21.3,30.25,NNW,331,17.0,21.0,75,0.00,,---,0.00,VWS V14.01,2013-02-22 06:42:00,
2013-02-22 01:43:00,28.1,21.2,30.25,NNW,327,16.0,21.0,75,0.00,,---,0.00,VWS V14.01,2013-02-22 06:43:00,
2013-02-22 01:44:00,28.1,20.9,30.26,NNW,329,14.0,21.0,74,0.00,,---,0.00,VWS V14.01,2013-02-22 06:44:00,
2013-02-22 01:45:00,28.1,21.2,30.26,NNW,328,16.0,21.0,75,0.00,,---,0.00,VWS V14.01,2013-02-22 06:45:00,
2013-02-22 01:46:00,28.1,21.2,30.26,NW,321,14.0,21.0,75,0.00,,---,0.00,VWS V14.01,2013-02-22 06:46:00,
2013-02-22 01:47:00,28.1,21.2,30.26,NNW,333,13.0,21.0,75,0.00,,---,0.00,VWS V14.01,2013-02-22 06:47:00,
2013-02-22 01:48:00,28.1,21.2,30.26,NNW,337,16.0,21.0,75,0.00,,---,0.00,VWS V14.01,2013-02-22 06:48:00,
2013-02-22 01:49:00,28.0,21.1,30.26,NNW,341,13.0,21.0,75,0.00,,---,0.00,VWS V14.01,2013-02-22 06:49:00,
2013-02-22 01:50:00,28.1,20.9,30.26,NNW,332,16.0,21.0,74,0.00,,---,0.00,VWS V14.01,2013-02-22 06:50:00,
2013-02-22 01:51:00,28.1,21.2,30.26,NNW,331,14.0,21.0,75,0.00,,---,0.00,VWS V14.01,2013-02-22 06:51:00,
2013-02-22 01:52:00,28.1,21.2,30.26,NNW,331,15.0,21.0,75,0.00,,---,0.00,VWS V14.01,2013-02-22 06:52:00,
2013-02-22 01:53:00,28.1,21.2,30.26,NNW,340,15.0,21.0,75,0.00,,---,0.00,VWS V14.01,2013-02-22 06:53:00,
2013-02-22 01:54:00,28.2,21.3,30.26,NNW,331,14.0,21.0,75,0.00,,---,0.00,VWS V14.01,2013-02-22 06:54:00,
2013-02-22 01:55:00,28.3,21.7,30.26,NW,324,15.0,21.0,76,0.00,,---,0.00,VWS V14.01,2013-02-22 06:55:00,
2013-02-22 01:56:00,28.3,21.4,30.26,NW,324,14.0,21.0,75,0.00,,---,0.00,VWS V14.01,2013-02-22 06:56:00,
2013-02-22 01:57:00,28.3,21.1,30.26,NW,321,12.0,21.0,74,0.00,,---,0.00,VWS V14.01,2013-02-22 06:57:00,
2013-02-22 01:58:00,28.3,21.4,30.26,NW,322,16.0,21.0,75,0.00,,---,0.00,VWS V14.01,2013-02-22 06:58:00,
2013-02-22 01:59:00,28.2,21.0,30.26,NW,325,15.0,21.0,74,0.00,,---,0.00,VWS V14.01,2013-02-22 06:59:00,
2013-02-22 02:00:00,28.2,21.0,30.26,NNW,329,11.0,21.0,74,0.00,,---,0.00,VWS V14.01,2013-02-22 07:00:00,
2013-02-22 02:01:00,28.3,21.4,30.26,NW,321,10.0,15.0,75,0.00,,---,0.00,VWS V14.01,2013-02-22 07:01:00,
2013-02-22 02:02:00,28.3,21.4,30.26,NW,318,11.0,15.0,75,0.00,,---,0.00,VWS V14.01,2013-02-22 07:02:00,
2013-02-22 02:03:00,28.3,21.4,30.26,NNW,329,12.0,15.0,75,0.00,,---,0.00,VWS V14.01,2013-02-22 07:03:00,
2013-02-22 02:04:00,28.4,21.5,30.26,NW,320,12.0,15.0,75,0.00,,---,0.00,VWS V14.01,2013-02-22 07:04:00,
2013-02-22 02:05:00,28.3,21.4,30.26,NW,315,13.0,15.0,75,0.00,,---,0.00,VWS V14.01,2013-02-22 07:05:00,
2013-02-22 02:06:00,28.3,21.4,30.26,NNW,327,13.0,15.0,75,0.00,,---,0.00,VWS V14.01,2013-02-22 07:06:00,
2013-02-22 02:07:00,28.2,21.0,30.27,NW,325,13.0,15.0,74,0.00,,---,0.00,VWS V14.01,2013-02-22 07:07:00,
2013-02-22 02:08:00,28.3,21.4,30.27,NW,320,13.0,15.0,75,0.00,,---,0.00,VWS V14.01,2013-02-22 07:08:00,
2013-02-22 02:09:00,28.3,21.4,30.27,NW,311,15.0,15.0,75,0.00,,---,0.00,VWS V14.01,2013-02-22 07:09:00,
2013-02-22 02:10:00,28.3,21.4,30.26,NW,323,13.0,15.0,75,0.00,,---,0.00,VWS V14.01,2013-02-22 07:10:00,
2013-02-22 02:11:00,28.3,21.4,30.26,NNW,327,12.0,15.0,75,0.00,,---,0.00,VWS V14.01,2013-02-22 07:11:00,
2013-02-22 02:12:00,28.3,21.4,30.27,NW,317,12.0,15.0,75,0.00,,---,0.00,VWS V14.01,2013-02-22 07:12:00,
2013-02-22 02:13:00,28.3,21.7,30.26,NW,325,12.0,15.0,76,0.00,,---,0.00,VWS V14.01,2013-02-22 07:13:00,
2013-02-22 02:14:00,28.3,21.7,30.26,NW,321,13.0,15.0,76,0.00,,---,0.00,VWS V14.01,2013-02-22 07:14:00,
2013-02-22 02:15:00,28.3,21.7,30.26,NW,315,12.0,15.0,76,0.00,,---,0.00,VWS V14.01,2013-02-22 07:15:00,
2013-02-22 02:16:00,28.3,21.7,30.27,NW,323,13.0,15.0,76,0.00,,---,0.00,VWS V14.01,2013-02-22 07:16:00,
2013-02-22 02:17:00,28.3,21.4,30.27,NNW,330,14.0,15.0,75,0.00,,---,0.00,VWS V14.01,2013-02-22 07:17:00,
2013-02-22 02:18:00,28.3,21.7,30.27,NNW,337,14.0,15.0,76,0.00,,---,0.00,VWS V14.01,2013-02-22 07:18:00,
2013-02-22 02:19:00,28.3,21.7,30.27,NW,319,13.0,15.0,76,0.00,,---,0.00,VWS V14.01,2013-02-22 07:19:00,
2013-02-22 02:20:00,28.2,21.3,30.27,NNW,338,14.0,16.0,75,0.00,,---,0.00,VWS V14.01,2013-02-22 07:20:00,
2013-02-22 02:21:00,28.2,21.3,30.27,NNW,331,13.0,16.0,75,0.00,,---,0.00,VWS V14.01,2013-02-22 07:21:00,
2013-02-22 02:22:00,28.1,21.2,30.27,NNW,332,13.0,16.0,75,0.00,,---,0.00,VWS V14.01,2013-02-22 07:22:00,
2013-02-22 02:23:00,28.1,21.2,30.27,NNW,341,14.0,16.0,75,0.00,,---,0.00,VWS V14.01,2013-02-22 07:23:00,
2013-02-22 02:24:00,28.1,21.5,30.27,NW,313,11.0,16.0,76,0.00,,---,0.00,VWS V14.01,2013-02-22 07:24:00,
2013-02-22 02:25:00,28.2,21.6,30.27,NNW,333,14.0,16.0,76,0.00,,---,0.00,VWS V14.01,2013-02-22 07:25:00,
2013-02-22 02:26:00,28.2,21.6,30.27,NNW,337,13.0,16.0,76,0.00,,---,0.00,VWS V14.01,2013-02-22 07:26:00,
2013-02-22 02:27:00,28.1,21.2,30.27,NNW,331,17.0,17.0,75,0.00,,---,0.00,VWS V14.01,2013-02-22 07:27:00,
2013-02-22 02:28:00,28.1,21.2,30.27,NW,322,14.0,17.0,75,0.00,,---,0.00,VWS V14.01,2013-02-22 07:28:00,
2013-02-22 02:29:00,28.1,21.2,30.27,NNW,337,14.0,17.0,75,0.00,,---,0.00,VWS V14.01,2013-02-22 07:29:00,
2013-02-22 02:30:00,28.1,21.2,30.27,NW,325,14.0,17.0,75,0.00,,---,0.00,VWS V14.01,2013-02-22 07:30:00,
2013-02-22 02:31:00,28.1,21.5,30.27,NNW,331,13.0,15.0,76,0.00,,---,0.00,VWS V14.01,2013-02-22 07:31:00,
2013-02-22 02:32:00,28.1,21.5,30.27,NNW,337,14.0,15.0,76,0.00,,---,0.00,VWS V14.01,2013-02-22 07:32:00,
2013-02-22 02:33:00,28.1,21.5,30.27,NNW,339,12.0,15.0,76,0.00,,---,0.00,VWS V14.01,2013-02-22 07:33:00,
2013-02-22 02:34:00,28.2,21.6,30.27,NNW,331,12.0,15.0,76,0.00,,---,0.00,VWS V14.01,2013-02-22 07:34:00,
2013-02-22 02:35:00,28.2,21.6,30.27,NNW,342,13.0,15.0,76,0.00,,---,0.00,VWS V14.01,2013-02-22 07:35:00,
2013-02-22 02:36:00,28.3,21.7,30.27,NNW,333,11.0,15.0,76,0.00,,---,0.00,VWS V14.01,2013-02-22 07:36:00,
2013-02-22 02:37:00,28.3,22.0,30.27,NNW,341,13.0,15.0,77,0.00,,---,0.00,VWS V14.01,2013-02-22 07:37:00,
2013-02-22 02:38:00,28.3,21.7,30.27,North,350,14.0,15.0,76,0.00,,---,0.00,VWS V14.01,2013-02-22 07:38:00,
2013-02-22 02:39:00,28.4,21.8,30.27,NNW,344,13.0,15.0,76,0.00,,---,0.00,VWS V14.01,2013-02-22 07:39:00,
2013-02-22 02:40:00,28.3,21.7,30.27,NNW,346,10.0,15.0,76,0.00,,---,0.00,VWS V14.01,2013-02-22 07:40:00,
2013-02-22 02:41:00,28.3,21.7,30.27,NNW,338,11.0,15.0,76,0.00,,---,0.00,VWS V14.01,2013-02-22 07:41:00,
2013-02-22 02:42:00,28.5,22.2,30.27,NNW,337,14.0,15.0,77,0.00,,---,0.00,VWS V14.01,2013-02-22 07:42:00,
2013-02-22 02:43:00,28.5,22.2,30.27,NNW,342,14.0,15.0,77,0.00,,---,0.00,VWS V14.01,2013-02-22 07:43:00,
2013-02-22 02:44:00,28.4,21.8,30.27,NNW,335,12.0,16.0,76,0.00,,---,0.00,VWS V14.01,2013-02-22 07:44:00,
2013-02-22 02:45:00,28.4,21.8,30.27,NNW,340,14.0,16.0,76,0.00,,---,0.00,VWS V14.01,2013-02-22 07:45:00,
2013-02-22 02:46:00,28.5,21.9,30.27,NNW,329,14.0,18.0,76,0.00,,---,0.00,VWS V14.01,2013-02-22 07:46:00,
2013-02-22 02:47:00,28.5,22.2,30.27,NNW,334,14.0,18.0,77,0.00,,---,0.00,VWS V14.01,2013-02-22 07:47:00,
2013-02-22 02:48:00,28.6,22.3,30.27,North,349,16.0,18.0,77,0.00,,---,0.00,VWS V14.01,2013-02-22 07:48:00,
2013-02-22 02:49:00,28.7,22.1,30.28,NW,326,12.0,18.0,76,0.00,,---,0.00,VWS V14.01,2013-02-22 07:49:00,
2013-02-22 02:50:00,28.7,22.1,30.28,NNW,338,12.0,18.0,76,0.00,,---,0.00,VWS V14.01,2013-02-22 07:50:00,
2013-02-22 02:51:00,28.7,22.1,30.28,NNW,337,14.0,18.0,76,0.00,,---,0.00,VWS V14.01,2013-02-22 07:51:00,
2013-02-22 02:52:00,28.6,22.0,30.28,NNW,327,12.0,18.0,76,0.00,,---,0.00,VWS V14.01,2013-02-22 07:52:00,
2013-02-22 02:53:00,28.5,21.6,30.28,NNW,336,12.0,18.0,75,0.00,,---,0.00,VWS V14.01,2013-02-22 07:53:00,
2013-02-22 02:54:00,28.5,21.9,30.28,NNW,333,10.0,18.0,76,0.00,,---,0.00,VWS V14.01,2013-02-22 07:54:00,
2013-02-22 02:55:00,28.5,21.9,30.28,NNW,343,12.0,18.0,76,0.00,,---,0.00,VWS V14.01,2013-02-22 07:55:00,
2013-02-22 02:56:00,28.4,21.5,30.28,NNW,345,12.0,18.0,75,0.00,,---,0.00,VWS V14.01,2013-02-22 07:56:00,
2013-02-22 02:57:00,28.4,21.5,30.28,NNW,340,10.0,18.0,75,0.00,,---,0.00,VWS V14.01,2013-02-22 07:57:00,
2013-02-22 02:58:00,28.4,21.8,30.28,NNW,339,11.0,18.0,76,0.00,,---,0.00,VWS V14.01,2013-02-22 07:58:00,
2013-02-22 02:59:00,28.4,21.8,30.28,NNW,342,11.0,18.0,76,0.00,,---,0.00,VWS V14.01,2013-02-22 07:59:00,
2013-02-22 03:00:00,28.4,21.8,30.28,NW,321,8.0,18.0,76,0.00,,---,0.00,VWS V14.01,2013-02-22 08:00:00,
2013-02-22 03:01:00,28.4,21.8,30.28,NNW,337,8.0,10.0,76,0.00,,---,0.00,VWS V14.01,2013-02-22 08:01:00,
2013-02-22 03:02:00,28.3,21.7,30.28,NW,313,7.0,10.0,76,0.00,,---,0.00,VWS V14.01,2013-02-22 08:02:00,
2013-02-22 03:03:00,28.3,21.7,30.28,NNW,333,9.0,10.0,76,0.00,,---,0.00,VWS V14.01,2013-02-22 08:03:00,
2013-02-22 03:04:00,28.3,21.7,30.28,NNW,340,10.0,10.0,76,0.00,,---,0.00,VWS V14.01,2013-02-22 08:04:00,
2013-02-22 03:05:00,28.3,21.7,30.28,NNW,344,10.0,12.0,76,0.00,,---,0.00,VWS V14.01,2013-02-22 08:05:00,
2013-02-22 03:06:00,28.3,21.7,30.28,NW,318,10.0,12.0,76,0.00,,---,0.00,VWS V14.01,2013-02-22 08:06:00,
2013-02-22 03:07:00,28.3,21.7,30.28,NW,317,8.0,12.0,76,0.00,,---,0.00,VWS V14.01,2013-02-22 08:07:00,
2013-02-22 03:08:00,28.4,21.8,30.28,NW,311,9.0,12.0,76,0.00,,---,0.00,VWS V14.01,2013-02-22 08:08:00,
2013-02-22 03:09:00,28.3,21.7,30.28,NW,324,10.0,12.0,76,0.00,,---,0.00,VWS V14.01,2013-02-22 08:09:00,
2013-02-22 03:10:00,28.3,21.7,30.28,NW,320,10.0,12.0,76,0.00,,---,0.00,VWS V14.01,2013-02-22 08:10:00,
2013-02-22 03:11:00,28.2,21.6,30.28,NW,318,8.0,12.0,76,0.00,,---,0.00,VWS V14.01,2013-02-22 08:11:00,
2013-02-22 03:12:00,28.1,21.5,30.28,NW,325,9.0,12.0,76,0.00,,---,0.00,VWS V14.01,2013-02-22 08:12:00,
2013-02-22 03:13:00,28.1,21.5,30.28,NW,321,11.0,12.0,76,0.00,,---,0.00,VWS V14.01,2013-02-22 08:13:00,
2013-02-22 03:14:00,28.1,21.5,30.28,NW,320,10.0,12.0,76,0.00,,---,0.00,VWS V14.01,2013-02-22 08:14:00,
2013-02-22 03:15:00,28.0,21.4,30.28,NNW,331,9.0,12.0,76,0.00,,---,0.00,VWS V14.01,2013-02-22 08:15:00,
2013-02-22 03:16:00,28.0,21.4,30.28,NW,323,7.0,12.0,76,0.00,,---,0.00,VWS V14.01,2013-02-22 08:16:00,
2013-02-22 03:17:00,27.9,21.3,30.28,NNW,344,8.0,12.0,76,0.00,,---,0.00,VWS V14.01,2013-02-22 08:17:00,
2013-02-22 03:18:00,27.9,21.3,30.28,NNW,338,8.0,12.0,76,0.00,,---,0.00,VWS V14.01,2013-02-22 08:18:00,
2013-02-22 03:19:00,28.0,21.4,30.28,NNW,331,8.0,12.0,76,0.00,,---,0.00,VWS V14.01,2013-02-22 08:19:00,
2013-02-22 03:20:00,28.0,21.7,30.28,NNW,333,8.0,12.0,77,0.00,,---,0.00,VWS V14.01,2013-02-22 08:20:00,
2013-02-22 03:21:00,28.0,21.4,30.28,NNW,346,8.0,12.0,76,0.00,,---,0.00,VWS V14.01,2013-02-22 08:21:00,
2013-02-22 03:22:00,27.9,21.3,30.28,NNW,343,9.0,12.0,76,0.00,,---,0.00,VWS V14.01,2013-02-22 08:22:00,
2013-02-22 03:23:00,27.9,21.3,30.28,NNW,333,7.0,12.0,76,0.00,,---,0.00,VWS V14.01,2013-02-22 08:23:00,
2013-02-22 03:24:00,27.9,21.3,30.28,NNW,348,10.0,12.0,76,0.00,,---,0.00,VWS V14.01,2013-02-22 08:24:00,
2013-02-22 03:25:00,27.9,21.3,30.28,North,360,9.0,12.0,76,0.00,,---,0.00,VWS V14.01,2013-02-22 08:25:00,
2013-02-22 03:26:00,28.0,21.7,30.28,NNW,342,11.0,12.0,77,0.00,,---,0.00,VWS V14.01,2013-02-22 08:26:00,
2013-02-22 03:27:00,27.9,21.3,30.28,North,355,12.0,12.0,76,0.00,,---,0.00,VWS V14.01,2013-02-22 08:27:00,
2013-02-22 03:28:00,27.9,21.3,30.28,NNW,342,10.0,12.0,76,0.00,,---,0.00,VWS V14.01,2013-02-22 08:28:00,
2013-02-22 03:29:00,28.0,21.4,30.28,NNW,336,10.0,12.0,76,0.00,,---,0.00,VWS V14.01,2013-02-22 08:29:00,
2013-02-22 03:30:00,28.1,21.8,30.28,NNW,337,10.0,12.0,77,0.00,,---,0.00,VWS V14.01,2013-02-22 08:30:00,
2013-02-22 03:31:00,28.1,21.5,30.28,NNW,341,12.0,13.0,76,0.00,,---,0.00,VWS V14.01,2013-02-22 08:31:00,
2013-02-22 03:32:00,28.0,21.4,30.28,NNW,340,10.0,13.0,76,0.00,,---,0.00,VWS V14.01,2013-02-22 08:32:00,
2013-02-22 03:33:00,28.0,21.4,30.28,NNW,336,8.0,13.0,76,0.00,,---,0.00,VWS V14.01,2013-02-22 08:33:00,
2013-02-22 03:34:00,28.0,21.4,30.28,NNW,344,10.0,13.0,76,0.00,,---,0.00,VWS V14.01,2013-02-22 08:34:00,
2013-02-22 03:35:00,28.0,21.4,30.29,NNW,342,12.0,13.0,76,0.00,,---,0.00,VWS V14.01,2013-02-22 08:35:00,
2013-02-22 03:36:00,27.9,21.3,30.29,North,355,10.0,13.0,76,0.00,,---,0.00,VWS V14.01,2013-02-22 08:36:00,
2013-02-22 03:37:00,27.9,21.3,30.29,NNW,338,9.0,13.0,76,0.00,,---,0.00,VWS V14.01,2013-02-22 08:37:00,
2013-02-22 03:38:00,27.9,21.3,30.29,NNW,331,9.0,13.0,76,0.00,,---,0.00,VWS V14.01,2013-02-22 08:38:00,
2013-02-22 03:39:00,27.9,21.3,30.29,NNW,334,12.0,14.0,76,0.00,,---,0.00,VWS V14.01,2013-02-22 08:39:00,
2013-02-22 03:40:00,27.9,21.3,30.29,NNW,334,10.0,14.0,76,0.00,,---,0.00,VWS V14.01,2013-02-22 08:40:00,
2013-02-22 03:41:00,27.9,21.3,30.29,NNW,330,8.0,14.0,76,0.00,,---,0.00,VWS V14.01,2013-02-22 08:41:00,
2013-02-22 03:42:00,27.9,21.3,30.30,NW,322,9.0,14.0,76,0.00,,---,0.00,VWS V14.01,2013-02-22 08:42:00,
2013-02-22 03:43:00,27.9,21.3,30.30,NNW,334,9.0,14.0,76,0.00,,---,0.00,VWS V14.01,2013-02-22 08:43:00,
2013-02-22 03:44:00,27.9,21.3,30.30,NW,304,7.0,14.0,76,0.00,,---,0.00,VWS V14.01,2013-02-22 08:44:00,
2013-02-22 03:45:00,28.0,21.4,30.30,NW,323,9.0,14.0,76,0.00,,---,0.00,VWS V14.01,2013-02-22 08:45:00,
2013-02-22 03:46:00,28.0,21.4,30.30,NW,311,8.0,14.0,76,0.00,,---,0.00,VWS V14.01,2013-02-22 08:46:00,
2013-02-22 03:47:00,27.9,21.3,30.30,NW,313,8.0,14.0,76,0.00,,---,0.00,VWS V14.01,2013-02-22 08:47:00,
2013-02-22 03:48:00,27.9,21.3,30.30,NW,317,7.0,14.0,76,0.00,,---,0.00,VWS V14.01,2013-02-22 08:48:00,
2013-02-22 03:49:00,27.9,21.3,30.30,NW,317,7.0,14.0,76,0.00,,---,0.00,VWS V14.01,2013-02-22 08:49:00,
2013-02-22 03:50:00,27.9,21.3,30.30,NW,323,9.0,14.0,76,0.00,,---,0.00,VWS V14.01,2013-02-22 08:50:00,
2013-02-22 03:51:00,27.9,21.3,30.30,NW,319,8.0,14.0,76,0.00,,---,0.00,VWS V14.01,2013-02-22 08:51:00,
2013-02-22 03:52:00,27.9,21.3,30.30,NW,319,9.0,14.0,76,0.00,,---,0.00,VWS V14.01,2013-02-22 08:52:00,
2013-02-22 03:53:00,27.9,21.3,30.30,NNW,332,9.0,14.0,76,0.00,,---,0.00,VWS V14.01,2013-02-22 08:53:00,
2013-02-22 03:54:00,27.9,21.3,30.30,NW,322,8.0,14.0,76,0.00,,---,0.00,VWS V14.01,2013-02-22 08:54:00,
2013-02-22 03:55:00,27.9,21.3,30.30,NW,326,9.0,14.0,76,0.00,,---,0.00,VWS V14.01,2013-02-22 08:55:00,
2013-02-22 03:56:00,27.8,21.2,30.30,NNW,327,9.0,14.0,76,0.00,,---,0.00,VWS V14.01,2013-02-22 08:56:00,
2013-02-22 03:57:00,27.9,21.3,30.30,NW,317,9.0,14.0,76,0.00,,---,0.00,VWS V14.01,2013-02-22 08:57:00,
2013-02-22 03:58:00,27.8,21.2,30.30,NW,325,8.0,14.0,76,0.00,,---,0.00,VWS V14.01,2013-02-22 08:58:00,
2013-02-22 03:59:00,27.8,21.2,30.30,NW,305,6.0,14.0,76,0.00,,---,0.00,VWS V14.01,2013-02-22 08:59:00,
2013-02-22 04:00:00,27.8,21.2,30.30,NW,306,7.0,14.0,76,0.00,,---,0.00,VWS V14.01,2013-02-22 09:00:00,
2013-02-22 04:01:00,27.7,21.1,30.31,NW,319,8.0,9.0,76,0.00,,---,0.00,VWS V14.01,2013-02-22 09:01:00,
2013-02-22 04:02:00,27.7,21.1,30.31,NW,325,8.0,9.0,76,0.00,,---,0.00,VWS V14.01,2013-02-22 09:02:00,
2013-02-22 04:03:00,27.7,21.1,30.31,WNW,303,7.0,9.0,76,0.00,,---,0.00,VWS V14.01,2013-02-22 09:03:00,
2013-02-22 04:04:00,27.7,21.1,30.31,NW,318,6.0,9.0,76,0.00,,---,0.00,VWS V14.01,2013-02-22 09:04:00,
2013-02-22 04:05:00,27.7,21.1,30.31,NW,306,7.0,9.0,76,0.00,,---,0.00,VWS V14.01,2013-02-22 09:05:00,
2013-02-22 04:06:00,27.6,21.0,30.31,NW,311,6.0,9.0,76,0.00,,---,0.00,VWS V14.01,2013-02-22 09:06:00,
2013-02-22 04:07:00,27.6,21.0,30.31,NW,309,7.0,9.0,76,0.00,,---,0.00,VWS V14.01,2013-02-22 09:07:00,
2013-02-22 04:08:00,27.6,21.0,30.31,WNW,302,7.0,9.0,76,0.00,,---,0.00,VWS V14.01,2013-02-22 09:08:00,
2013-02-22 04:09:00,27.6,21.0,30.31,WNW,299,8.0,9.0,76,0.00,,---,0.00,VWS V14.01,2013-02-22 09:09:00,
2013-02-22 04:10:00,27.6,21.0,30.31,WNW,297,6.0,9.0,76,0.00,,---,0.00,VWS V14.01,2013-02-22 09:10:00,
2013-02-22 04:11:00,27.6,21.4,30.31,WNW,298,6.0,9.0,77,0.00,,---,0.00,VWS V14.01,2013-02-22 09:11:00,
2013-02-22 04:12:00,27.6,21.4,30.31,NW,307,7.0,9.0,77,0.00,,---,0.00,VWS V14.01,2013-02-22 09:12:00,
2013-02-22 04:13:00,27.6,21.4,30.31,WNW,294,8.0,9.0,77,0.00,,---,0.00,VWS V14.01,2013-02-22 09:13:00,
2013-02-22 04:14:00,27.5,21.2,30.31,WNW,294,7.0,9.0,77,0.00,,---,0.00,VWS V14.01,2013-02-22 09:14:00,
2013-02-22 04:15:00,27.5,21.2,30.32,WNW,300,7.0,9.0,77,0.00,,---,0.00,VWS V14.01,2013-02-22 09:15:00,
2013-02-22 04:16:00,27.4,21.1,30.32,WNW,292,7.0,9.0,77,0.00,,---,0.00,VWS V14.01,2013-02-22 09:16:00,
2013-02-22 04:17:00,27.4,21.1,30.32,WNW,299,7.0,9.0,77,0.00,,---,0.00,VWS V14.01,2013-02-22 09:17:00,
2013-02-22 04:18:00,27.4,21.1,30.32,WNW,290,5.0,9.0,77,0.00,,---,0.00,VWS V14.01,2013-02-22 09:18:00,
2013-02-22 04:19:00,27.4,21.1,30.32,WNW,292,7.0,9.0,77,0.00,,---,0.00,VWS V14.01,2013-02-22 09:19:00,
2013-02-22 04:20:00,27.4,21.1,30.32,WNW,286,7.0,9.0,77,0.00,,---,0.00,VWS V14.01,2013-02-22 09:20:00,
2013-02-22 04:21:00,27.4,21.1,30.32,WNW,295,9.0,9.0,77,0.00,,---,0.00,VWS V14.01,2013-02-22 09:21:00,
2013-02-22 04:22:00,27.4,21.1,30.33,WNW,293,8.0,10.0,77,0.00,,---,0.00,VWS V14.01,2013-02-22 09:22:00,
2013-02-22 04:23:00,27.4,21.1,30.33,WNW,294,8.0,10.0,77,0.00,,---,0.00,VWS V14.01,2013-02-22 09:23:00,
2013-02-22 04:24:00,27.4,21.1,30.33,WNW,291,7.0,10.0,77,0.00,,---,0.00,VWS V14.01,2013-02-22 09:24:00,
2013-02-22 04:25:00,27.4,21.5,30.32,WNW,295,7.0,10.0,78,0.00,,---,0.00,VWS V14.01,2013-02-22 09:25:00,
2013-02-22 04:26:00,27.4,21.1,30.32,NW,305,7.0,10.0,77,0.00,,---,0.00,VWS V14.01,2013-02-22 09:26:00,
2013-02-22 04:27:00,27.3,21.1,30.32,NW,306,7.0,10.0,77,0.00,,---,0.00,VWS V14.01,2013-02-22 09:27:00,
2013-02-22 04:28:00,27.2,21.0,30.32,NW,307,7.0,10.0,77,0.00,,---,0.00,VWS V14.01,2013-02-22 09:28:00,
2013-02-22 04:29:00,27.2,21.0,30.32,NW,308,9.0,10.0,77,0.00,,---,0.00,VWS V14.01,2013-02-22 09:29:00,
2013-02-22 04:30:00,27.2,21.0,30.32,NW,308,7.0,7.0,77,0.00,,---,0.00,VWS V14.01,2013-02-22 09:30:00,
2013-02-22 04:31:00,27.1,20.9,30.32,NW,309,7.0,8.0,77,0.00,,---,0.00,VWS V14.01,2013-02-22 09:31:00,
2013-02-22 04:32:00,27.1,20.9,30.32,NW,306,7.0,9.0,77,0.00,,---,0.00,VWS V14.01,2013-02-22 09:32:00,
2013-02-22 04:33:00,27.0,20.8,30.32,NW,309,9.0,9.0,77,0.00,,---,0.00,VWS V14.01,2013-02-22 09:33:00,
2013-02-22 04:34:00,27.0,20.8,30.32,NW,305,6.0,9.0,77,0.00,,---,0.00,VWS V14.01,2013-02-22 09:34:00,
2013-02-22 04:35:00,27.0,20.8,30.33,NW,306,7.0,9.0,77,0.00,,---,0.00,VWS V14.01,2013-02-22 09:35:00,
2013-02-22 04:36:00,27.0,21.1,30.33,NW,306,7.0,9.0,78,0.00,,---,0.00,VWS V14.01,2013-02-22 09:36:00,
2013-02-22 04:37:00,27.0,21.1,30.33,WNW,302,7.0,9.0,78,0.00,,---,0.00,VWS V14.01,2013-02-22 09:37:00,
2013-02-22 04:38:00,27.1,21.2,30.33,NW,304,6.0,9.0,78,0.00,,---,0.00,VWS V14.01,2013-02-22 09:38:00,
2013-02-22 04:39:00,27.1,21.2,30.33,WNW,300,6.0,9.0,78,0.00,,---,0.00,VWS V14.01,2013-02-22 09:39:00,
2013-02-22 04:40:00,27.2,21.3,30.33,WNW,300,8.0,9.0,78,0.00,,---,0.00,VWS V14.01,2013-02-22 09:40:00,
2013-02-22 04:41:00,27.2,21.3,30.33,WNW,299,7.0,9.0,78,0.00,,---,0.00,VWS V14.01,2013-02-22 09:41:00,
2013-02-22 04:42:00,27.2,21.3,30.33,WNW,300,7.0,9.0,78,0.00,,---,0.00,VWS V14.01,2013-02-22 09:42:00,
2013-02-22 04:43:00,27.3,21.4,30.34,WNW,293,8.0,9.0,78,0.00,,---,0.00,VWS V14.01,2013-02-22 09:43:00,
2013-02-22 04:44:00,27.2,21.3,30.34,WNW,301,8.0,9.0,78,0.00,,---,0.00,VWS V14.01,2013-02-22 09:44:00,
2013-02-22 04:45:00,27.2,21.3,30.34,WNW,296,8.0,9.0,78,0.00,,---,0.00,VWS V14.01,2013-02-22 09:45:00,
2013-02-22 04:46:00,27.3,21.7,30.34,WNW,296,8.0,9.0,79,0.00,,---,0.00,VWS V14.01,2013-02-22 09:46:00,
2013-02-22 04:47:00,27.2,21.3,30.34,WNW,292,9.0,10.0,78,0.00,,---,0.00,VWS V14.01,2013-02-22 09:47:00,
2013-02-22 04:48:00,27.2,21.3,30.34,WNW,297,9.0,10.0,78,0.00,,---,0.00,VWS V14.01,2013-02-22 09:48:00,
2013-02-22 04:49:00,27.2,21.3,30.34,WNW,300,10.0,10.0,78,0.00,,---,0.00,VWS V14.01,2013-02-22 09:49:00,
2013-02-22 04:50:00,27.2,21.3,30.34,NW,306,9.0,10.0,78,0.00,,---,0.00,VWS V14.01,2013-02-22 09:50:00,
2013-02-22 04:51:00,27.2,21.3,30.34,WNW,300,9.0,10.0,78,0.00,,---,0.00,VWS V14.01,2013-02-22 09:51:00,
2013-02-22 04:52:00,27.1,21.2,30.34,WNW,302,8.0,10.0,78,0.00,,---,0.00,VWS V14.01,2013-02-22 09:52:00,
2013-02-22 04:53:00,27.1,21.2,30.34,NW,304,8.0,10.0,78,0.00,,---,0.00,VWS V14.01,2013-02-22 09:53:00,
2013-02-22 04:54:00,27.1,21.2,30.34,NW,307,7.0,10.0,78,0.00,,---,0.00,VWS V14.01,2013-02-22 09:54:00,
2013-02-22 04:55:00,27.1,21.2,30.34,WNW,300,9.0,10.0,78,0.00,,---,0.00,VWS V14.01,2013-02-22 09:55:00,
2013-02-22 04:56:00,27.2,21.3,30.35,WNW,299,10.0,10.0,78,0.00,,---,0.00,VWS V14.01,2013-02-22 09:56:00,
2013-02-22 04:57:00,27.2,21.3,30.35,WNW,297,8.0,11.0,78,0.00,,---,0.00,VWS V14.01,2013-02-22 09:57:00,
2013-02-22 04:58:00,27.3,21.7,30.35,WNW,300,11.0,12.0,79,0.00,,---,0.00,VWS V14.01,2013-02-22 09:58:00,
2013-02-22 04:59:00,27.2,21.3,30.35,WNW,302,9.0,12.0,78,0.00,,---,0.00,VWS V14.01,2013-02-22 09:59:00,
2013-02-22 05:00:00,27.2,21.3,30.35,NW,306,10.0,12.0,78,0.00,,---,0.00,VWS V14.01,2013-02-22 10:00:00,
2013-02-22 05:01:00,27.2,21.3,30.35,WNW,303,9.0,11.0,78,0.00,,---,0.00,VWS V14.01,2013-02-22 10:01:00,
2013-02-22 05:02:00,27.2,21.3,30.35,NW,304,10.0,11.0,78,0.00,,---,0.00,VWS V14.01,2013-02-22 10:02:00,
2013-02-22 05:03:00,27.2,21.3,30.35,NW,313,9.0,11.0,78,0.00,,---,0.00,VWS V14.01,2013-02-22 10:03:00,
2013-02-22 05:04:00,27.3,21.4,30.35,NW,312,9.0,11.0,78,0.00,,---,0.00,VWS V14.01,2013-02-22 10:04:00,
2013-02-22 05:05:00,27.3,21.4,30.35,NW,317,9.0,11.0,78,0.00,,---,0.00,VWS V14.01,2013-02-22 10:05:00,
2013-02-22 05:06:00,27.2,21.3,30.35,NW,317,8.0,11.0,78,0.00,,---,0.00,VWS V14.01,2013-02-22 10:06:00,
2013-02-22 05:07:00,27.2,21.3,30.35,NW,320,9.0,11.0,78,0.00,,---,0.00,VWS V14.01,2013-02-22 10:07:00,
2013-02-22 05:08:00,27.2,21.3,30.35,NW,317,9.0,11.0,78,0.00,,---,0.00,VWS V14.01,2013-02-22 10:08:00,
2013-02-22 05:09:00,27.2,21.6,30.35,NW,317,10.0,11.0,79,0.00,,---,0.00,VWS V14.01,2013-02-22 10:09:00,
2013-02-22 05:10:00,27.2,21.3,30.35,NNW,334,11.0,11.0,78,0.00,,---,0.00,VWS V14.01,2013-02-22 10:10:00,
2013-02-22 05:11:00,27.2,21.3,30.35,NW,321,10.0,11.0,78,0.00,,---,0.00,VWS V14.01,2013-02-22 10:11:00,
2013-02-22 05:12:00,27.2,21.3,30.35,NW,319,9.0,11.0,78,0.00,,---,0.00,VWS V14.01,2013-02-22 10:12:00,
2013-02-22 05:13:00,27.3,21.7,30.36,NNW,327,9.0,11.0,79,0.00,,---,0.00,VWS V14.01,2013-02-22 10:13:00,
2013-02-22 05:14:00,27.3,21.7,30.36,NW,318,9.0,11.0,79,0.00,,---,0.00,VWS V14.01,2013-02-22 10:14:00,
2013-02-22 05:15:00,27.4,21.8,30.36,NW,312,9.0,11.0,79,0.00,,---,0.00,VWS V14.01,2013-02-22 10:15:00,
2013-02-22 05:16:00,27.4,21.8,30.36,NW,317,11.0,12.0,79,0.00,,---,0.00,VWS V14.01,2013-02-22 10:16:00,
2013-02-22 05:17:00,27.4,21.8,30.36,NW,316,9.0,12.0,79,0.00,,---,0.00,VWS V14.01,2013-02-22 10:17:00,
2013-02-22 05:18:00,27.5,21.9,30.36,NW,312,9.0,12.0,79,0.00,,---,0.00,VWS V14.01,2013-02-22 10:18:00,
2013-02-22 05:19:00,27.4,21.8,30.36,NW,309,9.0,12.0,79,0.00,,---,0.00,VWS V14.01,2013-02-22 10:19:00,
2013-02-22 05:20:00,27.4,21.8,30.36,NW,316,9.0,12.0,79,0.00,,---,0.00,VWS V14.01,2013-02-22 10:20:00,
2013-02-22 05:21:00,27.5,21.5,30.36,NW,324,11.0,12.0,78,0.00,,---,0.00,VWS V14.01,2013-02-22 10:21:00,
2013-02-22 05:22:00,27.5,21.5,30.36,NW,315,9.0,12.0,78,0.00,,---,0.00,VWS V14.01,2013-02-22 10:22:00,
2013-02-22 05:23:00,27.5,21.5,30.37,NW,317,8.0,12.0,78,0.00,,---,0.00,VWS V14.01,2013-02-22 10:23:00,
2013-02-22 05:24:00,27.6,22.0,30.37,NW,313,8.0,12.0,79,0.00,,---,0.00,VWS V14.01,2013-02-22 10:24:00,
2013-02-22 05:25:00,27.6,22.0,30.37,NW,306,11.0,12.0,79,0.00,,---,0.00,VWS V14.01,2013-02-22 10:25:00,
2013-02-22 05:26:00,27.6,22.0,30.37,NW,318,8.0,12.0,79,0.00,,---,0.00,VWS V14.01,2013-02-22 10:26:00,
2013-02-22 05:27:00,27.6,22.0,30.37,NW,304,9.0,12.0,79,0.00,,---,0.00,VWS V14.01,2013-02-22 10:27:00,
2013-02-22 05:28:00,27.6,22.0,30.37,NW,304,9.0,12.0,79,0.00,,---,0.00,VWS V14.01,2013-02-22 10:28:00,
2013-02-22 05:29:00,27.6,22.0,30.37,NW,313,8.0,12.0,79,0.00,,---,0.00,VWS V14.01,2013-02-22 10:29:00,
2013-02-22 05:30:00,27.6,22.0,30.37,NW,309,9.0,12.0,79,0.00,,---,0.00,VWS V14.01,2013-02-22 10:30:00,
2013-02-22 05:31:00,27.6,22.0,30.37,NW,308,7.0,12.0,79,0.00,,---,0.00,VWS V14.01,2013-02-22 10:31:00,
2013-02-22 05:32:00,27.6,22.0,30.37,NW,306,9.0,12.0,79,0.00,,---,0.00,VWS V14.01,2013-02-22 10:32:00,
2013-02-22 05:33:00,27.5,21.9,30.37,NW,321,10.0,12.0,79,0.00,,---,0.00,VWS V14.01,2013-02-22 10:33:00,
2013-02-22 05:34:00,27.5,21.9,30.37,NW,316,9.0,12.0,79,0.00,,---,0.00,VWS V14.01,2013-02-22 10:34:00,
2013-02-22 05:35:00,27.6,22.0,30.37,NW,312,9.0,12.0,79,0.00,,---,0.00,VWS V14.01,2013-02-22 10:35:00,
2013-02-22 05:36:00,27.6,22.0,30.37,NW,308,9.0,12.0,79,0.00,,---,0.00,VWS V14.01,2013-02-22 10:36:00,
2013-02-22 05:37:00,27.6,22.0,30.38,NW,312,8.0,12.0,79,0.00,,---,0.00,VWS V14.01,2013-02-22 10:37:00,
2013-02-22 05:38:00,27.6,22.0,30.38,NW,320,7.0,12.0,79,0.00,,---,0.00,VWS V14.01,2013-02-22 10:38:00,
2013-02-22 05:39:00,27.6,22.0,30.38,NW,317,9.0,12.0,79,0.00,,---,0.00,VWS V14.01,2013-02-22 10:39:00,
2013-02-22 05:40:00,27.6,22.0,30.38,NW,312,12.0,12.0,79,0.00,,---,0.00,VWS V14.01,2013-02-22 10:40:00,
2013-02-22 05:41:00,27.6,22.0,30.38,NW,312,9.0,12.0,79,0.00,,---,0.00,VWS V14.01,2013-02-22 10:41:00,
2013-02-22 05:42:00,27.6,22.0,30.38,NW,320,9.0,12.0,79,0.00,,---,0.00,VWS V14.01,2013-02-22 10:42:00,
2013-02-22 05:43:00,27.6,22.0,30.38,NW,318,10.0,12.0,79,0.00,,---,0.00,VWS V14.01,2013-02-22 10:43:00,
2013-02-22 05:44:00,27.6,22.0,30.38,NNW,334,10.0,12.0,79,0.00,,---,0.00,VWS V14.01,2013-02-22 10:44:00,
2013-02-22 05:45:00,27.6,22.0,30.38,NW,326,10.0,12.0,79,0.00,,---,0.00,VWS V14.01,2013-02-22 10:45:00,
2013-02-22 05:46:00,27.7,22.0,30.38,NW,324,9.0,12.0,79,0.00,,---,0.00,VWS V14.01,2013-02-22 10:46:00,
2013-02-22 05:47:00,27.6,21.6,30.38,NNW,327,10.0,12.0,78,0.00,,---,0.00,VWS V14.01,2013-02-22 10:47:00,
2013-02-22 05:48:00,27.6,21.6,30.38,NNW,339,13.0,14.0,78,0.00,,---,0.00,VWS V14.01,2013-02-22 10:48:00,
2013-02-22 05:49:00,27.6,21.6,30.38,NNW,332,11.0,14.0,78,0.00,,---,0.00,VWS V14.01,2013-02-22 10:49:00,
2013-02-22 05:50:00,27.7,22.0,30.38,NW,321,10.0,14.0,79,0.00,,---,0.00,VWS V14.01,2013-02-22 10:50:00,
2013-02-22 05:51:00,27.6,22.0,30.38,NW,325,11.0,14.0,79,0.00,,---,0.00,VWS V14.01,2013-02-22 10:51:00,
2013-02-22 05:52:00,27.6,22.0,30.38,NW,326,11.0,14.0,79,0.00,,---,0.00,VWS V14.01,2013-02-22 10:52:00,
2013-02-22 05:53:00,27.6,21.6,30.38,NW,315,12.0,14.0,78,0.00,,---,0.00,VWS V14.01,2013-02-22 10:53:00,
2013-02-22 05:54:00,27.6,21.6,30.39,NW,321,10.0,14.0,78,0.00,,---,0.00,VWS V14.01,2013-02-22 10:54:00,
2013-02-22 05:55:00,27.7,21.8,30.39,NW,320,10.0,14.0,78,0.00,,---,0.00,VWS V14.01,2013-02-22 10:55:00,
2013-02-22 05:56:00,27.6,21.6,30.38,NW,324,11.0,14.0,78,0.00,,---,0.00,VWS V14.01,2013-02-22 10:56:00,
2013-02-22 05:57:00,27.6,21.6,30.38,NNW,329,11.0,15.0,78,0.00,,---,0.00,VWS V14.01,2013-02-22 10:57:00,
2013-02-22 05:58:00,27.6,21.6,30.39,NNW,330,14.0,15.0,78,0.00,,---,0.00,VWS V14.01,2013-02-22 10:58:00,
2013-02-22 05:59:00,27.7,21.8,30.39,NW,317,12.0,15.0,78,0.00,,---,0.00,VWS V14.01,2013-02-22 10:59:00,
2013-02-22 06:00:00,27.7,21.8,30.39,NNW,327,11.0,15.0,78,0.00,,---,0.00,VWS V14.01,2013-02-22 11:00:00,
2013-02-22 06:01:00,27.8,22.1,30.39,NW,324,12.0,13.0,79,0.00,,---,0.00,VWS V14.01,2013-02-22 11:01:00,
2013-02-22 06:02:00,27.8,22.1,30.38,NNW,333,10.0,13.0,79,0.00,,---,0.00,VWS V14.01,2013-02-22 11:02:00,
2013-02-22 06:03:00,27.9,22.2,30.38,NW,326,12.0,13.0,79,0.00,,---,0.00,VWS V14.01,2013-02-22 11:03:00,
2013-02-22 06:04:00,28.0,22.3,30.38,NW,326,14.0,15.0,79,0.00,,---,0.00,VWS V14.01,2013-02-22 11:04:00,
2013-02-22 06:05:00,27.9,21.9,30.38,NNW,331,14.0,15.0,78,0.00,,---,0.00,VWS V14.01,2013-02-22 11:05:00,
2013-02-22 06:06:00,27.8,21.9,30.38,NNW,343,12.0,15.0,78,0.00,,---,0.00,VWS V14.01,2013-02-22 11:06:00,
2013-02-22 06:07:00,27.9,21.9,30.38,NNW,333,11.0,15.0,78,0.00,,---,0.00,VWS V14.01,2013-02-22 11:07:00,
2013-02-22 06:08:00,27.9,21.9,30.38,NNW,331,11.0,15.0,78,0.00,,---,0.00,VWS V14.01,2013-02-22 11:08:00,
2013-02-22 06:09:00,28.0,22.0,30.38,NNW,343,13.0,15.0,78,0.00,,---,0.00,VWS V14.01,2013-02-22 11:09:00,
2013-02-22 06:10:00,28.0,22.0,30.38,NNW,327,12.0,15.0,78,0.00,,---,0.00,VWS V14.01,2013-02-22 11:10:00,
2013-02-22 06:11:00,28.0,22.0,30.38,NNW,339,13.0,15.0,78,0.00,,---,0.00,VWS V14.01,2013-02-22 11:11:00,
2013-02-22 06:12:00,28.0,22.0,30.38,NNW,344,14.0,15.0,78,0.00,,---,0.00,VWS V14.01,2013-02-22 11:12:00,
2013-02-22 06:13:00,28.0,22.0,30.38,NNW,341,15.0,15.0,78,0.00,,---,0.00,VWS V14.01,2013-02-22 11:13:00,
2013-02-22 06:14:00,27.9,21.6,30.38,NNW,331,13.0,16.0,77,0.00,,---,0.00,VWS V14.01,2013-02-22 11:14:00,
2013-02-22 06:15:00,27.9,21.6,30.38,NNW,333,13.0,16.0,77,0.00,,---,0.00,VWS V14.01,2013-02-22 11:15:00,
2013-02-22 06:16:00,27.9,21.6,30.38,NNW,335,12.0,17.0,77,0.00,,---,0.00,VWS V14.01,2013-02-22 11:16:00,
2013-02-22 06:17:00,27.9,21.6,30.38,NNW,336,13.0,17.0,77,0.00,,---,0.00,VWS V14.01,2013-02-22 11:17:00,
2013-02-22 06:18:00,27.8,21.5,30.38,NNW,331,14.0,17.0,77,0.00,,---,0.00,VWS V14.01,2013-02-22 11:18:00,
2013-02-22 06:19:00,27.9,21.6,30.38,NNW,340,14.0,17.0,77,0.00,,---,0.00,VWS V14.01,2013-02-22 11:19:00,
2013-02-22 06:20:00,27.8,21.5,30.38,NNW,336,14.0,17.0,77,0.00,,---,0.00,VWS V14.01,2013-02-22 11:20:00,
2013-02-22 06:21:00,27.9,21.9,30.38,NNW,341,14.0,17.0,78,0.00,,---,0.00,VWS V14.01,2013-02-22 11:21:00,
2013-02-22 06:22:00,27.8,21.5,30.38,NNW,333,13.0,17.0,77,0.00,,---,0.00,VWS V14.01,2013-02-22 11:22:00,
2013-02-22 06:23:00,27.8,21.9,30.38,NNW,331,12.0,17.0,78,0.00,,---,0.00,VWS V14.01,2013-02-22 11:23:00,
2013-02-22 06:24:00,27.8,21.9,30.38,NNW,338,12.0,17.0,78,0.00,,---,0.00,VWS V14.01,2013-02-22 11:24:00,
2013-02-22 06:25:00,27.9,21.6,30.39,NNW,332,12.0,17.0,77,0.00,,---,0.00,VWS V14.01,2013-02-22 11:25:00,
2013-02-22 06:26:00,27.9,21.9,30.39,NNW,329,12.0,17.0,78,0.00,,---,0.00,VWS V14.01,2013-02-22 11:26:00,
2013-02-22 06:27:00,27.9,21.9,30.39,NNW,335,12.0,17.0,78,0.00,,---,0.00,VWS V14.01,2013-02-22 11:27:00,
2013-02-22 06:28:00,27.9,21.6,30.39,NNW,331,12.0,17.0,77,0.00,,---,0.00,VWS V14.01,2013-02-22 11:28:00,
2013-02-22 06:29:00,27.9,21.6,30.39,NNW,336,12.0,17.0,77,0.00,,---,0.00,VWS V14.01,2013-02-22 11:29:00,
2013-02-22 06:30:00,27.9,21.6,30.39,NNW,341,13.0,17.0,77,0.00,,---,0.00,VWS V14.01,2013-02-22 11:30:00,
2013-02-22 06:31:00,28.0,21.7,30.39,NNW,329,12.0,14.0,77,0.00,,---,0.00,VWS V14.01,2013-02-22 11:31:00,
2013-02-22 06:32:00,28.0,22.0,30.39,NNW,329,12.0,14.0,78,0.00,,---,0.00,VWS V14.01,2013-02-22 11:32:00,
2013-02-22 06:33:00,28.1,22.1,30.39,NNW,333,12.0,14.0,78,0.00,,---,0.00,VWS V14.01,2013-02-22 11:33:00,
2013-02-22 06:34:00,28.1,21.8,30.39,NNW,329,12.0,14.0,77,0.00,,---,0.00,VWS V14.01,2013-02-22 11:34:00,
2013-02-22 06:35:00,28.2,22.2,30.39,NNW,335,14.0,15.0,78,0.00,,---,0.00,VWS V14.01,2013-02-22 11:35:00,
2013-02-22 06:36:00,28.2,22.2,30.39,NNW,338,12.0,15.0,78,0.00,,---,0.00,VWS V14.01,2013-02-22 11:36:00,
2013-02-22 06:37:00,28.3,22.3,30.39,NW,325,13.0,15.0,78,0.00,,---,0.00,VWS V14.01,2013-02-22 11:37:00,
2013-02-22 06:38:00,28.4,22.4,30.39,NNW,334,13.0,15.0,78,0.00,,---,0.00,VWS V14.01,2013-02-22 11:38:00,
2013-02-22 06:39:00,28.5,22.5,30.39,NNW,331,13.0,15.0,78,0.00,,---,0.00,VWS V14.01,2013-02-22 11:39:00,
2013-02-22 06:40:00,28.5,22.5,30.39,NNW,336,11.0,15.0,78,0.00,,---,0.00,VWS V14.01,2013-02-22 11:40:00,
2013-02-22 06:41:00,28.6,22.6,30.39,NNW,333,13.0,15.0,78,0.00,,---,0.00,VWS V14.01,2013-02-22 11:41:00,
2013-02-22 06:42:00,28.7,22.7,30.39,NNW,339,13.0,15.0,78,0.00,,---,0.00,VWS V14.01,2013-02-22 11:42:00,
2013-02-22 06:43:00,28.7,22.7,30.39,NNW,332,14.0,15.0,78,0.00,,---,0.00,VWS V14.01,2013-02-22 11:43:00,
2013-02-22 06:44:00,28.7,22.4,30.39,NNW,333,11.0,15.0,77,0.00,,---,0.00,VWS V14.01,2013-02-22 11:44:00,
2013-02-22 06:45:00,28.8,22.5,30.39,North,350,14.0,15.0,77,0.00,,---,0.00,VWS V14.01,2013-02-22 11:45:00,
2013-02-22 06:46:00,28.8,22.5,30.39,NNW,341,14.0,15.0,77,0.00,,---,0.00,VWS V14.01,2013-02-22 11:46:00,
2013-02-22 06:47:00,28.8,22.2,30.39,NNW,342,13.0,16.0,76,0.00,,---,0.00,VWS V14.01,2013-02-22 11:47:00,
2013-02-22 06:48:00,28.9,22.3,30.39,NNW,344,13.0,16.0,76,0.00,,---,0.00,VWS V14.01,2013-02-22 11:48:00,
2013-02-22 06:49:00,29.0,22.4,30.38,NNW,345,12.0,16.0,76,0.00,,---,0.00,VWS V14.01,2013-02-22 11:49:00,
2013-02-22 06:50:00,29.0,22.7,30.38,NNW,347,14.0,16.0,77,0.00,,---,0.00,VWS V14.01,2013-02-22 11:50:00,
2013-02-22 06:51:00,29.2,22.9,30.38,North,350,14.0,16.0,77,0.00,,---,0.00,VWS V14.01,2013-02-22 11:51:00,
2013-02-22 06:52:00,29.2,22.9,30.38,North,349,15.0,16.0,77,0.00,,---,0.00,VWS V14.01,2013-02-22 11:52:00,
2013-02-22 06:53:00,29.3,22.7,30.38,North,355,13.0,16.0,76,0.00,,---,0.00,VWS V14.01,2013-02-22 11:53:00,
2013-02-22 06:54:00,29.4,22.8,30.38,North,350,14.0,16.0,76,0.00,,---,0.00,VWS V14.01,2013-02-22 11:54:00,
2013-02-22 06:55:00,29.4,22.8,30.38,NNW,344,14.0,17.0,76,0.00,,---,0.00,VWS V14.01,2013-02-22 11:55:00,
2013-02-22 06:56:00,29.4,22.8,30.38,NNW,345,14.0,17.0,76,0.00,,---,0.00,VWS V14.01,2013-02-22 11:56:00,
2013-02-22 06:57:00,29.6,23.0,30.38,North,355,14.0,17.0,76,0.00,,---,0.00,VWS V14.01,2013-02-22 11:57:00,
2013-02-22 06:58:00,29.7,23.1,30.38,NNW,348,14.0,17.0,76,0.00,,---,0.00,VWS V14.01,2013-02-22 11:58:00,
2013-02-22 06:59:00,29.8,23.2,30.38,NNW,347,15.0,18.0,76,0.00,,---,0.00,VWS V14.01,2013-02-22 11:59:00,
2013-02-22 07:00:00,29.8,23.2,30.38,North,350,15.0,18.0,76,0.00,,---,0.00,VWS V14.01,2013-02-22 12:00:00,
2013-02-22 07:01:00,29.9,23.3,30.38,North,355,16.0,17.0,76,0.00,,---,0.00,VWS V14.01,2013-02-22 12:01:00,
2013-02-22 07:02:00,29.9,23.3,30.38,North,355,15.0,17.0,76,0.00,,---,0.00,VWS V14.01,2013-02-22 12:02:00,
2013-02-22 07:03:00,30.0,23.4,30.38,North,350,15.0,17.0,76,0.00,,---,0.00,VWS V14.01,2013-02-22 12:03:00,
2013-02-22 07:04:00,30.0,23.0,30.38,North,355,16.0,18.0,75,0.00,,---,0.00,VWS V14.01,2013-02-22 12:04:00,
2013-02-22 07:05:00,30.1,23.1,30.38,NNW,344,13.0,18.0,75,0.00,,---,0.00,VWS V14.01,2013-02-22 12:05:00,
2013-02-22 07:06:00,30.2,23.2,30.38,North,360,15.0,18.0,75,0.00,,---,0.00,VWS V14.01,2013-02-22 12:06:00,
2013-02-22 07:07:00,30.3,23.3,30.38,North,5,17.0,18.0,75,0.00,,---,0.00,VWS V14.01,2013-02-22 12:07:00,
2013-02-22 07:08:00,30.3,23.0,30.38,NNW,348,18.0,18.0,74,0.00,,---,0.00,VWS V14.01,2013-02-22 12:08:00,
2013-02-22 07:09:00,30.4,23.1,30.38,North,5,14.0,19.0,74,0.00,,---,0.00,VWS V14.01,2013-02-22 12:09:00,
2013-02-22 07:10:00,30.5,23.2,30.38,North,355,19.0,19.0,74,0.00,,---,0.00,VWS V14.01,2013-02-22 12:10:00,
2013-02-22 07:11:00,30.5,23.2,30.38,North,355,16.0,20.0,74,0.00,,---,0.00,VWS V14.01,2013-02-22 12:11:00,
2013-02-22 07:12:00,30.5,22.9,30.38,North,351,17.0,20.0,73,0.00,,---,0.00,VWS V14.01,2013-02-22 12:12:00,
2013-02-22 07:13:00,30.6,23.0,30.38,North,360,13.0,20.0,73,0.00,,---,0.00,VWS V14.01,2013-02-22 12:13:00,
2013-02-22 07:14:00,30.6,23.0,30.38,NNE,19,14.0,20.0,73,0.00,,---,0.00,VWS V14.01,2013-02-22 12:14:00,
2013-02-22 07:15:00,30.7,23.1,30.38,North,360,14.0,20.0,73,0.00,,---,0.00,VWS V14.01,2013-02-22 12:15:00,
2013-02-22 07:16:00,30.8,22.9,30.38,North,355,12.0,20.0,72,0.00,,---,0.00,VWS V14.01,2013-02-22 12:16:00,
2013-02-22 07:17:00,30.8,22.9,30.38,NNE,27,15.0,20.0,72,0.00,,---,0.00,VWS V14.01,2013-02-22 12:17:00,
2013-02-22 07:18:00,30.9,23.0,30.38,North,5,14.0,20.0,72,0.00,,---,0.00,VWS V14.01,2013-02-22 12:18:00,
2013-02-22 07:19:00,31.0,22.7,30.38,North,355,18.0,20.0,71,0.00,,---,0.00,VWS V14.01,2013-02-22 12:19:00,
2013-02-22 07:20:00,31.0,22.7,30.38,North,355,16.0,20.0,71,0.00,,---,0.00,VWS V14.01,2013-02-22 12:20:00,
2013-02-22 07:21:00,31.0,22.7,30.38,NNW,347,10.0,20.0,71,0.00,,---,0.00,VWS V14.01,2013-02-22 12:21:00,
2013-02-22 07:22:00,31.1,22.8,30.37,NNE,14,15.0,20.0,71,0.00,,---,0.00,VWS V14.01,2013-02-22 12:22:00,
2013-02-22 07:23:00,31.2,22.9,30.37,North,11,12.0,20.0,71,0.00,,---,0.00,VWS V14.01,2013-02-22 12:23:00,
2013-02-22 07:24:00,31.2,22.6,30.38,North,360,10.0,20.0,70,0.00,,---,0.00,VWS V14.01,2013-02-22 12:24:00,
2013-02-22 07:25:00,31.3,22.7,30.37,North,360,16.0,21.0,70,0.00,,---,0.00,VWS V14.01,2013-02-22 12:25:00,
2013-02-22 07:26:00,31.4,22.8,30.38,NNE,14,9.0,21.0,70,0.00,,---,0.00,VWS V14.01,2013-02-22 12:26:00,
2013-02-22 07:27:00,31.4,22.8,30.37,North,9,14.0,21.0,70,0.00,,---,0.00,VWS V14.01,2013-02-22 12:27:00,
2013-02-22 07:28:00,31.5,22.5,30.38,NE,56,9.0,21.0,69,0.00,,---,0.00,VWS V14.01,2013-02-22 12:28:00,
2013-02-22 07:29:00,31.6,22.6,30.38,North,9,9.0,21.0,69,0.00,,---,0.00,VWS V14.01,2013-02-22 12:29:00,
2013-02-22 07:30:00,31.7,22.7,30.38,North,355,7.0,21.0,69,0.00,,---,0.00,VWS V14.01,2013-02-22 12:30:00,
2013-02-22 07:31:00,31.7,23.0,30.38,NNE,16,8.0,12.0,70,0.00,,---,0.00,VWS V14.01,2013-02-22 12:31:00,
2013-02-22 07:32:00,31.8,23.1,30.38,NNE,20,8.0,15.0,70,0.00,,---,0.00,VWS V14.01,2013-02-22 12:32:00,
2013-02-22 07:33:00,31.8,23.1,30.38,North,5,7.0,15.0,70,0.00,,---,0.00,VWS V14.01,2013-02-22 12:33:00,
2013-02-22 07:34:00,31.9,22.9,30.38,North,360,10.0,15.0,69,0.00,,---,0.00,VWS V14.01,2013-02-22 12:34:00,
2013-02-22 07:35:00,32.0,23.0,30.38,NNE,30,8.0,17.0,69,0.00,,---,0.00,VWS V14.01,2013-02-22 12:35:00,
2013-02-22 07:36:00,32.0,23.0,30.38,North,355,12.0,17.0,69,0.00,,---,0.00,VWS V14.01,2013-02-22 12:36:00,
2013-02-22 07:37:00,32.1,23.1,30.38,North,5,11.0,17.0,69,0.00,,---,0.00,VWS V14.01,2013-02-22 12:37:00,
2013-02-22 07:38:00,32.2,23.2,30.38,North,11,7.0,17.0,69,0.00,,---,0.00,VWS V14.01,2013-02-22 12:38:00,
2013-02-22 07:39:00,32.2,23.2,30.38,NNE,15,8.0,17.0,69,0.00,,---,0.00,VWS V14.01,2013-02-22 12:39:00,
2013-02-22 07:40:00,32.3,23.3,30.38,North,5,10.0,17.0,69,0.00,,---,0.00,VWS V14.01,2013-02-22 12:40:00,
2013-02-22 07:41:00,32.4,23.0,30.38,NNE,30,9.0,17.0,68,0.00,,---,0.00,VWS V14.01,2013-02-22 12:41:00,
2013-02-22 07:42:00,32.5,23.5,30.38,NNW,348,10.0,17.0,69,0.00,,---,0.00,VWS V14.01,2013-02-22 12:42:00,
2013-02-22 07:43:00,32.5,23.1,30.38,North,360,11.0,17.0,68,0.00,,---,0.00,VWS V14.01,2013-02-22 12:43:00,
2013-02-22 07:44:00,32.6,23.2,30.38,North,9,12.0,22.0,68,0.00,,---,0.00,VWS V14.01,2013-02-22 12:44:00,
2013-02-22 07:45:00,32.6,22.9,30.38,NE,42,10.0,22.0,67,0.00,,---,0.00,VWS V14.01,2013-02-22 12:45:00,
2013-02-22 07:46:00,32.6,22.9,30.38,NNE,13,7.0,22.0,67,0.00,,---,0.00,VWS V14.01,2013-02-22 12:46:00,
2013-02-22 07:47:00,32.7,23.3,30.38,NNE,15,10.0,22.0,68,0.00,,---,0.00,VWS V14.01,2013-02-22 12:47:00,
2013-02-22 07:48:00,32.8,23.4,30.38,NNE,21,6.0,22.0,68,0.00,,---,0.00,VWS V14.01,2013-02-22 12:48:00,
2013-02-22 07:49:00,32.8,23.4,30.38,NNE,24,11.0,22.0,68,0.00,,---,0.00,VWS V14.01,2013-02-22 12:49:00,
2013-02-22 07:50:00,32.9,23.5,30.38,North,11,6.0,22.0,68,0.00,,---,0.00,VWS V14.01,2013-02-22 12:50:00,
2013-02-22 07:51:00,32.9,23.5,30.38,NNE,30,6.0,22.0,68,0.00,,---,0.00,VWS V14.01,2013-02-22 12:51:00,
2013-02-22 07:52:00,33.0,23.6,30.37,NE,38,7.0,22.0,68,0.00,,---,0.00,VWS V14.01,2013-02-22 12:52:00,
2013-02-22 07:53:00,33.1,23.7,30.37,NNE,23,7.0,22.0,68,0.00,,---,0.00,VWS V14.01,2013-02-22 12:53:00,
2013-02-22 07:54:00,33.1,23.7,30.37,NNE,30,15.0,22.0,68,0.00,,---,0.00,VWS V14.01,2013-02-22 12:54:00,
2013-02-22 07:55:00,33.2,23.8,30.37,NNE,30,7.0,22.0,68,0.00,,---,0.00,VWS V14.01,2013-02-22 12:55:00,
2013-02-22 07:56:00,33.3,23.9,30.37,North,5,11.0,22.0,68,0.00,,---,0.00,VWS V14.01,2013-02-22 12:56:00,
2013-02-22 07:57:00,33.4,23.6,30.37,NE,37,13.0,22.0,67,0.00,,---,0.00,VWS V14.01,2013-02-22 12:57:00,
2013-02-22 07:58:00,33.4,23.6,30.37,NNE,33,7.0,22.0,67,0.00,,---,0.00,VWS V14.01,2013-02-22 12:58:00,
2013-02-22 07:59:00,33.4,23.6,30.37,North,11,8.0,22.0,67,0.00,,---,0.00,VWS V14.01,2013-02-22 12:59:00,
2013-02-22 08:00:00,33.4,23.3,30.37,North,9,13.0,22.0,66,0.00,,---,0.00,VWS V14.01,2013-02-22 13:00:00,
2013-02-22 08:01:00,33.4,23.3,30.37,NNE,23,9.0,13.0,66,0.00,,---,0.00,VWS V14.01,2013-02-22 13:01:00,
2013-02-22 08:02:00,33.5,23.4,30.37,NNE,24,6.0,13.0,66,0.00,,---,0.00,VWS V14.01,2013-02-22 13:02:00,
2013-02-22 08:03:00,33.4,23.6,30.37,NE,51,9.0,13.0,67,0.00,,---,0.00,VWS V14.01,2013-02-22 13:03:00,
2013-02-22 08:04:00,33.5,23.7,30.37,North,360,8.0,13.0,67,0.00,,---,0.00,VWS V14.01,2013-02-22 13:04:00,
2013-02-22 08:05:00,33.5,23.7,30.37,NNE,15,11.0,13.0,67,0.00,,---,0.00,VWS V14.01,2013-02-22 13:05:00,
2013-02-22 08:06:00,33.6,23.8,30.37,NNE,17,6.0,13.0,67,0.00,,---,0.00,VWS V14.01,2013-02-22 13:06:00,
2013-02-22 08:07:00,33.6,23.8,30.37,NNE,15,9.0,13.0,67,0.00,,---,0.00,VWS V14.01,2013-02-22 13:07:00,
2013-02-22 08:08:00,33.7,23.9,30.37,NNE,18,5.0,13.0,67,0.00,,---,0.00,VWS V14.01,2013-02-22 13:08:00,
2013-02-22 08:09:00,33.8,24.0,30.37,North,355,11.0,14.0,67,0.00,,---,0.00,VWS V14.01,2013-02-22 13:09:00,
2013-02-22 08:10:00,33.8,24.0,30.37,NNE,32,9.0,15.0,67,0.00,,---,0.00,VWS V14.01,2013-02-22 13:10:00,
2013-02-22 08:11:00,33.9,23.8,30.37,North,5,9.0,15.0,66,0.00,,---,0.00,VWS V14.01,2013-02-22 13:11:00,
2013-02-22 08:12:00,33.9,23.8,30.37,NE,36,6.0,15.0,66,0.00,,---,0.00,VWS V14.01,2013-02-22 13:12:00,
2013-02-22 08:13:00,33.9,24.1,30.37,NNE,22,12.0,15.0,67,0.00,,---,0.00,VWS V14.01,2013-02-22 13:13:00,
2013-02-22 08:14:00,33.9,23.8,30.37,NNE,22,11.0,15.0,66,0.00,,---,0.00,VWS V14.01,2013-02-22 13:14:00,
2013-02-22 08:15:00,34.0,23.9,30.37,NNE,24,12.0,15.0,66,0.00,,---,0.00,VWS V14.01,2013-02-22 13:15:00,
2013-02-22 08:16:00,34.0,23.9,30.37,North,355,13.0,15.0,66,0.00,,---,0.00,VWS V14.01,2013-02-22 13:16:00,
2013-02-22 08:17:00,34.0,23.9,30.37,North,355,12.0,15.0,66,0.00,,---,0.00,VWS V14.01,2013-02-22 13:17:00,
2013-02-22 08:18:00,34.0,23.9,30.37,NNE,32,6.0,15.0,66,0.00,,---,0.00,VWS V14.01,2013-02-22 13:18:00,
2013-02-22 08:19:00,34.1,24.0,30.37,NNE,27,14.0,18.0,66,0.00,,---,0.00,VWS V14.01,2013-02-22 13:19:00,
2013-02-22 08:20:00,34.1,24.0,30.37,NNE,19,13.0,18.0,66,0.00,,---,0.00,VWS V14.01,2013-02-22 13:20:00,
2013-02-22 08:21:00,34.1,23.6,30.37,North,5,11.0,18.0,65,0.00,,---,0.00,VWS V14.01,2013-02-22 13:21:00,
2013-02-22 08:22:00,34.1,23.6,30.37,North,5,8.0,18.0,65,0.00,,---,0.00,VWS V14.01,2013-02-22 13:22:00,
2013-02-22 08:23:00,34.1,23.6,30.37,North,5,10.0,18.0,65,0.00,,---,0.00,VWS V14.01,2013-02-22 13:23:00,
2013-02-22 08:24:00,34.1,23.6,30.37,North,9,10.0,18.0,65,0.00,,---,0.00,VWS V14.01,2013-02-22 13:24:00,
2013-02-22 08:25:00,34.1,24.0,30.37,NNE,28,10.0,18.0,66,0.00,,---,0.00,VWS V14.01,2013-02-22 13:25:00,
2013-02-22 08:26:00,34.2,24.0,30.37,North,349,9.0,18.0,66,0.00,,---,0.00,VWS V14.01,2013-02-22 13:26:00,
2013-02-22 08:27:00,34.2,24.0,30.37,North,355,9.0,18.0,66,0.00,,---,0.00,VWS V14.01,2013-02-22 13:27:00,
2013-02-22 08:28:00,34.3,23.8,30.37,North,350,12.0,18.0,65,0.00,,---,0.00,VWS V14.01,2013-02-22 13:28:00,
2013-02-22 08:29:00,34.2,24.0,30.38,NNE,30,10.0,18.0,66,0.00,,---,0.00,VWS V14.01,2013-02-22 13:29:00,
2013-02-22 08:30:00,34.2,23.7,30.38,NNE,13,8.0,18.0,65,0.00,,---,0.00,VWS V14.01,2013-02-22 13:30:00,
2013-02-22 08:31:00,34.3,23.8,30.38,NNE,22,12.0,16.0,65,0.00,,---,0.00,VWS V14.01,2013-02-22 13:31:00,
2013-02-22 08:32:00,34.3,23.8,30.38,North,5,12.0,16.0,65,0.00,,---,0.00,VWS V14.01,2013-02-22 13:32:00,
2013-02-22 08:33:00,34.4,23.9,30.38,NE,40,7.0,16.0,65,0.00,,---,0.00,VWS V14.01,2013-02-22 13:33:00,
2013-02-22 08:34:00,34.5,24.3,30.38,NNE,33,4.0,16.0,66,0.00,,---,0.00,VWS V14.01,2013-02-22 13:34:00,
2013-02-22 08:35:00,34.6,24.4,30.38,NE,55,10.0,16.0,66,0.00,,---,0.00,VWS V14.01,2013-02-22 13:35:00,
2013-02-22 08:36:00,34.7,24.5,30.38,North,360,11.0,16.0,66,0.00,,---,0.00,VWS V14.01,2013-02-22 13:36:00,
2013-02-22 08:37:00,34.7,24.5,30.38,NNE,25,8.0,16.0,66,0.00,,---,0.00,VWS V14.01,2013-02-22 13:37:00,
2013-02-22 08:38:00,34.7,24.1,30.38,NE,38,7.0,16.0,65,0.00,,---,0.00,VWS V14.01,2013-02-22 13:38:00,
2013-02-22 08:39:00,34.7,24.1,30.38,NNE,32,12.0,16.0,65,0.00,,---,0.00,VWS V14.01,2013-02-22 13:39:00,
2013-02-22 08:40:00,34.7,24.1,30.38,NE,42,8.0,16.0,65,0.00,,---,0.00,VWS V14.01,2013-02-22 13:40:00,
2013-02-22 08:41:00,34.7,24.1,30.38,NNW,345,13.0,16.0,65,0.00,,---,0.00,VWS V14.01,2013-02-22 13:41:00,
2013-02-22 08:42:00,34.7,24.1,30.38,NNE,30,10.0,16.0,65,0.00,,---,0.00,VWS V14.01,2013-02-22 13:42:00,
2013-02-22 08:43:00,34.7,23.8,30.38,NE,39,11.0,17.0,64,0.00,,---,0.00,VWS V14.01,2013-02-22 13:43:00,
2013-02-22 08:44:00,34.7,23.8,30.38,North,360,10.0,17.0,64,0.00,,---,0.00,VWS V14.01,2013-02-22 13:44:00,
2013-02-22 08:45:00,34.7,24.1,30.38,North,360,13.0,17.0,65,0.00,,---,0.00,VWS V14.01,2013-02-22 13:45:00,
2013-02-22 08:46:00,34.7,24.1,30.38,North,5,9.0,17.0,65,0.00,,---,0.00,VWS V14.01,2013-02-22 13:46:00,
2013-02-22 08:47:00,34.7,24.1,30.38,NNE,19,16.0,17.0,65,0.00,,---,0.00,VWS V14.01,2013-02-22 13:47:00,
2013-02-22 08:48:00,34.8,24.2,30.38,North,9,9.0,17.0,65,0.00,,---,0.00,VWS V14.01,2013-02-22 13:48:00,
2013-02-22 08:49:00,34.8,23.9,30.38,North,360,10.0,17.0,64,0.00,,---,0.00,VWS V14.01,2013-02-22 13:49:00,
2013-02-22 08:50:00,34.8,24.2,30.38,NNE,13,12.0,17.0,65,0.00,,---,0.00,VWS V14.01,2013-02-22 13:50:00,
2013-02-22 08:51:00,34.8,24.2,30.38,NNE,30,14.0,18.0,65,0.00,,---,0.00,VWS V14.01,2013-02-22 13:51:00,
2013-02-22 08:52:00,34.9,24.3,30.38,NE,51,10.0,18.0,65,0.00,,---,0.00,VWS V14.01,2013-02-22 13:52:00,
2013-02-22 08:53:00,35.0,24.4,30.38,NE,49,15.0,18.0,65,0.00,,---,0.00,VWS V14.01,2013-02-22 13:53:00,
2013-02-22 08:54:00,35.0,24.4,30.38,NE,41,14.0,18.0,65,0.00,,---,0.00,VWS V14.01,2013-02-22 13:54:00,
2013-02-22 08:55:00,35.0,24.4,30.38,NNE,31,11.0,18.0,65,0.00,,---,0.00,VWS V14.01,2013-02-22 13:55:00,
2013-02-22 08:56:00,35.0,24.4,30.38,NE,42,15.0,18.0,65,0.00,,---,0.00,VWS V14.01,2013-02-22 13:56:00,
2013-02-22 08:57:00,35.1,24.5,30.38,NE,36,13.0,18.0,65,0.00,,---,0.00,VWS V14.01,2013-02-22 13:57:00,
2013-02-22 08:58:00,35.2,24.6,30.38,NNE,19,7.0,18.0,65,0.00,,---,0.00,VWS V14.01,2013-02-22 13:58:00,
2013-02-22 08:59:00,35.2,24.6,30.38,NNE,24,10.0,18.0,65,0.00,,---,0.00,VWS V14.01,2013-02-22 13:59:00,
2013-02-22 09:00:00,35.2,24.6,30.38,NE,36,10.0,18.0,65,0.00,,---,0.00,VWS V14.01,2013-02-22 14:00:00,
2013-02-22 09:01:00,35.2,24.6,30.38,NNE,25,7.0,12.0,65,0.00,,---,0.00,VWS V14.01,2013-02-22 14:01:00,
2013-02-22 09:02:00,35.3,24.7,30.38,NE,54,8.0,12.0,65,0.00,,---,0.00,VWS V14.01,2013-02-22 14:02:00,
2013-02-22 09:03:00,35.4,25.2,30.38,North,360,8.0,12.0,66,0.00,,---,0.00,VWS V14.01,2013-02-22 14:03:00,
2013-02-22 09:04:00,35.5,24.9,30.38,NNE,15,7.0,12.0,65,0.00,,---,0.00,VWS V14.01,2013-02-22 14:04:00,
2013-02-22 09:05:00,35.5,24.9,30.38,North,11,10.0,15.0,65,0.00,,---,0.00,VWS V14.01,2013-02-22 14:05:00,
2013-02-22 09:06:00,35.6,25.0,30.38,NE,42,8.0,15.0,65,0.00,,---,0.00,VWS V14.01,2013-02-22 14:06:00,
2013-02-22 09:07:00,35.6,25.0,30.38,NE,50,8.0,15.0,65,0.00,,---,0.00,VWS V14.01,2013-02-22 14:07:00,
2013-02-22 09:08:00,35.7,25.1,30.38,NNE,13,11.0,15.0,65,0.00,,---,0.00,VWS V14.01,2013-02-22 14:08:00,
2013-02-22 09:09:00,35.7,25.1,30.38,NE,39,11.0,15.0,65,0.00,,---,0.00,VWS V14.01,2013-02-22 14:09:00,
2013-02-22 09:10:00,35.6,24.6,30.38,NE,53,11.0,16.0,64,0.00,,---,0.00,VWS V14.01,2013-02-22 14:10:00,
2013-02-22 09:11:00,35.6,24.6,30.38,NE,49,10.0,16.0,64,0.00,,---,0.00,VWS V14.01,2013-02-22 14:11:00,
2013-02-22 09:12:00,35.6,24.6,30.38,NE,43,10.0,16.0,64,0.00,,---,0.00,VWS V14.01,2013-02-22 14:12:00,
2013-02-22 09:13:00,35.6,25.0,30.38,NE,43,10.0,16.0,65,0.00,,---,0.00,VWS V14.01,2013-02-22 14:13:00,
2013-02-22 09:14:00,35.6,24.6,30.38,North,11,6.0,16.0,64,0.00,,---,0.00,VWS V14.01,2013-02-22 14:14:00,
2013-02-22 09:15:00,35.6,25.0,30.38,North,355,13.0,16.0,65,0.00,,---,0.00,VWS V14.01,2013-02-22 14:15:00,
2013-02-22 09:16:00,35.7,25.1,30.38,NE,54,10.0,16.0,65,0.00,,---,0.00,VWS V14.01,2013-02-22 14:16:00,
2013-02-22 09:17:00,35.8,25.2,30.38,NE,42,12.0,16.0,65,0.00,,---,0.00,VWS V14.01,2013-02-22 14:17:00,
2013-02-22 09:18:00,35.8,24.8,30.39,NE,38,7.0,16.0,64,0.00,,---,0.00,VWS V14.01,2013-02-22 14:18:00,
2013-02-22 09:19:00,35.9,24.9,30.39,NNE,12,6.0,16.0,64,0.00,,---,0.00,VWS V14.01,2013-02-22 14:19:00,
2013-02-22 09:20:00,35.9,24.9,30.39,NE,45,13.0,16.0,64,0.00,,---,0.00,VWS V14.01,2013-02-22 14:20:00,
2013-02-22 09:21:00,36.0,25.0,30.39,NE,44,13.0,16.0,64,0.00,,---,0.00,VWS V14.01,2013-02-22 14:21:00,
2013-02-22 09:22:00,36.0,25.0,30.39,North,5,9.0,16.0,64,0.00,,---,0.00,VWS V14.01,2013-02-22 14:22:00,
2013-02-22 09:23:00,36.1,24.7,30.39,NNE,19,12.0,16.0,63,0.00,,---,0.00,VWS V14.01,2013-02-22 14:23:00,
2013-02-22 09:24:00,36.0,24.6,30.38,NE,44,13.0,16.0,63,0.00,,---,0.00,VWS V14.01,2013-02-22 14:24:00,
2013-02-22 09:25:00,36.1,25.1,30.39,NE,36,10.0,16.0,64,0.00,,---,0.00,VWS V14.01,2013-02-22 14:25:00,
2013-02-22 09:26:00,36.1,25.1,30.38,NE,42,10.0,16.0,64,0.00,,---,0.00,VWS V14.01,2013-02-22 14:26:00,
2013-02-22 09:27:00,36.1,24.7,30.38,NE,41,10.0,16.0,63,0.00,,---,0.00,VWS V14.01,2013-02-22 14:27:00,
2013-02-22 09:28:00,36.1,24.7,30.38,NNE,31,12.0,16.0,63,0.00,,---,0.00,VWS V14.01,2013-02-22 14:28:00,
2013-02-22 09:29:00,36.1,24.7,30.38,NE,49,8.0,16.0,63,0.00,,---,0.00,VWS V14.01,2013-02-22 14:29:00,
2013-02-22 09:30:00,36.1,25.1,30.38,NNE,33,11.0,16.0,64,0.00,,---,0.00,VWS V14.01,2013-02-22 14:30:00,
2013-02-22 09:31:00,36.1,25.1,30.38,NNE,24,11.0,11.0,64,0.00,,---,0.00,VWS V14.01,2013-02-22 14:31:00,
2013-02-22 09:32:00,36.1,24.7,30.38,ENE,62,7.0,11.0,63,0.00,,---,0.00,VWS V14.01,2013-02-22 14:32:00,
2013-02-22 09:33:00,36.1,25.1,30.38,NE,49,9.0,15.0,64,0.00,,---,0.00,VWS V14.01,2013-02-22 14:33:00,
2013-02-22 09:34:00,36.1,25.1,30.38,NNE,32,8.0,15.0,64,0.00,,---,0.00,VWS V14.01,2013-02-22 14:34:00,
2013-02-22 09:35:00,36.1,25.1,30.38,NNE,30,8.0,15.0,64,0.00,,---,0.00,VWS V14.01,2013-02-22 14:35:00,
2013-02-22 09:36:00,36.0,25.0,30.38,North,10,9.0,15.0,64,0.00,,---,0.00,VWS V14.01,2013-02-22 14:36:00,
2013-02-22 09:37:00,35.9,24.9,30.38,NE,34,16.0,16.0,64,0.00,,---,0.00,VWS V14.01,2013-02-22 14:37:00,
2013-02-22 09:38:00,35.9,24.9,30.38,NE,50,10.0,16.0,64,0.00,,---,0.00,VWS V14.01,2013-02-22 14:38:00,
2013-02-22 09:39:00,35.9,25.3,30.38,NE,52,6.0,16.0,65,0.00,,---,0.00,VWS V14.01,2013-02-22 14:39:00,
2013-02-22 09:40:00,35.9,25.3,30.37,North,9,9.0,16.0,65,0.00,,---,0.00,VWS V14.01,2013-02-22 14:40:00,
2013-02-22 09:41:00,36.0,25.4,30.37,NNE,28,9.0,16.0,65,0.00,,---,0.00,VWS V14.01,2013-02-22 14:41:00,
2013-02-22 09:42:00,36.0,25.4,30.37,NE,36,16.0,16.0,65,0.00,,---,0.00,VWS V14.01,2013-02-22 14:42:00,
2013-02-22 09:43:00,36.0,25.0,30.37,NNE,28,11.0,16.0,64,0.00,,---,0.00,VWS V14.01,2013-02-22 14:43:00,
2013-02-22 09:44:00,36.1,25.1,30.37,NNE,22,8.0,16.0,64,0.00,,---,0.00,VWS V14.01,2013-02-22 14:44:00,
2013-02-22 09:45:00,36.1,25.1,30.37,NE,42,4.0,16.0,64,0.00,,---,0.00,VWS V14.01,2013-02-22 14:45:00,
2013-02-22 09:46:00,36.2,25.6,30.37,NE,52,10.0,16.0,65,0.00,,---,0.00,VWS V14.01,2013-02-22 14:46:00,
2013-02-22 09:47:00,36.4,25.8,30.37,NE,42,7.0,16.0,65,0.00,,---,0.00,VWS V14.01,2013-02-22 14:47:00,
2013-02-22 09:48:00,36.5,25.9,30.37,NNE,32,7.0,16.0,65,0.00,,---,0.00,VWS V14.01,2013-02-22 14:48:00,
2013-02-22 09:49:00,36.6,26.0,30.37,NE,42,9.0,16.0,65,0.00,,---,0.00,VWS V14.01,2013-02-22 14:49:00,
2013-02-22 09:50:00,36.7,25.7,30.37,NNE,28,12.0,16.0,64,0.00,,---,0.00,VWS V14.01,2013-02-22 14:50:00,
2013-02-22 09:51:00,36.8,25.8,30.37,NE,50,5.0,16.0,64,0.00,,---,0.00,VWS V14.01,2013-02-22 14:51:00,
2013-02-22 09:52:00,36.9,25.9,30.37,NE,38,10.0,16.0,64,0.00,,---,0.00,VWS V14.01,2013-02-22 14:52:00,
2013-02-22 09:53:00,37.0,26.0,30.37,NE,42,9.0,16.0,64,0.00,,---,0.00,VWS V14.01,2013-02-22 14:53:00,
2013-02-22 09:54:00,37.0,25.6,30.37,North,5,11.0,16.0,63,0.00,,---,0.00,VWS V14.01,2013-02-22 14:54:00,
2013-02-22 09:55:00,37.0,25.6,30.37,NNE,28,11.0,16.0,63,0.00,,---,0.00,VWS V14.01,2013-02-22 14:55:00,
2013-02-22 09:56:00,37.0,25.6,30.37,NE,43,9.0,16.0,63,0.00,,---,0.00,VWS V14.01,2013-02-22 14:56:00,
2013-02-22 09:57:00,36.9,25.1,30.37,NNE,24,9.0,16.0,62,0.00,,---,0.00,VWS V14.01,2013-02-22 14:57:00,
2013-02-22 09:58:00,36.8,25.4,30.37,NNE,23,7.0,16.0,63,0.00,,---,0.00,VWS V14.01,2013-02-22 14:58:00,
2013-02-22 09:59:00,36.9,25.5,30.37,North,5,9.0,16.0,63,0.00,,---,0.00,VWS V14.01,2013-02-22 14:59:00,
2013-02-22 10:00:00,36.8,25.4,30.37,NE,49,8.0,16.0,63,0.00,,---,0.00,VWS V14.01,2013-02-22 15:00:00,
2013-02-22 10:01:00,36.8,25.4,30.37,NE,36,7.0,9.0,63,0.00,,---,0.00,VWS V14.01,2013-02-22 15:01:00,
2013-02-22 10:02:00,36.8,25.4,30.37,NE,40,10.0,14.0,63,0.00,,---,0.00,VWS V14.01,2013-02-22 15:02:00,
2013-02-22 10:03:00,36.8,25.4,30.37,NE,49,5.0,14.0,63,0.00,,---,0.00,VWS V14.01,2013-02-22 15:03:00,
2013-02-22 10:04:00,36.8,25.4,30.37,NE,36,7.0,14.0,63,0.00,,---,0.00,VWS V14.01,2013-02-22 15:04:00,
2013-02-22 10:05:00,36.9,25.9,30.37,NE,55,6.0,14.0,64,0.00,,---,0.00,VWS V14.01,2013-02-22 15:05:00,
2013-02-22 10:06:00,37.0,26.0,30.37,NE,44,11.0,14.0,64,0.00,,---,0.00,VWS V14.01,2013-02-22 15:06:00,
2013-02-22 10:07:00,37.1,26.1,30.37,NNE,18,9.0,14.0,64,0.00,,---,0.00,VWS V14.01,2013-02-22 15:07:00,
2013-02-22 10:08:00,37.1,26.1,30.37,NNE,24,9.0,14.0,64,0.00,,---,0.00,VWS V14.01,2013-02-22 15:08:00,
2013-02-22 10:09:00,37.1,26.1,30.37,NNE,27,13.0,14.0,64,0.00,,---,0.00,VWS V14.01,2013-02-22 15:09:00,
2013-02-22 10:10:00,37.1,25.7,30.37,North,5,8.0,14.0,63,0.00,,---,0.00,VWS V14.01,2013-02-22 15:10:00,
2013-02-22 10:11:00,37.1,25.7,30.37,North,5,12.0,15.0,63,0.00,,---,0.00,VWS V14.01,2013-02-22 15:11:00,
2013-02-22 10:12:00,37.1,25.7,30.37,NNE,18,12.0,15.0,63,0.00,,---,0.00,VWS V14.01,2013-02-22 15:12:00,
2013-02-22 10:13:00,37.1,25.7,30.37,NNE,15,10.0,15.0,63,0.00,,---,0.00,VWS V14.01,2013-02-22 15:13:00,
2013-02-22 10:14:00,37.1,25.3,30.37,NE,37,5.0,15.0,62,0.00,,---,0.00,VWS V14.01,2013-02-22 15:14:00,
2013-02-22 10:15:00,37.1,25.7,30.37,NNE,24,8.0,15.0,63,0.00,,---,0.00,VWS V14.01,2013-02-22 15:15:00,
2013-02-22 10:16:00,37.1,25.7,30.37,NE,44,9.0,15.0,63,0.00,,---,0.00,VWS V14.01,2013-02-22 15:16:00,
2013-02-22 10:17:00,37.2,25.8,30.37,NE,41,5.0,15.0,63,0.00,,---,0.00,VWS V14.01,2013-02-22 15:17:00,
2013-02-22 10:18:00,37.3,25.9,30.37,NE,51,14.0,17.0,63,0.00,,---,0.00,VWS V14.01,2013-02-22 15:18:00,
2013-02-22 10:19:00,37.3,25.9,30.37,NE,36,7.0,17.0,63,0.00,,---,0.00,VWS V14.01,2013-02-22 15:19:00,
2013-02-22 10:20:00,37.4,26.0,30.37,NE,49,9.0,17.0,63,0.00,,---,0.00,VWS V14.01,2013-02-22 15:20:00,
2013-02-22 10:21:00,37.4,25.6,30.37,NNE,24,9.0,17.0,62,0.00,,---,0.00,VWS V14.01,2013-02-22 15:21:00,
2013-02-22 10:22:00,37.5,25.7,30.37,NNE,32,8.0,17.0,62,0.00,,---,0.00,VWS V14.01,2013-02-22 15:22:00,
2013-02-22 10:23:00,37.5,26.1,30.37,NE,38,11.0,17.0,63,0.00,,---,0.00,VWS V14.01,2013-02-22 15:23:00,
2013-02-22 10:24:00,37.5,25.7,30.37,NNE,17,7.0,17.0,62,0.00,,---,0.00,VWS V14.01,2013-02-22 15:24:00,
2013-02-22 10:25:00,37.4,25.6,30.36,NE,40,13.0,17.0,62,0.00,,---,0.00,VWS V14.01,2013-02-22 15:25:00,
2013-02-22 10:26:00,37.4,26.0,30.36,NE,39,10.0,17.0,63,0.00,,---,0.00,VWS V14.01,2013-02-22 15:26:00,
2013-02-22 10:27:00,37.4,25.6,30.36,NE,47,8.0,17.0,62,0.00,,---,0.00,VWS V14.01,2013-02-22 15:27:00,
2013-02-22 10:28:00,37.5,26.1,30.37,NE,43,8.0,17.0,63,0.00,,---,0.00,VWS V14.01,2013-02-22 15:28:00,
2013-02-22 10:29:00,37.5,26.1,30.37,ENE,59,10.0,17.0,63,0.00,,---,0.00,VWS V14.01,2013-02-22 15:29:00,
2013-02-22 10:30:00,37.6,26.2,30.37,NNE,27,7.0,17.0,63,0.00,,---,0.00,VWS V14.01,2013-02-22 15:30:00,
2013-02-22 10:31:00,37.7,26.3,30.37,NE,38,3.0,9.0,63,0.00,,---,0.00,VWS V14.01,2013-02-22 15:31:00,
2013-02-22 10:32:00,37.9,26.5,30.37,NE,40,9.0,10.0,63,0.00,,---,0.00,VWS V14.01,2013-02-22 15:32:00,
2013-02-22 10:33:00,38.0,26.5,30.37,NE,52,11.0,14.0,63,0.00,,---,0.00,VWS V14.01,2013-02-22 15:33:00,
2013-02-22 10:34:00,38.2,26.7,30.37,NE,40,7.0,14.0,63,0.00,,---,0.00,VWS V14.01,2013-02-22 15:34:00,
2013-02-22 10:35:00,38.2,26.7,30.36,NE,40,7.0,14.0,63,0.00,,---,0.00,VWS V14.01,2013-02-22 15:35:00,
2013-02-22 10:36:00,38.3,26.4,30.37,NNE,25,7.0,14.0,62,0.00,,---,0.00,VWS V14.01,2013-02-22 15:36:00,
2013-02-22 10:37:00,38.3,26.4,30.37,NE,48,11.0,14.0,62,0.00,,---,0.00,VWS V14.01,2013-02-22 15:37:00,
2013-02-22 10:38:00,38.3,26.0,30.37,NE,42,6.0,14.0,61,0.00,,---,0.00,VWS V14.01,2013-02-22 15:38:00,
2013-02-22 10:39:00,38.3,26.0,30.36,NE,34,8.0,14.0,61,0.00,,---,0.00,VWS V14.01,2013-02-22 15:39:00,
2013-02-22 10:40:00,38.3,26.0,30.36,NE,38,8.0,14.0,61,0.00,,---,0.00,VWS V14.01,2013-02-22 15:40:00,
2013-02-22 10:41:00,38.2,26.0,30.36,NE,38,9.0,14.0,61,0.00,,---,0.00,VWS V14.01,2013-02-22 15:41:00,
2013-02-22 10:42:00,38.2,26.3,30.36,NE,46,13.0,14.0,62,0.00,,---,0.00,VWS V14.01,2013-02-22 15:42:00,
2013-02-22 10:43:00,38.2,26.3,30.37,ENE,59,10.0,14.0,62,0.00,,---,0.00,VWS V14.01,2013-02-22 15:43:00,
2013-02-22 10:44:00,38.2,26.0,30.37,NE,49,14.0,14.0,61,0.00,,---,0.00,VWS V14.01,2013-02-22 15:44:00,
2013-02-22 10:45:00,38.1,25.9,30.37,NNE,26,9.0,15.0,61,0.00,,---,0.00,VWS V14.01,2013-02-22 15:45:00,
2013-02-22 10:46:00,38.0,25.4,30.37,NE,35,6.0,15.0,60,0.00,,---,0.00,VWS V14.01,2013-02-22 15:46:00,
2013-02-22 10:47:00,38.0,25.4,30.37,NE,50,10.0,15.0,60,0.00,,---,0.00,VWS V14.01,2013-02-22 15:47:00,
2013-02-22 10:48:00,37.9,25.3,30.37,NE,41,5.0,15.0,60,0.00,,---,0.00,VWS V14.01,2013-02-22 15:48:00,
2013-02-22 10:49:00,38.0,25.8,30.37,NE,42,7.0,15.0,61,0.00,,---,0.00,VWS V14.01,2013-02-22 15:49:00,
2013-02-22 10:50:00,38.0,25.8,30.37,NE,35,7.0,15.0,61,0.00,,---,0.00,VWS V14.01,2013-02-22 15:50:00,
2013-02-22 10:51:00,38.0,25.8,30.37,NE,49,5.0,15.0,61,0.00,,---,0.00,VWS V14.01,2013-02-22 15:51:00,
2013-02-22 10:52:00,38.0,26.1,30.37,NE,36,6.0,15.0,62,0.00,,---,0.00,VWS V14.01,2013-02-22 15:52:00,
2013-02-22 10:53:00,37.9,26.1,30.37,ENE,59,9.0,15.0,62,0.00,,---,0.00,VWS V14.01,2013-02-22 15:53:00,
2013-02-22 10:54:00,37.8,26.0,30.37,NNE,32,10.0,15.0,62,0.00,,---,0.00,VWS V14.01,2013-02-22 15:54:00,
2013-02-22 10:55:00,37.8,26.0,30.37,ENE,58,8.0,15.0,62,0.00,,---,0.00,VWS V14.01,2013-02-22 15:55:00,
2013-02-22 10:56:00,37.8,26.4,30.37,NE,47,10.0,15.0,63,0.00,,---,0.00,VWS V14.01,2013-02-22 15:56:00,
2013-02-22 10:57:00,37.8,26.4,30.37,NE,47,8.0,15.0,63,0.00,,---,0.00,VWS V14.01,2013-02-22 15:57:00,
2013-02-22 10:58:00,37.8,26.7,30.37,NE,50,3.0,15.0,64,0.00,,---,0.00,VWS V14.01,2013-02-22 15:58:00,
2013-02-22 10:59:00,37.8,26.7,30.37,NE,43,7.0,15.0,64,0.00,,---,0.00,VWS V14.01,2013-02-22 15:59:00,
2013-02-22 11:00:00,37.9,26.8,30.37,NE,50,6.0,15.0,64,0.00,,---,0.00,VWS V14.01,2013-02-22 16:00:00,
2013-02-22 11:01:00,38.0,26.9,30.37,NNE,32,3.0,7.0,64,0.00,,---,0.00,VWS V14.01,2013-02-22 16:01:00,
2013-02-22 11:02:00,38.0,26.9,30.37,NNE,19,5.0,9.0,64,0.00,,---,0.00,VWS V14.01,2013-02-22 16:02:00,
2013-02-22 11:03:00,38.1,27.0,30.37,NE,39,6.0,10.0,64,0.00,,---,0.00,VWS V14.01,2013-02-22 16:03:00,
2013-02-22 11:04:00,38.2,27.1,30.37,NE,44,11.0,13.0,64,0.00,,---,0.00,VWS V14.01,2013-02-22 16:04:00,
2013-02-22 11:05:00,38.3,26.8,30.37,NE,38,11.0,13.0,63,0.00,,---,0.00,VWS V14.01,2013-02-22 16:05:00,
2013-02-22 11:06:00,38.3,26.4,30.37,NE,36,7.0,13.0,62,0.00,,---,0.00,VWS V14.01,2013-02-22 16:06:00,
2013-02-22 11:07:00,38.3,26.4,30.37,NE,37,8.0,13.0,62,0.00,,---,0.00,VWS V14.01,2013-02-22 16:07:00,
2013-02-22 11:08:00,38.3,26.4,30.37,NE,36,8.0,13.0,62,0.00,,---,0.00,VWS V14.01,2013-02-22 16:08:00,
2013-02-22 11:09:00,38.2,26.0,30.37,NE,34,5.0,13.0,61,0.00,,---,0.00,VWS V14.01,2013-02-22 16:09:00,
2013-02-22 11:10:00,38.2,26.3,30.37,NNE,22,11.0,13.0,62,0.00,,---,0.00,VWS V14.01,2013-02-22 16:10:00,
2013-02-22 11:11:00,38.0,26.1,30.37,NNE,26,9.0,13.0,62,0.00,,---,0.00,VWS V14.01,2013-02-22 16:11:00,
2013-02-22 11:12:00,38.0,26.1,30.37,NE,36,10.0,13.0,62,0.00,,---,0.00,VWS V14.01,2013-02-22 16:12:00,
2013-02-22 11:13:00,37.9,26.1,30.37,NE,44,5.0,13.0,62,0.00,,---,0.00,VWS V14.01,2013-02-22 16:13:00,
2013-02-22 11:14:00,37.9,26.1,30.37,NE,38,7.0,13.0,62,0.00,,---,0.00,VWS V14.01,2013-02-22 16:14:00,
2013-02-22 11:15:00,37.8,26.0,30.36,North,5,13.0,13.0,62,0.00,,---,0.00,VWS V14.01,2013-02-22 16:15:00,
2013-02-22 11:16:00,37.7,25.9,30.36,NNE,32,11.0,13.0,62,0.00,,---,0.00,VWS V14.01,2013-02-22 16:16:00,
2013-02-22 11:17:00,37.7,25.9,30.36,NE,40,9.0,13.0,62,0.00,,---,0.00,VWS V14.01,2013-02-22 16:17:00,
2013-02-22 11:18:00,37.6,26.2,30.36,NNE,17,7.0,13.0,63,0.00,,---,0.00,VWS V14.01,2013-02-22 16:18:00,
2013-02-22 11:19:00,37.5,26.1,30.36,NNE,24,9.0,13.0,63,0.00,,---,0.00,VWS V14.01,2013-02-22 16:19:00,
2013-02-22 11:20:00,37.5,26.1,30.36,NNE,28,9.0,13.0,63,0.00,,---,0.00,VWS V14.01,2013-02-22 16:20:00,
2013-02-22 11:21:00,37.4,26.0,30.36,NE,37,6.0,13.0,63,0.00,,---,0.00,VWS V14.01,2013-02-22 16:21:00,
2013-02-22 11:22:00,37.4,26.0,30.36,NE,43,6.0,13.0,63,0.00,,---,0.00,VWS V14.01,2013-02-22 16:22:00,
2013-02-22 11:23:00,37.4,26.0,30.36,NE,36,6.0,13.0,63,0.00,,---,0.00,VWS V14.01,2013-02-22 16:23:00,
2013-02-22 11:24:00,37.4,26.0,30.36,NNE,24,9.0,13.0,63,0.00,,---,0.00,VWS V14.01,2013-02-22 16:24:00,
2013-02-22 11:25:00,37.4,26.0,30.36,NE,50,5.0,13.0,63,0.00,,---,0.00,VWS V14.01,2013-02-22 16:25:00,
2013-02-22 11:26:00,37.4,26.0,30.36,NE,39,9.0,13.0,63,0.00,,---,0.00,VWS V14.01,2013-02-22 16:26:00,
2013-02-22 11:27:00,37.5,26.1,30.36,NE,36,11.0,13.0,63,0.00,,---,0.00,VWS V14.01,2013-02-22 16:27:00,
2013-02-22 11:28:00,37.5,26.1,30.36,NNE,28,13.0,14.0,63,0.00,,---,0.00,VWS V14.01,2013-02-22 16:28:00,
2013-02-22 11:29:00,37.5,25.7,30.36,NNE,15,8.0,14.0,62,0.00,,---,0.00,VWS V14.01,2013-02-22 16:29:00,
2013-02-22 11:30:00,37.4,25.6,30.36,NE,36,8.0,14.0,62,0.00,,---,0.00,VWS V14.01,2013-02-22 16:30:00,
2013-02-22 11:31:00,37.4,26.0,30.37,NE,35,9.0,9.0,63,0.00,,---,0.00,VWS V14.01,2013-02-22 16:31:00,
2013-02-22 11:32:00,37.4,26.0,30.37,NNE,28,8.0,12.0,63,0.00,,---,0.00,VWS V14.01,2013-02-22 16:32:00,
2013-02-22 11:33:00,37.3,25.9,30.37,NNE,20,10.0,12.0,63,0.00,,---,0.00,VWS V14.01,2013-02-22 16:33:00,
2013-02-22 11:34:00,37.3,25.9,30.37,NNE,17,6.0,12.0,63,0.00,,---,0.00,VWS V14.01,2013-02-22 16:34:00,
2013-02-22 11:35:00,37.2,25.8,30.37,NNE,24,7.0,12.0,63,0.00,,---,0.00,VWS V14.01,2013-02-22 16:35:00,
2013-02-22 11:36:00,37.1,25.7,30.36,NNE,29,7.0,12.0,63,0.00,,---,0.00,VWS V14.01,2013-02-22 16:36:00,
2013-02-22 11:37:00,37.1,26.1,30.37,NNE,31,2.0,12.0,64,0.00,,---,0.00,VWS V14.01,2013-02-22 16:37:00,
2013-02-22 11:38:00,37.1,26.1,30.37,NE,46,7.0,12.0,64,0.00,,---,0.00,VWS V14.01,2013-02-22 16:38:00,
2013-02-22 11:39:00,37.2,26.2,30.37,NNE,13,5.0,12.0,64,0.00,,---,0.00,VWS V14.01,2013-02-22 16:39:00,
2013-02-22 11:40:00,37.3,26.3,30.37,North,360,7.0,12.0,64,0.00,,---,0.00,VWS V14.01,2013-02-22 16:40:00,
2013-02-22 11:41:00,37.4,26.4,30.37,ENE,62,4.0,12.0,64,0.00,,---,0.00,VWS V14.01,2013-02-22 16:41:00,
2013-02-22 11:42:00,37.5,26.5,30.37,NE,34,5.0,12.0,64,0.00,,---,0.00,VWS V14.01,2013-02-22 16:42:00,
2013-02-22 11:43:00,37.6,26.5,30.37,NE,54,5.0,12.0,64,0.00,,---,0.00,VWS V14.01,2013-02-22 16:43:00,
2013-02-22 11:44:00,37.8,26.7,30.37,NE,46,7.0,12.0,64,0.00,,---,0.00,VWS V14.01,2013-02-22 16:44:00,
2013-02-22 11:45:00,37.9,26.8,30.37,NE,40,8.0,12.0,64,0.00,,---,0.00,VWS V14.01,2013-02-22 16:45:00,
2013-02-22 11:46:00,38.1,26.6,30.37,ENE,60,12.0,13.0,63,0.00,,---,0.00,VWS V14.01,2013-02-22 16:46:00,
2013-02-22 11:47:00,38.2,26.3,30.37,NE,47,8.0,13.0,62,0.00,,---,0.00,VWS V14.01,2013-02-22 16:47:00,
2013-02-22 11:48:00,38.4,26.5,30.37,ENE,71,9.0,13.0,62,0.00,,---,0.00,VWS V14.01,2013-02-22 16:48:00,
2013-02-22 11:49:00,38.5,26.2,30.37,NNE,32,9.0,13.0,61,0.00,,---,0.00,VWS V14.01,2013-02-22 16:49:00,
2013-02-22 11:50:00,38.6,25.9,30.37,NE,51,8.0,13.0,60,0.00,,---,0.00,VWS V14.01,2013-02-22 16:50:00,
2013-02-22 11:51:00,38.5,25.8,30.37,NE,39,5.0,13.0,60,0.00,,---,0.00,VWS V14.01,2013-02-22 16:51:00,
2013-02-22 11:52:00,38.5,26.2,30.37,NE,39,8.0,13.0,61,0.00,,---,0.00,VWS V14.01,2013-02-22 16:52:00,
2013-02-22 11:53:00,38.5,26.2,30.37,NE,46,7.0,13.0,61,0.00,,---,0.00,VWS V14.01,2013-02-22 16:53:00,
2013-02-22 11:54:00,38.5,26.2,30.37,NNE,30,6.0,13.0,61,0.00,,---,0.00,VWS V14.01,2013-02-22 16:54:00,
2013-02-22 11:55:00,38.6,26.7,30.37,NE,43,11.0,13.0,62,0.00,,---,0.00,VWS V14.01,2013-02-22 16:55:00,
2013-02-22 11:56:00,38.7,26.8,30.37,NE,34,6.0,13.0,62,0.00,,---,0.00,VWS V14.01,2013-02-22 16:56:00,
2013-02-22 11:57:00,38.7,26.4,30.36,NE,52,7.0,13.0,61,0.00,,---,0.00,VWS V14.01,2013-02-22 16:57:00,
2013-02-22 11:58:00,38.7,26.4,30.36,NE,55,8.0,13.0,61,0.00,,---,0.00,VWS V14.01,2013-02-22 16:58:00,
2013-02-22 11:59:00,38.6,26.3,30.37,NE,49,9.0,13.0,61,0.00,,---,0.00,VWS V14.01,2013-02-22 16:59:00,
2013-02-22 12:00:00,38.6,26.3,30.37,NE,34,9.0,13.0,61,0.00,,---,0.00,VWS V14.01,2013-02-22 17:00:00,
2013-02-22 12:01:00,38.7,26.4,30.37,NNE,17,7.0,9.0,61,0.00,,---,0.00,VWS V14.01,2013-02-22 17:01:00,
2013-02-22 12:02:00,38.8,26.5,30.37,NE,47,7.0,9.0,61,0.00,,---,0.00,VWS V14.01,2013-02-22 17:02:00,
2013-02-22 12:03:00,38.9,27.0,30.37,NNE,28,4.0,9.0,62,0.00,,---,0.00,VWS V14.01,2013-02-22 17:03:00,
2013-02-22 12:04:00,38.9,27.0,30.37,ENE,71,7.0,9.0,62,0.00,,---,0.00,VWS V14.01,2013-02-22 17:04:00,
2013-02-22 12:05:00,39.0,26.7,30.37,NE,45,8.0,11.0,61,0.00,,---,0.00,VWS V14.01,2013-02-22 17:05:00,
2013-02-22 12:06:00,39.0,26.7,30.37,ENE,62,5.0,11.0,61,0.00,,---,0.00,VWS V14.01,2013-02-22 17:06:00,
2013-02-22 12:07:00,39.1,26.8,30.37,NE,45,4.0,11.0,61,0.00,,---,0.00,VWS V14.01,2013-02-22 17:07:00,
2013-02-22 12:08:00,39.3,27.0,30.37,NE,45,7.0,11.0,61,0.00,,---,0.00,VWS V14.01,2013-02-22 17:08:00,
2013-02-22 12:09:00,39.4,27.1,30.37,NE,42,9.0,11.0,61,0.00,,---,0.00,VWS V14.01,2013-02-22 17:09:00,
2013-02-22 12:10:00,39.5,27.2,30.37,NE,44,4.0,11.0,61,0.00,,---,0.00,VWS V14.01,2013-02-22 17:10:00,
2013-02-22 12:11:00,39.5,26.8,30.37,NNE,20,1.0,11.0,60,0.00,,---,0.00,VWS V14.01,2013-02-22 17:11:00,
2013-02-22 12:12:00,39.5,26.8,30.37,NNE,28,4.0,11.0,60,0.00,,---,0.00,VWS V14.01,2013-02-22 17:12:00,
2013-02-22 12:13:00,39.4,26.3,30.37,NNE,26,4.0,11.0,59,0.00,,---,0.00,VWS V14.01,2013-02-22 17:13:00,
2013-02-22 12:14:00,39.3,26.2,30.37,NNE,28,9.0,11.0,59,0.00,,---,0.00,VWS V14.01,2013-02-22 17:14:00,
2013-02-22 12:15:00,39.1,26.0,30.37,NE,37,7.0,11.0,59,0.00,,---,0.00,VWS V14.01,2013-02-22 17:15:00,
2013-02-22 12:16:00,39.0,25.9,30.37,NE,34,9.0,12.0,59,0.00,,---,0.00,VWS V14.01,2013-02-22 17:16:00,
2013-02-22 12:17:00,38.8,26.1,30.37,NE,40,8.0,13.0,60,0.00,,---,0.00,VWS V14.01,2013-02-22 17:17:00,
2013-02-22 12:18:00,38.7,26.0,30.37,NE,42,7.0,13.0,60,0.00,,---,0.00,VWS V14.01,2013-02-22 17:18:00,
2013-02-22 12:19:00,38.6,25.9,30.37,NE,39,5.0,13.0,60,0.00,,---,0.00,VWS V14.01,2013-02-22 17:19:00,
2013-02-22 12:20:00,38.5,26.2,30.37,NE,53,2.0,13.0,61,0.00,,---,0.00,VWS V14.01,2013-02-22 17:20:00,
2013-02-22 12:21:00,38.5,25.8,30.37,ENE,59,7.0,13.0,60,0.00,,---,0.00,VWS V14.01,2013-02-22 17:21:00,
2013-02-22 12:22:00,38.4,25.7,30.37,ENE,63,8.0,13.0,60,0.00,,---,0.00,VWS V14.01,2013-02-22 17:22:00,
2013-02-22 12:23:00,38.4,26.1,30.37,NNE,32,4.0,13.0,61,0.00,,---,0.00,VWS V14.01,2013-02-22 17:23:00,
2013-02-22 12:24:00,38.5,25.8,30.36,NE,53,6.0,13.0,60,0.00,,---,0.00,VWS V14.01,2013-02-22 17:24:00,
2013-02-22 12:25:00,38.5,25.8,30.36,NNE,33,6.0,13.0,60,0.00,,---,0.00,VWS V14.01,2013-02-22 17:25:00,
2013-02-22 12:26:00,38.6,25.5,30.36,NE,34,6.0,13.0,59,0.00,,---,0.00,VWS V14.01,2013-02-22 17:26:00,
2013-02-22 12:27:00,38.6,25.5,30.36,NNE,22,7.0,13.0,59,0.00,,---,0.00,VWS V14.01,2013-02-22 17:27:00,
2013-02-22 12:28:00,38.5,25.4,30.36,NE,45,6.0,13.0,59,0.00,,---,0.00,VWS V14.01,2013-02-22 17:28:00,
2013-02-22 12:29:00,38.4,24.9,30.36,NNE,32,6.0,13.0,58,0.00,,---,0.00,VWS V14.01,2013-02-22 17:29:00,
2013-02-22 12:30:00,38.4,25.3,30.36,NE,44,8.0,13.0,59,0.00,,---,0.00,VWS V14.01,2013-02-22 17:30:00,
2013-02-22 12:31:00,38.4,25.3,30.36,NNE,28,8.0,9.0,59,0.00,,---,0.00,VWS V14.01,2013-02-22 17:31:00,
2013-02-22 12:32:00,38.4,25.3,30.36,NNE,25,8.0,10.0,59,0.00,,---,0.00,VWS V14.01,2013-02-22 17:32:00,
2013-02-22 12:33:00,38.5,25.4,30.36,NNE,25,10.0,12.0,59,0.00,,---,0.00,VWS V14.01,2013-02-22 17:33:00,
2013-02-22 12:34:00,38.5,25.8,30.36,ENE,64,5.0,12.0,60,0.00,,---,0.00,VWS V14.01,2013-02-22 17:34:00,
2013-02-22 12:35:00,38.6,25.9,30.36,NE,48,1.0,12.0,60,0.00,,---,0.00,VWS V14.01,2013-02-22 17:35:00,
2013-02-22 12:36:00,38.6,25.9,30.36,NE,46,4.0,12.0,60,0.00,,---,0.00,VWS V14.01,2013-02-22 17:36:00,
2013-02-22 12:37:00,38.7,26.0,30.36,NE,53,8.0,12.0,60,0.00,,---,0.00,VWS V14.01,2013-02-22 17:37:00,
2013-02-22 12:38:00,38.7,26.0,30.35,NE,51,6.0,12.0,60,0.00,,---,0.00,VWS V14.01,2013-02-22 17:38:00,
2013-02-22 12:39:00,38.8,26.1,30.36,NE,47,10.0,12.0,60,0.00,,---,0.00,VWS V14.01,2013-02-22 17:39:00,
2013-02-22 12:40:00,38.9,26.6,30.36,ENE,61,5.0,12.0,61,0.00,,---,0.00,VWS V14.01,2013-02-22 17:40:00,
2013-02-22 12:41:00,39.0,26.7,30.36,NNE,23,3.0,12.0,61,0.00,,---,0.00,VWS V14.01,2013-02-22 17:41:00,
2013-02-22 12:42:00,39.1,26.4,30.36,NE,39,9.0,12.0,60,0.00,,---,0.00,VWS V14.01,2013-02-22 17:42:00,
2013-02-22 12:43:00,39.2,26.5,30.36,NE,52,9.0,12.0,60,0.00,,---,0.00,VWS V14.01,2013-02-22 17:43:00,
2013-02-22 12:44:00,39.3,26.6,30.36,NE,38,7.0,12.0,60,0.00,,---,0.00,VWS V14.01,2013-02-22 17:44:00,
2013-02-22 12:45:00,39.4,26.7,30.36,East,82,7.0,12.0,60,0.00,,---,0.00,VWS V14.01,2013-02-22 17:45:00,
2013-02-22 12:46:00,39.5,26.8,30.35,NE,47,10.0,12.0,60,0.00,,---,0.00,VWS V14.01,2013-02-22 17:46:00,
2013-02-22 12:47:00,39.6,26.9,30.35,ENE,66,5.0,12.0,60,0.00,,---,0.00,VWS V14.01,2013-02-22 17:47:00,
2013-02-22 12:48:00,39.7,27.0,30.35,ENE,69,5.0,12.0,60,0.00,,---,0.00,VWS V14.01,2013-02-22 17:48:00,
2013-02-22 12:49:00,39.7,26.6,30.35,NE,56,10.0,13.0,59,0.00,,---,0.00,VWS V14.01,2013-02-22 17:49:00,
2013-02-22 12:50:00,39.8,26.7,30.35,NE,53,9.0,13.0,59,0.00,,---,0.00,VWS V14.01,2013-02-22 17:50:00,
2013-02-22 12:51:00,39.7,26.6,30.35,East,90,3.0,13.0,59,0.00,,---,0.00,VWS V14.01,2013-02-22 17:51:00,
2013-02-22 12:52:00,39.7,26.1,30.35,ENE,65,4.0,13.0,58,0.00,,---,0.00,VWS V14.01,2013-02-22 17:52:00,
2013-02-22 12:53:00,39.6,26.1,30.35,ENE,63,7.0,13.0,58,0.00,,---,0.00,VWS V14.01,2013-02-22 17:53:00,
2013-02-22 12:54:00,39.5,26.0,30.35,ENE,69,3.0,13.0,58,0.00,,---,0.00,VWS V14.01,2013-02-22 17:54:00,
2013-02-22 12:55:00,39.5,26.0,30.35,East,93,6.0,13.0,58,0.00,,---,0.00,VWS V14.01,2013-02-22 17:55:00,
2013-02-22 12:56:00,39.5,26.4,30.36,East,94,0.0,13.0,59,0.00,,---,0.00,VWS V14.01,2013-02-22 17:56:00,
2013-02-22 12:57:00,39.5,26.4,30.36,SSE,152,0.0,13.0,59,0.00,,---,0.00,VWS V14.01,2013-02-22 17:57:00,
2013-02-22 12:58:00,39.6,26.5,30.36,ENE,64,1.0,13.0,59,0.00,,---,0.00,VWS V14.01,2013-02-22 17:58:00,
2013-02-22 12:59:00,39.7,26.6,30.35,NE,50,0.0,13.0,59,0.00,,---,0.00,VWS V14.01,2013-02-22 17:59:00,
2013-02-22 13:00:00,39.8,27.1,30.35,SE,125,1.0,13.0,60,0.00,,---,0.00,VWS V14.01,2013-02-22 18:00:00,
2013-02-22 13:01:00,40.0,27.2,30.36,SE,132,0.0,6.0,60,0.00,,---,0.00,VWS V14.01,2013-02-22 18:01:00,
2013-02-22 13:02:00,40.1,27.4,30.36,NE,40,6.0,9.0,60,0.00,,---,0.00,VWS V14.01,2013-02-22 18:02:00,
2013-02-22 13:03:00,40.2,27.0,30.36,NE,43,2.0,9.0,59,0.00,,---,0.00,VWS V14.01,2013-02-22 18:03:00,
2013-02-22 13:04:00,40.3,27.1,30.36,ENE,59,2.0,9.0,59,0.00,,---,0.00,VWS V14.01,2013-02-22 18:04:00,
2013-02-22 13:05:00,40.3,27.1,30.36,NE,55,1.0,9.0,59,0.00,,---,0.00,VWS V14.01,2013-02-22 18:05:00,
2013-02-22 13:06:00,40.3,27.1,30.36,NE,45,1.0,9.0,59,0.00,,---,0.00,VWS V14.01,2013-02-22 18:06:00,
2013-02-22 13:07:00,40.2,27.0,30.36,NE,38,7.0,9.0,59,0.00,,---,0.00,VWS V14.01,2013-02-22 18:07:00,
2013-02-22 13:08:00,40.1,26.9,30.36,NE,49,4.0,9.0,59,0.00,,---,0.00,VWS V14.01,2013-02-22 18:08:00,
2013-02-22 13:09:00,40.1,26.9,30.36,East,85,2.0,9.0,59,0.00,,---,0.00,VWS V14.01,2013-02-22 18:09:00,
2013-02-22 13:10:00,40.1,27.4,30.36,SE,142,0.0,9.0,60,0.00,,---,0.00,VWS V14.01,2013-02-22 18:10:00,
2013-02-22 13:11:00,40.2,27.8,30.36,SSE,148,0.0,9.0,61,0.00,,---,0.00,VWS V14.01,2013-02-22 18:11:00,
2013-02-22 13:12:00,40.3,27.9,30.36,ESE,105,0.0,9.0,61,0.00,,---,0.00,VWS V14.01,2013-02-22 18:12:00,
2013-02-22 13:13:00,40.5,28.1,30.36,ENE,65,5.0,9.0,61,0.00,,---,0.00,VWS V14.01,2013-02-22 18:13:00,
2013-02-22 13:14:00,40.6,27.8,30.36,ENE,63,10.0,10.0,60,0.00,,---,0.00,VWS V14.01,2013-02-22 18:14:00,
2013-02-22 13:15:00,40.7,27.5,30.36,NE,49,3.0,10.0,59,0.00,,---,0.00,VWS V14.01,2013-02-22 18:15:00,
2013-02-22 13:16:00,40.8,27.6,30.36,NE,36,0.0,10.0,59,0.00,,---,0.00,VWS V14.01,2013-02-22 18:16:00,
2013-02-22 13:17:00,40.9,27.7,30.36,ENE,66,8.0,10.0,59,0.00,,---,0.00,VWS V14.01,2013-02-22 18:17:00,
2013-02-22 13:18:00,41.0,27.8,30.36,East,81,7.0,10.0,59,0.00,,---,0.00,VWS V14.01,2013-02-22 18:18:00,
2013-02-22 13:19:00,41.1,27.9,30.36,ENE,62,3.0,11.0,59,0.00,,---,0.00,VWS V14.01,2013-02-22 18:19:00,
2013-02-22 13:20:00,41.2,28.0,30.36,East,94,3.0,11.0,59,0.00,,---,0.00,VWS V14.01,2013-02-22 18:20:00,
2013-02-22 13:21:00,41.3,27.2,30.36,NE,56,1.0,11.0,57,0.00,,---,0.00,VWS V14.01,2013-02-22 18:21:00,
2013-02-22 13:22:00,41.2,27.1,30.36,ENE,60,5.0,11.0,57,0.00,,---,0.00,VWS V14.01,2013-02-22 18:22:00,
2013-02-22 13:23:00,41.3,27.6,30.36,ENE,63,1.0,11.0,58,0.00,,---,0.00,VWS V14.01,2013-02-22 18:23:00,
2013-02-22 13:24:00,41.3,27.6,30.36,ENE,62,2.0,11.0,58,0.00,,---,0.00,VWS V14.01,2013-02-22 18:24:00,
2013-02-22 13:25:00,41.3,27.6,30.36,ENE,59,8.0,11.0,58,0.00,,---,0.00,VWS V14.01,2013-02-22 18:25:00,
2013-02-22 13:26:00,41.4,27.8,30.36,NE,46,6.0,11.0,58,0.00,,---,0.00,VWS V14.01,2013-02-22 18:26:00,
2013-02-22 13:27:00,41.4,27.8,30.36,ENE,63,5.0,11.0,58,0.00,,---,0.00,VWS V14.01,2013-02-22 18:27:00,
2013-02-22 13:28:00,41.4,27.3,30.36,ENE,73,4.0,11.0,57,0.00,,---,0.00,VWS V14.01,2013-02-22 18:28:00,
2013-02-22 13:29:00,41.4,27.8,30.36,East,84,0.0,11.0,58,0.00,,---,0.00,VWS V14.01,2013-02-22 18:29:00,
2013-02-22 13:30:00,41.4,27.8,30.36,ESE,113,1.0,11.0,58,0.00,,---,0.00,VWS V14.01,2013-02-22 18:30:00,
2013-02-22 13:31:00,41.3,27.2,30.36,ENE,66,1.0,5.0,57,0.00,,---,0.00,VWS V14.01,2013-02-22 18:31:00,
2013-02-22 13:32:00,41.2,27.1,30.36,East,98,1.0,5.0,57,0.00,,---,0.00,VWS V14.01,2013-02-22 18:32:00,
2013-02-22 13:33:00,41.0,27.0,30.36,East,92,1.0,5.0,57,0.00,,---,0.00,VWS V14.01,2013-02-22 18:33:00,
2013-02-22 13:34:00,40.9,26.9,30.36,NNE,31,3.0,5.0,57,0.00,,---,0.00,VWS V14.01,2013-02-22 18:34:00,
2013-02-22 13:35:00,40.9,27.3,30.36,ESE,106,4.0,5.0,58,0.00,,---,0.00,VWS V14.01,2013-02-22 18:35:00,
2013-02-22 13:36:00,40.9,27.3,30.36,ENE,72,0.0,5.0,58,0.00,,---,0.00,VWS V14.01,2013-02-22 18:36:00,
2013-02-22 13:37:00,40.9,26.9,30.36,NE,45,1.0,5.0,57,0.00,,---,0.00,VWS V14.01,2013-02-22 18:37:00,
2013-02-22 13:38:00,40.8,26.8,30.36,ESE,118,0.0,5.0,57,0.00,,---,0.00,VWS V14.01,2013-02-22 18:38:00,
2013-02-22 13:39:00,40.8,27.2,30.36,NE,48,5.0,5.0,58,0.00,,---,0.00,VWS V14.01,2013-02-22 18:39:00,
2013-02-22 13:40:00,40.7,27.5,30.36,ENE,69,1.0,5.0,59,0.00,,---,0.00,VWS V14.01,2013-02-22 18:40:00,
2013-02-22 13:41:00,40.7,27.1,30.36,ENE,60,2.0,5.0,58,0.00,,---,0.00,VWS V14.01,2013-02-22 18:41:00,
2013-02-22 13:42:00,40.6,27.0,30.36,ENE,62,1.0,5.0,58,0.00,,---,0.00,VWS V14.01,2013-02-22 18:42:00,
2013-02-22 13:43:00,40.6,27.0,30.36,ENE,65,0.0,5.0,58,0.00,,---,0.00,VWS V14.01,2013-02-22 18:43:00,
2013-02-22 13:44:00,40.5,27.3,30.36,ESE,105,1.0,6.0,59,0.00,,---,0.00,VWS V14.01,2013-02-22 18:44:00,
2013-02-22 13:45:00,40.5,27.7,30.36,SE,140,0.0,6.0,60,0.00,,---,0.00,VWS V14.01,2013-02-22 18:45:00,
2013-02-22 13:46:00,40.6,27.8,30.36,ENE,70,0.0,9.0,60,0.00,,---,0.00,VWS V14.01,2013-02-22 18:46:00,
2013-02-22 13:47:00,40.7,27.9,30.35,NE,54,3.0,9.0,60,0.00,,---,0.00,VWS V14.01,2013-02-22 18:47:00,
2013-02-22 13:48:00,40.9,28.1,30.35,SE,129,0.0,9.0,60,0.00,,---,0.00,VWS V14.01,2013-02-22 18:48:00,
2013-02-22 13:49:00,41.0,28.2,30.35,East,82,2.0,10.0,60,0.00,,---,0.00,VWS V14.01,2013-02-22 18:49:00,
2013-02-22 13:50:00,41.1,28.3,30.36,NE,51,6.0,10.0,60,0.00,,---,0.00,VWS V14.01,2013-02-22 18:50:00,
2013-02-22 13:51:00,41.3,27.6,30.35,SSE,153,0.0,10.0,58,0.00,,---,0.00,VWS V14.01,2013-02-22 18:51:00,
2013-02-22 13:52:00,41.4,27.8,30.36,NE,52,1.0,10.0,58,0.00,,---,0.00,VWS V14.01,2013-02-22 18:52:00,
2013-02-22 13:53:00,41.4,27.8,30.36,NE,39,3.0,10.0,58,0.00,,---,0.00,VWS V14.01,2013-02-22 18:53:00,
2013-02-22 13:54:00,41.4,27.3,30.36,ESE,117,1.0,10.0,57,0.00,,---,0.00,VWS V14.01,2013-02-22 18:54:00,
2013-02-22 13:55:00,41.3,27.2,30.36,ESE,109,2.0,10.0,57,0.00,,---,0.00,VWS V14.01,2013-02-22 18:55:00,
2013-02-22 13:56:00,41.2,27.1,30.36,East,94,0.0,10.0,57,0.00,,---,0.00,VWS V14.01,2013-02-22 18:56:00,
2013-02-22 13:57:00,41.2,27.6,30.36,East,98,0.0,10.0,58,0.00,,---,0.00,VWS V14.01,2013-02-22 18:57:00,
2013-02-22 13:58:00,41.1,27.9,30.36,ENE,61,0.0,10.0,59,0.00,,---,0.00,VWS V14.01,2013-02-22 18:58:00,
2013-02-22 13:59:00,41.1,27.5,30.36,ENE,58,8.0,10.0,58,0.00,,---,0.00,VWS V14.01,2013-02-22 18:59:00,
2013-02-22 14:00:00,41.1,27.5,30.36,East,88,1.0,10.0,58,0.00,,---,0.00,VWS V14.01,2013-02-22 19:00:00,
2013-02-22 14:01:00,41.1,27.0,30.36,ENE,63,1.0,3.0,57,0.00,,---,0.00,VWS V14.01,2013-02-22 19:01:00,
2013-02-22 14:02:00,41.0,27.0,30.36,ESE,110,1.0,7.0,57,0.00,,---,0.00,VWS V14.01,2013-02-22 19:02:00,
2013-02-22 14:03:00,41.0,27.0,30.36,ENE,66,0.0,7.0,57,0.00,,---,0.00,VWS V14.01,2013-02-22 19:03:00,
2013-02-22 14:04:00,40.9,26.9,30.36,ENE,76,0.0,7.0,57,0.00,,---,0.00,VWS V14.01,2013-02-22 19:04:00,
2013-02-22 14:05:00,40.9,26.9,30.36,ESE,103,1.0,7.0,57,0.00,,---,0.00,VWS V14.01,2013-02-22 19:05:00,
2013-02-22 14:06:00,40.8,27.2,30.36,SE,132,0.0,7.0,58,0.00,,---,0.00,VWS V14.01,2013-02-22 19:06:00,
2013-02-22 14:07:00,40.9,27.3,30.36,SSE,149,0.0,7.0,58,0.00,,---,0.00,VWS V14.01,2013-02-22 19:07:00,
2013-02-22 14:08:00,41.0,27.4,30.37,SSW,194,0.0,7.0,58,0.00,,---,0.00,VWS V14.01,2013-02-22 19:08:00,
2013-02-22 14:09:00,41.0,27.4,30.37,ESE,119,0.0,7.0,58,0.00,,---,0.00,VWS V14.01,2013-02-22 19:09:00,
2013-02-22 14:10:00,41.1,27.5,30.37,SSE,147,0.0,7.0,58,0.00,,---,0.00,VWS V14.01,2013-02-22 19:10:00,
2013-02-22 14:11:00,41.1,27.5,30.37,ESE,105,0.0,7.0,58,0.00,,---,0.00,VWS V14.01,2013-02-22 19:11:00,
2013-02-22 14:12:00,41.1,27.5,30.37,East,95,0.0,7.0,58,0.00,,---,0.00,VWS V14.01,2013-02-22 19:12:00,
2013-02-22 14:13:00,41.1,27.5,30.37,SSE,148,1.0,7.0,58,0.00,,---,0.00,VWS V14.01,2013-02-22 19:13:00,
2013-02-22 14:14:00,41.0,27.8,30.37,SSE,147,0.0,7.0,59,0.00,,---,0.00,VWS V14.01,2013-02-22 19:14:00,
2013-02-22 14:15:00,41.0,27.8,30.37,ESE,123,1.0,7.0,59,0.00,,---,0.00,VWS V14.01,2013-02-22 19:15:00,
2013-02-22 14:16:00,41.0,27.8,30.37,South,191,0.0,7.0,59,0.00,,---,0.00,VWS V14.01,2013-02-22 19:16:00,
2013-02-22 14:17:00,40.9,27.7,30.37,ENE,57,0.0,7.0,59,0.00,,---,0.00,VWS V14.01,2013-02-22 19:17:00,
2013-02-22 14:18:00,40.9,27.7,30.37,ESE,121,1.0,7.0,59,0.00,,---,0.00,VWS V14.01,2013-02-22 19:18:00,
2013-02-22 14:19:00,40.8,27.6,30.37,East,87,0.0,7.0,59,0.00,,---,0.00,VWS V14.01,2013-02-22 19:19:00,
2013-02-22 14:20:00,40.8,27.6,30.37,ENE,71,2.0,7.0,59,0.00,,---,0.00,VWS V14.01,2013-02-22 19:20:00,
2013-02-22 14:21:00,40.7,27.5,30.37,East,86,0.0,7.0,59,0.00,,---,0.00,VWS V14.01,2013-02-22 19:21:00,
2013-02-22 14:22:00,40.6,27.4,30.37,East,99,6.0,7.0,59,0.00,,---,0.00,VWS V14.01,2013-02-22 19:22:00,
2013-02-22 14:23:00,40.5,27.3,30.37,ENE,78,1.0,8.0,59,0.00,,---,0.00,VWS V14.01,2013-02-22 19:23:00,
2013-02-22 14:24:00,40.4,27.2,30.37,ESE,110,0.0,8.0,59,0.00,,---,0.00,VWS V14.01,2013-02-22 19:24:00,
2013-02-22 14:25:00,40.3,27.1,30.37,SE,142,0.0,8.0,59,0.00,,---,0.00,VWS V14.01,2013-02-22 19:25:00,
2013-02-22 14:26:00,40.2,27.0,30.37,SE,137,1.0,8.0,59,0.00,,---,0.00,VWS V14.01,2013-02-22 19:26:00,
2013-02-22 14:27:00,40.1,26.9,30.37,East,101,0.0,8.0,59,0.00,,---,0.00,VWS V14.01,2013-02-22 19:27:00,
2013-02-22 14:28:00,40.0,26.8,30.37,ESE,111,2.0,8.0,59,0.00,,---,0.00,VWS V14.01,2013-02-22 19:28:00,
2013-02-22 14:29:00,39.8,26.7,30.37,East,101,0.0,8.0,59,0.00,,---,0.00,VWS V14.01,2013-02-22 19:29:00,
2013-02-22 14:30:00,39.7,27.0,30.37,East,82,0.0,8.0,60,0.00,,---,0.00,VWS V14.01,2013-02-22 19:30:00,
2013-02-22 14:31:00,39.6,26.9,30.36,ENE,78,1.0,2.0,60,0.00,,---,0.00,VWS V14.01,2013-02-22 19:31:00,
2013-02-22 14:32:00,39.4,26.7,30.36,NE,55,1.0,2.0,60,0.00,,---,0.00,VWS V14.01,2013-02-22 19:32:00,
2013-02-22 14:33:00,39.3,26.6,30.36,ENE,74,0.0,2.0,60,0.00,,---,0.00,VWS V14.01,2013-02-22 19:33:00,
2013-02-22 14:34:00,39.2,26.9,30.36,ESE,107,0.0,6.0,61,0.00,,---,0.00,VWS V14.01,2013-02-22 19:34:00,
2013-02-22 14:35:00,39.1,26.8,30.36,East,83,3.0,6.0,61,0.00,,---,0.00,VWS V14.01,2013-02-22 19:35:00,
2013-02-22 14:36:00,39.1,26.8,30.36,East,84,0.0,6.0,61,0.00,,---,0.00,VWS V14.01,2013-02-22 19:36:00,
2013-02-22 14:37:00,39.0,26.7,30.36,ENE,76,0.0,6.0,61,0.00,,---,0.00,VWS V14.01,2013-02-22 19:37:00,
2013-02-22 14:38:00,38.9,26.6,30.36,ENE,67,1.0,6.0,61,0.00,,---,0.00,VWS V14.01,2013-02-22 19:38:00,
2013-02-22 14:39:00,38.8,26.5,30.36,ENE,61,2.0,6.0,61,0.00,,---,0.00,VWS V14.01,2013-02-22 19:39:00,
2013-02-22 14:40:00,38.8,26.5,30.36,ENE,61,0.0,6.0,61,0.00,,---,0.00,VWS V14.01,2013-02-22 19:40:00,
2013-02-22 14:41:00,38.7,26.4,30.36,ENE,63,0.0,6.0,61,0.00,,---,0.00,VWS V14.01,2013-02-22 19:41:00,
2013-02-22 14:42:00,38.6,26.3,30.36,ENE,60,0.0,6.0,61,0.00,,---,0.00,VWS V14.01,2013-02-22 19:42:00,
2013-02-22 14:43:00,38.6,26.7,30.36,East,101,0.0,6.0,62,0.00,,---,0.00,VWS V14.01,2013-02-22 19:43:00,
2013-02-22 14:44:00,38.5,26.6,30.36,NNE,28,0.0,6.0,62,0.00,,---,0.00,VWS V14.01,2013-02-22 19:44:00,
2013-02-22 14:45:00,38.4,26.5,30.36,East,82,0.0,6.0,62,0.00,,---,0.00,VWS V14.01,2013-02-22 19:45:00,
2013-02-22 14:46:00,38.4,26.5,30.36,ENE,77,0.0,6.0,62,0.00,,---,0.00,VWS V14.01,2013-02-22 19:46:00,
2013-02-22 14:47:00,38.4,26.5,30.35,ENE,69,0.0,6.0,62,0.00,,---,0.00,VWS V14.01,2013-02-22 19:47:00,
2013-02-22 14:48:00,38.3,26.0,30.35,ESE,102,2.0,6.0,61,0.00,,---,0.00,VWS V14.01,2013-02-22 19:48:00,
2013-02-22 14:49:00,38.2,26.0,30.35,ENE,60,0.0,6.0,61,0.00,,---,0.00,VWS V14.01,2013-02-22 19:49:00,
2013-02-22 14:50:00,38.2,26.3,30.35,SE,134,1.0,6.0,62,0.00,,---,0.00,VWS V14.01,2013-02-22 19:50:00,
2013-02-22 14:51:00,38.1,25.9,30.35,ENE,57,0.0,6.0,61,0.00,,---,0.00,VWS V14.01,2013-02-22 19:51:00,
2013-02-22 14:52:00,38.0,25.8,30.35,NE,43,0.0,6.0,61,0.00,,---,0.00,VWS V14.01,2013-02-22 19:52:00,
2013-02-22 14:53:00,37.9,25.7,30.35,ENE,61,1.0,6.0,61,0.00,,---,0.00,VWS V14.01,2013-02-22 19:53:00,
2013-02-22 14:54:00,37.8,25.6,30.35,ENE,74,0.0,6.0,61,0.00,,---,0.00,VWS V14.01,2013-02-22 19:54:00,
2013-02-22 14:55:00,37.7,25.9,30.35,ENE,60,0.0,6.0,62,0.00,,---,0.00,VWS V14.01,2013-02-22 19:55:00,
2013-02-22 14:56:00,37.6,25.8,30.35,ESE,111,2.0,6.0,62,0.00,,---,0.00,VWS V14.01,2013-02-22 19:56:00,
2013-02-22 14:57:00,37.6,26.2,30.35,SE,130,0.0,6.0,63,0.00,,---,0.00,VWS V14.01,2013-02-22 19:57:00,
2013-02-22 14:58:00,37.6,26.2,30.35,NE,48,0.0,6.0,63,0.00,,---,0.00,VWS V14.01,2013-02-22 19:58:00,
2013-02-22 14:59:00,37.5,26.5,30.35,South,175,2.0,6.0,64,0.00,,---,0.00,VWS V14.01,2013-02-22 19:59:00,
2013-02-22 15:00:00,37.5,26.5,30.35,ESE,114,0.0,6.0,64,0.00,,---,0.00,VWS V14.01,2013-02-22 20:00:00,
2013-02-22 15:01:00,37.5,26.8,30.35,SE,134,0.0,3.0,65,0.00,,---,0.00,VWS V14.01,2013-02-22 20:01:00,
2013-02-22 15:02:00,37.6,26.9,30.35,East,85,0.0,3.0,65,0.00,,---,0.00,VWS V14.01,2013-02-22 20:02:00,
2013-02-22 15:03:00,37.6,26.9,30.35,NE,38,0.0,3.0,65,0.00,,---,0.00,VWS V14.01,2013-02-22 20:03:00,
2013-02-22 15:04:00,37.6,26.5,30.35,NNE,16,0.0,3.0,64,0.00,,---,0.00,VWS V14.01,2013-02-22 20:04:00,
2013-02-22 15:05:00,37.6,26.5,30.35,ESE,117,0.0,3.0,64,0.00,,---,0.00,VWS V14.01,2013-02-22 20:05:00,
2013-02-22 15:06:00,37.6,26.5,30.35,SE,140,4.0,4.0,64,0.00,,---,0.00,VWS V14.01,2013-02-22 20:06:00,
2013-02-22 15:07:00,37.5,26.5,30.35,East,98,0.0,7.0,64,0.00,,---,0.00,VWS V14.01,2013-02-22 20:07:00,
2013-02-22 15:08:00,37.6,26.5,30.35,SE,139,0.0,7.0,64,0.00,,---,0.00,VWS V14.01,2013-02-22 20:08:00,
2013-02-22 15:09:00,37.5,26.5,30.34,SSE,166,0.0,7.0,64,0.00,,---,0.00,VWS V14.01,2013-02-22 20:09:00,
2013-02-22 15:10:00,37.5,26.5,30.34,ENE,76,1.0,7.0,64,0.00,,---,0.00,VWS V14.01,2013-02-22 20:10:00,
2013-02-22 15:11:00,37.5,26.5,30.34,ENE,61,0.0,7.0,64,0.00,,---,0.00,VWS V14.01,2013-02-22 20:11:00,
2013-02-22 15:12:00,37.5,26.5,30.34,NNE,33,3.0,7.0,64,0.00,,---,0.00,VWS V14.01,2013-02-22 20:12:00,
2013-02-22 15:13:00,37.4,26.4,30.34,East,80,0.0,7.0,64,0.00,,---,0.00,VWS V14.01,2013-02-22 20:13:00,
2013-02-22 15:14:00,37.4,26.4,30.34,East,99,0.0,7.0,64,0.00,,---,0.00,VWS V14.01,2013-02-22 20:14:00,
2013-02-22 15:15:00,37.4,26.4,30.34,ENE,71,2.0,7.0,64,0.00,,---,0.00,VWS V14.01,2013-02-22 20:15:00,
2013-02-22 15:16:00,37.3,26.6,30.34,East,89,2.0,7.0,65,0.00,,---,0.00,VWS V14.01,2013-02-22 20:16:00,
2013-02-22 15:17:00,37.3,26.6,30.34,ESE,117,1.0,7.0,65,0.00,,---,0.00,VWS V14.01,2013-02-22 20:17:00,
2013-02-22 15:18:00,37.2,26.2,30.35,ENE,71,0.0,7.0,64,0.00,,---,0.00,VWS V14.01,2013-02-22 20:18:00,
2013-02-22 15:19:00,37.2,26.5,30.35,ENE,65,0.0,7.0,65,0.00,,---,0.00,VWS V14.01,2013-02-22 20:19:00,
2013-02-22 15:20:00,37.1,26.4,30.35,SE,131,1.0,7.0,65,0.00,,---,0.00,VWS V14.01,2013-02-22 20:20:00,
2013-02-22 15:21:00,37.1,26.4,30.35,East,98,3.0,7.0,65,0.00,,---,0.00,VWS V14.01,2013-02-22 20:21:00,
2013-02-22 15:22:00,37.1,26.4,30.34,ENE,69,0.0,7.0,65,0.00,,---,0.00,VWS V14.01,2013-02-22 20:22:00,
2013-02-22 15:23:00,37.0,26.0,30.34,SE,131,0.0,7.0,64,0.00,,---,0.00,VWS V14.01,2013-02-22 20:23:00,
2013-02-22 15:24:00,37.0,26.0,30.34,ENE,77,3.0,7.0,64,0.00,,---,0.00,VWS V14.01,2013-02-22 20:24:00,
2013-02-22 15:25:00,36.9,25.9,30.34,ESE,107,0.0,10.0,64,0.00,,---,0.00,VWS V14.01,2013-02-22 20:25:00,
2013-02-22 15:26:00,36.9,25.9,30.34,East,90,1.0,10.0,64,0.00,,---,0.00,VWS V14.01,2013-02-22 20:26:00,
2013-02-22 15:27:00,36.8,26.1,30.34,ESE,106,0.0,10.0,65,0.00,,---,0.00,VWS V14.01,2013-02-22 20:27:00,
2013-02-22 15:28:00,36.8,26.1,30.34,SE,138,0.0,10.0,65,0.00,,---,0.00,VWS V14.01,2013-02-22 20:28:00,
2013-02-22 15:29:00,36.8,26.1,30.34,East,101,1.0,10.0,65,0.00,,---,0.00,VWS V14.01,2013-02-22 20:29:00,
2013-02-22 15:30:00,36.7,26.1,30.34,ENE,61,2.0,10.0,65,0.00,,---,0.00,VWS V14.01,2013-02-22 20:30:00,
2013-02-22 15:31:00,36.7,26.1,30.34,ENE,72,0.0,5.0,65,0.00,,---,0.00,VWS V14.01,2013-02-22 20:31:00,
2013-02-22 15:32:00,36.6,26.0,30.34,ENE,65,2.0,9.0,65,0.00,,---,0.00,VWS V14.01,2013-02-22 20:32:00,
2013-02-22 15:33:00,36.6,26.0,30.34,East,88,1.0,9.0,65,0.00,,---,0.00,VWS V14.01,2013-02-22 20:33:00,
2013-02-22 15:34:00,36.6,26.0,30.34,ESE,121,0.0,9.0,65,0.00,,---,0.00,VWS V14.01,2013-02-22 20:34:00,
2013-02-22 15:35:00,36.5,25.9,30.34,ENE,77,0.0,9.0,65,0.00,,---,0.00,VWS V14.01,2013-02-22 20:35:00,
2013-02-22 15:36:00,36.5,25.9,30.34,ENE,65,0.0,9.0,65,0.00,,---,0.00,VWS V14.01,2013-02-22 20:36:00,
2013-02-22 15:37:00,36.5,25.9,30.34,East,82,3.0,9.0,65,0.00,,---,0.00,VWS V14.01,2013-02-22 20:37:00,
2013-02-22 15:38:00,36.4,25.8,30.34,ENE,69,0.0,9.0,65,0.00,,---,0.00,VWS V14.01,2013-02-22 20:38:00,
2013-02-22 15:39:00,36.4,25.8,30.34,ENE,62,3.0,9.0,65,0.00,,---,0.00,VWS V14.01,2013-02-22 20:39:00,
2013-02-22 15:40:00,36.4,25.8,30.34,East,95,1.0,9.0,65,0.00,,---,0.00,VWS V14.01,2013-02-22 20:40:00,
2013-02-22 15:41:00,36.3,26.0,30.34,ENE,74,0.0,9.0,66,0.00,,---,0.00,VWS V14.01,2013-02-22 20:41:00,
2013-02-22 15:42:00,36.3,26.0,30.34,East,82,0.0,9.0,66,0.00,,---,0.00,VWS V14.01,2013-02-22 20:42:00,
2013-02-22 15:43:00,36.3,26.0,30.34,ENE,62,4.0,9.0,66,0.00,,---,0.00,VWS V14.01,2013-02-22 20:43:00,
2013-02-22 15:44:00,36.2,26.3,30.34,SE,132,0.0,9.0,67,0.00,,---,0.00,VWS V14.01,2013-02-22 20:44:00,
2013-02-22 15:45:00,36.2,26.3,30.34,East,88,1.0,9.0,67,0.00,,---,0.00,VWS V14.01,2013-02-22 20:45:00,
2013-02-22 15:46:00,36.2,26.3,30.34,SE,140,0.0,9.0,67,0.00,,---,0.00,VWS V14.01,2013-02-22 20:46:00,
2013-02-22 15:47:00,36.1,26.2,30.34,North,10,0.0,9.0,67,0.00,,---,0.00,VWS V14.01,2013-02-22 20:47:00,
2013-02-22 15:48:00,36.1,26.2,30.34,East,101,0.0,9.0,67,0.00,,---,0.00,VWS V14.01,2013-02-22 20:48:00,
2013-02-22 15:49:00,36.1,26.2,30.34,ESE,102,3.0,9.0,67,0.00,,---,0.00,VWS V14.01,2013-02-22 20:49:00,
2013-02-22 15:50:00,36.1,26.2,30.34,NE,43,2.0,9.0,67,0.00,,---,0.00,VWS V14.01,2013-02-22 20:50:00,
2013-02-22 15:51:00,36.0,26.1,30.34,East,84,0.0,9.0,67,0.00,,---,0.00,VWS V14.01,2013-02-22 20:51:00,
2013-02-22 15:52:00,36.0,26.1,30.34,ENE,74,1.0,9.0,67,0.00,,---,0.00,VWS V14.01,2013-02-22 20:52:00,
2013-02-22 15:53:00,36.0,26.1,30.34,ENE,65,1.0,9.0,67,0.00,,---,0.00,VWS V14.01,2013-02-22 20:53:00,
2013-02-22 15:54:00,36.0,26.1,30.34,East,88,0.0,9.0,67,0.00,,---,0.00,VWS V14.01,2013-02-22 20:54:00,
2013-02-22 15:55:00,36.0,26.5,30.34,ESE,108,0.0,9.0,68,0.00,,---,0.00,VWS V14.01,2013-02-22 20:55:00,
2013-02-22 15:56:00,36.0,26.5,30.34,ESE,107,1.0,9.0,68,0.00,,---,0.00,VWS V14.01,2013-02-22 20:56:00,
2013-02-22 15:57:00,36.0,26.5,30.34,ENE,67,1.0,9.0,68,0.00,,---,0.00,VWS V14.01,2013-02-22 20:57:00,
2013-02-22 15:58:00,36.0,26.5,30.34,ESE,116,0.0,9.0,68,0.00,,---,0.00,VWS V14.01,2013-02-22 20:58:00,
2013-02-22 15:59:00,36.0,26.5,30.34,NE,55,0.0,9.0,68,0.00,,---,0.00,VWS V14.01,2013-02-22 20:59:00,
2013-02-22 16:00:00,35.9,26.4,30.34,ENE,65,0.0,9.0,68,0.00,,---,0.00,VWS V14.01,2013-02-22 21:00:00,
2013-02-22 16:01:00,35.9,26.4,30.34,ENE,66,0.0,7.0,68,0.00,,---,0.00,VWS V14.01,2013-02-22 21:01:00,
2013-02-22 16:02:00,35.9,26.4,30.34,East,96,0.0,7.0,68,0.00,,---,0.00,VWS V14.01,2013-02-22 21:02:00,
2013-02-22 16:03:00,35.9,26.4,30.34,East,80,0.0,7.0,68,0.00,,---,0.00,VWS V14.01,2013-02-22 21:03:00,
2013-02-22 16:04:00,35.9,26.4,30.34,ENE,73,0.0,7.0,68,0.00,,---,0.00,VWS V14.01,2013-02-22 21:04:00,
2013-02-22 16:05:00,35.9,26.4,30.34,East,98,0.0,7.0,68,0.00,,---,0.00,VWS V14.01,2013-02-22 21:05:00,
2013-02-22 16:06:00,35.9,26.7,30.34,ESE,119,1.0,7.0,69,0.00,,---,0.00,VWS V14.01,2013-02-22 21:06:00,
2013-02-22 16:07:00,35.9,26.7,30.34,ENE,70,0.0,7.0,69,0.00,,---,0.00,VWS V14.01,2013-02-22 21:07:00,
2013-02-22 16:08:00,35.9,26.7,30.34,ESE,115,0.0,7.0,69,0.00,,---,0.00,VWS V14.01,2013-02-22 21:08:00,
2013-02-22 16:09:00,35.9,26.7,30.34,East,86,0.0,7.0,69,0.00,,---,0.00,VWS V14.01,2013-02-22 21:09:00,
2013-02-22 16:10:00,35.9,26.7,30.34,East,81,0.0,7.0,69,0.00,,---,0.00,VWS V14.01,2013-02-22 21:10:00,
2013-02-22 16:11:00,35.9,26.7,30.34,South,178,0.0,7.0,69,0.00,,---,0.00,VWS V14.01,2013-02-22 21:11:00,
2013-02-22 16:12:00,35.9,26.7,30.34,SE,140,0.0,7.0,69,0.00,,---,0.00,VWS V14.01,2013-02-22 21:12:00,
2013-02-22 16:13:00,35.9,26.7,30.34,NE,54,0.0,7.0,69,0.00,,---,0.00,VWS V14.01,2013-02-22 21:13:00,
2013-02-22 16:14:00,35.9,26.7,30.35,ENE,72,3.0,7.0,69,0.00,,---,0.00,VWS V14.01,2013-02-22 21:14:00,
2013-02-22 16:15:00,35.9,27.1,30.35,NNE,22,0.0,7.0,70,0.00,,---,0.00,VWS V14.01,2013-02-22 21:15:00,
2013-02-22 16:16:00,35.9,27.1,30.35,ENE,69,1.0,7.0,70,0.00,,---,0.00,VWS V14.01,2013-02-22 21:16:00,
2013-02-22 16:17:00,35.9,27.1,30.35,ESE,105,0.0,7.0,70,0.00,,---,0.00,VWS V14.01,2013-02-22 21:17:00,
2013-02-22 16:18:00,35.9,27.1,30.35,SE,128,0.0,7.0,70,0.00,,---,0.00,VWS V14.01,2013-02-22 21:18:00,
2013-02-22 16:19:00,35.9,27.1,30.35,ESE,123,0.0,7.0,70,0.00,,---,0.00,VWS V14.01,2013-02-22 21:19:00,
2013-02-22 16:20:00,35.9,27.1,30.35,North,11,0.0,7.0,70,0.00,,---,0.00,VWS V14.01,2013-02-22 21:20:00,
2013-02-22 16:21:00,35.9,27.1,30.35,SE,134,3.0,7.0,70,0.00,,---,0.00,VWS V14.01,2013-02-22 21:21:00,
2013-02-22 16:22:00,35.9,27.1,30.35,East,93,1.0,7.0,70,0.00,,---,0.00,VWS V14.01,2013-02-22 21:22:00,
2013-02-22 16:23:00,35.9,27.1,30.35,East,86,0.0,7.0,70,0.00,,---,0.00,VWS V14.01,2013-02-22 21:23:00,
2013-02-22 16:24:00,35.9,27.1,30.35,NE,56,0.0,7.0,70,0.00,,---,0.00,VWS V14.01,2013-02-22 21:24:00,
2013-02-22 16:25:00,35.9,27.1,30.35,East,98,0.0,7.0,70,0.00,,---,0.00,VWS V14.01,2013-02-22 21:25:00,
2013-02-22 16:26:00,35.9,27.1,30.35,East,100,0.0,7.0,70,0.00,,---,0.00,VWS V14.01,2013-02-22 21:26:00,
2013-02-22 16:27:00,35.9,27.1,30.35,East,97,1.0,7.0,70,0.00,,---,0.00,VWS V14.01,2013-02-22 21:27:00,
2013-02-22 16:28:00,35.9,27.1,30.35,ENE,61,2.0,7.0,70,0.00,,---,0.00,VWS V14.01,2013-02-22 21:28:00,
2013-02-22 16:29:00,35.9,27.1,30.35,ESE,109,2.0,7.0,70,0.00,,---,0.00,VWS V14.01,2013-02-22 21:29:00,
2013-02-22 16:30:00,35.9,27.1,30.35,ENE,72,0.0,7.0,70,0.00,,---,0.00,VWS V14.01,2013-02-22 21:30:00,
2013-02-22 16:31:00,35.9,27.1,30.35,SE,128,0.0,1.0,70,0.00,,---,0.00,VWS V14.01,2013-02-22 21:31:00,
2013-02-22 16:32:00,35.8,27.0,30.35,East,82,0.0,3.0,70,0.00,,---,0.00,VWS V14.01,2013-02-22 21:32:00,
2013-02-22 16:33:00,35.8,27.0,30.35,East,84,0.0,4.0,70,0.00,,---,0.00,VWS V14.01,2013-02-22 21:33:00,
2013-02-22 16:34:00,35.8,27.0,30.35,NE,51,0.0,4.0,70,0.00,,---,0.00,VWS V14.01,2013-02-22 21:34:00,
2013-02-22 16:35:00,35.8,27.0,30.35,NE,55,0.0,4.0,70,0.00,,---,0.00,VWS V14.01,2013-02-22 21:35:00,
2013-02-22 16:36:00,35.8,27.0,30.35,South,188,0.0,4.0,70,0.00,,---,0.00,VWS V14.01,2013-02-22 21:36:00,
2013-02-22 16:37:00,35.8,27.0,30.35,South,171,0.0,4.0,70,0.00,,---,0.00,VWS V14.01,2013-02-22 21:37:00,
2013-02-22 16:38:00,35.8,27.0,30.35,South,188,0.0,4.0,70,0.00,,---,0.00,VWS V14.01,2013-02-22 21:38:00,
2013-02-22 16:39:00,35.8,27.0,30.35,SSE,150,0.0,4.0,70,0.00,,---,0.00,VWS V14.01,2013-02-22 21:39:00,
2013-02-22 16:40:00,35.9,27.4,30.35,SE,133,0.0,4.0,71,0.00,,---,0.00,VWS V14.01,2013-02-22 21:40:00,
2013-02-22 16:41:00,35.9,27.4,30.36,East,89,5.0,5.0,71,0.00,,---,0.00,VWS V14.01,2013-02-22 21:41:00,
2013-02-22 16:42:00,35.9,27.4,30.36,East,98,0.0,7.0,71,0.00,,---,0.00,VWS V14.01,2013-02-22 21:42:00,
2013-02-22 16:43:00,35.9,27.4,30.36,SSE,148,0.0,7.0,71,0.00,,---,0.00,VWS V14.01,2013-02-22 21:43:00,
2013-02-22 16:44:00,35.9,27.4,30.36,ESE,121,0.0,7.0,71,0.00,,---,0.00,VWS V14.01,2013-02-22 21:44:00,
2013-02-22 16:45:00,35.9,27.4,30.36,SE,137,0.0,7.0,71,0.00,,---,0.00,VWS V14.01,2013-02-22 21:45:00,
2013-02-22 16:46:00,35.9,27.4,30.36,SSE,150,0.0,7.0,71,0.00,,---,0.00,VWS V14.01,2013-02-22 21:46:00,
2013-02-22 16:47:00,35.9,27.4,30.36,SSW,207,0.0,7.0,71,0.00,,---,0.00,VWS V14.01,2013-02-22 21:47:00,
2013-02-22 16:48:00,36.0,27.5,30.37,WNW,286,0.0,7.0,71,0.00,,---,0.00,VWS V14.01,2013-02-22 21:48:00,
2013-02-22 16:49:00,36.0,27.5,30.37,West,277,0.0,7.0,71,0.00,,---,0.00,VWS V14.01,2013-02-22 21:49:00,
2013-02-22 16:50:00,35.9,27.4,30.37,ENE,74,0.0,7.0,71,0.00,,---,0.00,VWS V14.01,2013-02-22 21:50:00,
2013-02-22 16:51:00,36.0,27.5,30.36,SSE,152,0.0,7.0,71,0.00,,---,0.00,VWS V14.01,2013-02-22 21:51:00,
2013-02-22 16:52:00,36.0,27.5,30.36,SSE,163,0.0,7.0,71,0.00,,---,0.00,VWS V14.01,2013-02-22 21:52:00,
2013-02-22 16:53:00,36.0,27.5,30.36,ESE,120,0.0,7.0,71,0.00,,---,0.00,VWS V14.01,2013-02-22 21:53:00,
2013-02-22 16:54:00,36.0,27.5,30.36,SE,134,0.0,7.0,71,0.00,,---,0.00,VWS V14.01,2013-02-22 21:54:00,
2013-02-22 16:55:00,36.0,27.5,30.36,SSW,209,0.0,8.0,71,0.00,,---,0.00,VWS V14.01,2013-02-22 21:55:00,
2013-02-22 16:56:00,36.0,27.5,30.36,ENE,59,0.0,8.0,71,0.00,,---,0.00,VWS V14.01,2013-02-22 21:56:00,
2013-02-22 16:57:00,36.0,27.5,30.36,SE,134,0.0,8.0,71,0.00,,---,0.00,VWS V14.01,2013-02-22 21:57:00,
2013-02-22 16:58:00,36.0,27.5,30.36,South,181,0.0,8.0,71,0.00,,---,0.00,VWS V14.01,2013-02-22 21:58:00,
2013-02-22 16:59:00,36.0,27.5,30.36,SSE,161,0.0,8.0,71,0.00,,---,0.00,VWS V14.01,2013-02-22 21:59:00,
2013-02-22 17:00:00,36.0,27.5,30.36,NE,53,0.0,8.0,71,0.00,,---,0.00,VWS V14.01,2013-02-22 22:00:00,
2013-02-22 17:01:00,36.0,27.5,30.36,SSE,149,0.0,1.0,71,0.00,,---,0.00,VWS V14.01,2013-02-22 22:01:00,
2013-02-22 17:02:00,36.0,27.5,30.36,SSE,147,0.0,1.0,71,0.00,,---,0.00,VWS V14.01,2013-02-22 22:02:00,
2013-02-22 17:03:00,36.0,27.5,30.36,West,278,0.0,1.0,71,0.00,,---,0.00,VWS V14.01,2013-02-22 22:03:00,
2013-02-22 17:04:00,36.0,27.5,30.36,South,184,0.0,1.0,71,0.00,,---,0.00,VWS V14.01,2013-02-22 22:04:00,
2013-02-22 17:05:00,36.0,27.5,30.36,SE,136,0.0,1.0,71,0.00,,---,0.00,VWS V14.01,2013-02-22 22:05:00,
2013-02-22 17:06:00,36.0,27.5,30.36,South,182,0.0,1.0,71,0.00,,---,0.00,VWS V14.01,2013-02-22 22:06:00,
2013-02-22 17:07:00,36.0,27.5,30.36,SSE,153,0.0,1.0,71,0.00,,---,0.00,VWS V14.01,2013-02-22 22:07:00,
2013-02-22 17:08:00,36.0,27.5,30.36,SSE,153,0.0,1.0,71,0.00,,---,0.00,VWS V14.01,2013-02-22 22:08:00,
2013-02-22 17:09:00,36.0,27.5,30.36,SE,144,0.0,1.0,71,0.00,,---,0.00,VWS V14.01,2013-02-22 22:09:00,
2013-02-22 17:10:00,36.0,27.5,30.36,ESE,113,0.0,1.0,71,0.00,,---,0.00,VWS V14.01,2013-02-22 22:10:00,
2013-02-22 17:11:00,36.0,27.5,30.36,SE,134,0.0,1.0,71,0.00,,---,0.00,VWS V14.01,2013-02-22 22:11:00,
2013-02-22 17:12:00,36.0,27.5,30.36,ENE,69,1.0,1.0,71,0.00,,---,0.00,VWS V14.01,2013-02-22 22:12:00,
2013-02-22 17:13:00,36.0,27.5,30.36,East,96,0.0,3.0,71,0.00,,---,0.00,VWS V14.01,2013-02-22 22:13:00,
2013-02-22 17:14:00,36.0,27.5,30.36,South,173,1.0,4.0,71,0.00,,---,0.00,VWS V14.01,2013-02-22 22:14:00,
2013-02-22 17:15:00,36.0,27.5,30.36,NNE,12,1.0,4.0,71,0.00,,---,0.00,VWS V14.01,2013-02-22 22:15:00,
2013-02-22 17:16:00,36.0,27.5,30.36,ENE,61,0.0,4.0,71,0.00,,---,0.00,VWS V14.01,2013-02-22 22:16:00,
2013-02-22 17:17:00,36.0,27.5,30.36,South,172,0.0,5.0,71,0.00,,---,0.00,VWS V14.01,2013-02-22 22:17:00,
2013-02-22 17:18:00,36.0,27.5,30.36,NNE,32,0.0,5.0,71,0.00,,---,0.00,VWS V14.01,2013-02-22 22:18:00,
2013-02-22 17:19:00,36.0,27.5,30.36,ENE,73,0.0,5.0,71,0.00,,---,0.00,VWS V14.01,2013-02-22 22:19:00,
2013-02-22 17:20:00,36.0,27.5,30.36,ESE,113,0.0,5.0,71,0.00,,---,0.00,VWS V14.01,2013-02-22 22:20:00,
2013-02-22 17:21:00,36.0,27.5,30.36,NE,44,0.0,5.0,71,0.00,,---,0.00,VWS V14.01,2013-02-22 22:21:00,
2013-02-22 17:22:00,36.0,27.2,30.36,South,186,0.0,5.0,70,0.00,,---,0.00,VWS V14.01,2013-02-22 22:22:00,
2013-02-22 17:23:00,36.0,27.2,30.35,ESE,122,0.0,5.0,70,0.00,,---,0.00,VWS V14.01,2013-02-22 22:23:00,
2013-02-22 17:24:00,36.0,27.2,30.35,NW,309,0.0,5.0,70,0.00,,---,0.00,VWS V14.01,2013-02-22 22:24:00,
2013-02-22 17:25:00,36.0,27.2,30.35,WSW,251,0.0,5.0,70,0.00,,---,0.00,VWS V14.01,2013-02-22 22:25:00,
2013-02-22 17:26:00,36.0,27.2,30.35,East,84,1.0,5.0,70,0.00,,---,0.00,VWS V14.01,2013-02-22 22:26:00,
2013-02-22 17:27:00,36.0,27.2,30.35,East,96,0.0,5.0,70,0.00,,---,0.00,VWS V14.01,2013-02-22 22:27:00,
2013-02-22 17:28:00,36.0,27.2,30.35,SE,145,0.0,5.0,70,0.00,,---,0.00,VWS V14.01,2013-02-22 22:28:00,
2013-02-22 17:29:00,36.0,27.2,30.35,SE,134,1.0,5.0,70,0.00,,---,0.00,VWS V14.01,2013-02-22 22:29:00,
2013-02-22 17:30:00,36.0,27.2,30.35,South,180,0.0,5.0,70,0.00,,---,0.00,VWS V14.01,2013-02-22 22:30:00,
2013-02-22 17:31:00,36.0,27.2,30.35,ENE,70,0.0,2.0,70,0.00,,---,0.00,VWS V14.01,2013-02-22 22:31:00,
2013-02-22 17:32:00,36.0,27.2,30.35,SE,134,0.0,2.0,70,0.00,,---,0.00,VWS V14.01,2013-02-22 22:32:00,
2013-02-22 17:33:00,36.0,27.2,30.36,East,93,0.0,2.0,70,0.00,,---,0.00,VWS V14.01,2013-02-22 22:33:00,
2013-02-22 17:34:00,36.0,27.2,30.36,SE,140,1.0,2.0,70,0.00,,---,0.00,VWS V14.01,2013-02-22 22:34:00,
2013-02-22 17:35:00,36.0,27.5,30.36,East,90,5.0,5.0,71,0.00,,---,0.00,VWS V14.01,2013-02-22 22:35:00,
2013-02-22 17:36:00,36.0,27.2,30.36,NE,49,0.0,5.0,70,0.00,,---,0.00,VWS V14.01,2013-02-22 22:36:00,
2013-02-22 17:37:00,36.0,27.2,30.36,SE,140,0.0,5.0,70,0.00,,---,0.00,VWS V14.01,2013-02-22 22:37:00,
2013-02-22 17:38:00,36.0,27.2,30.36,SE,136,0.0,5.0,70,0.00,,---,0.00,VWS V14.01,2013-02-22 22:38:00,
2013-02-22 17:39:00,36.0,27.2,30.36,SE,138,0.0,5.0,70,0.00,,---,0.00,VWS V14.01,2013-02-22 22:39:00,
2013-02-22 17:40:00,36.0,27.2,30.36,East,96,0.0,5.0,70,0.00,,---,0.00,VWS V14.01,2013-02-22 22:40:00,
2013-02-22 17:41:00,36.0,27.2,30.36,SSE,153,0.0,5.0,70,0.00,,---,0.00,VWS V14.01,2013-02-22 22:41:00,
2013-02-22 17:42:00,36.0,27.2,30.36,East,84,0.0,5.0,70,0.00,,---,0.00,VWS V14.01,2013-02-22 22:42:00,
2013-02-22 17:43:00,36.0,27.2,30.36,North,349,0.0,5.0,70,0.00,,---,0.00,VWS V14.01,2013-02-22 22:43:00,
2013-02-22 17:44:00,36.0,27.2,30.36,North,355,0.0,5.0,70,0.00,,---,0.00,VWS V14.01,2013-02-22 22:44:00,
2013-02-22 17:45:00,36.0,27.2,30.36,NNE,24,0.0,5.0,70,0.00,,---,0.00,VWS V14.01,2013-02-22 22:45:00,
2013-02-22 17:46:00,36.0,27.2,30.36,ESE,117,1.0,5.0,70,0.00,,---,0.00,VWS V14.01,2013-02-22 22:46:00,
2013-02-22 17:47:00,36.0,27.2,30.36,ESE,110,2.0,5.0,70,0.00,,---,0.00,VWS V14.01,2013-02-22 22:47:00,
2013-02-22 17:48:00,36.0,27.2,30.36,SE,138,0.0,5.0,70,0.00,,---,0.00,VWS V14.01,2013-02-22 22:48:00,
2013-02-22 17:49:00,36.0,27.2,30.36,South,182,0.0,5.0,70,0.00,,---,0.00,VWS V14.01,2013-02-22 22:49:00,
2013-02-22 17:50:00,36.0,27.2,30.36,East,86,0.0,5.0,70,0.00,,---,0.00,VWS V14.01,2013-02-22 22:50:00,
2013-02-22 17:51:00,36.0,27.2,30.36,SE,132,0.0,5.0,70,0.00,,---,0.00,VWS V14.01,2013-02-22 22:51:00,
2013-02-22 17:52:00,36.0,27.2,30.36,North,5,0.0,5.0,70,0.00,,---,0.00,VWS V14.01,2013-02-22 22:52:00,
2013-02-22 17:53:00,36.0,27.2,30.36,West,266,0.0,5.0,70,0.00,,---,0.00,VWS V14.01,2013-02-22 22:53:00,
2013-02-22 17:54:00,36.0,27.5,30.36,East,96,0.0,5.0,71,0.00,,---,0.00,VWS V14.01,2013-02-22 22:54:00,
2013-02-22 17:55:00,36.0,27.5,30.36,SE,144,0.0,5.0,71,0.00,,---,0.00,VWS V14.01,2013-02-22 22:55:00,
2013-02-22 17:56:00,36.0,27.5,30.36,South,180,0.0,5.0,71,0.00,,---,0.00,VWS V14.01,2013-02-22 22:56:00,
2013-02-22 17:57:00,36.0,27.5,30.36,East,98,0.0,5.0,71,0.00,,---,0.00,VWS V14.01,2013-02-22 22:57:00,
2013-02-22 17:58:00,36.0,27.5,30.36,NE,54,0.0,5.0,71,0.00,,---,0.00,VWS V14.01,2013-02-22 22:58:00,
2013-02-22 17:59:00,36.0,27.5,30.36,ENE,62,0.0,5.0,71,0.00,,---,0.00,VWS V14.01,2013-02-22 22:59:00,
2013-02-22 18:00:00,36.0,27.5,30.36,ENE,61,0.0,5.0,71,0.00,,---,0.00,VWS V14.01,2013-02-22 23:00:00,
2013-02-22 18:01:00,36.0,27.5,30.36,SSW,213,0.0,0.0,71,0.00,,---,0.00,VWS V14.01,2013-02-22 23:01:00,
2013-02-22 18:02:00,36.0,27.5,30.36,ENE,63,0.0,0.0,71,0.00,,---,0.00,VWS V14.01,2013-02-22 23:02:00,
2013-02-22 18:03:00,36.0,27.5,30.36,NE,55,1.0,2.0,71,0.00,,---,0.00,VWS V14.01,2013-02-22 23:03:00,
2013-02-22 18:04:00,36.1,27.6,30.36,South,186,0.0,2.0,71,0.00,,---,0.00,VWS V14.01,2013-02-22 23:04:00,
2013-02-22 18:05:00,36.0,27.5,30.36,SE,126,0.0,2.0,71,0.00,,---,0.00,VWS V14.01,2013-02-22 23:05:00,
2013-02-22 18:06:00,36.0,27.5,30.36,South,169,0.0,2.0,71,0.00,,---,0.00,VWS V14.01,2013-02-22 23:06:00,
2013-02-22 18:07:00,36.0,27.5,30.36,ESE,120,0.0,2.0,71,0.00,,---,0.00,VWS V14.01,2013-02-22 23:07:00,
2013-02-22 18:08:00,36.0,27.5,30.36,South,179,1.0,2.0,71,0.00,,---,0.00,VWS V14.01,2013-02-22 23:08:00,
2013-02-22 18:09:00,36.0,27.5,30.36,South,175,0.0,2.0,71,0.00,,---,0.00,VWS V14.01,2013-02-22 23:09:00,
2013-02-22 18:10:00,36.0,27.9,30.36,SSE,158,0.0,2.0,72,0.00,,---,0.00,VWS V14.01,2013-02-22 23:10:00,
2013-02-22 18:11:00,36.0,27.9,30.36,SSW,196,0.0,2.0,72,0.00,,---,0.00,VWS V14.01,2013-02-22 23:11:00,
2013-02-22 18:12:00,36.1,28.0,30.36,SW,215,0.0,2.0,72,0.00,,---,0.00,VWS V14.01,2013-02-22 23:12:00,
2013-02-22 18:13:00,36.1,28.0,30.36,SE,135,0.0,2.0,72,0.00,,---,0.00,VWS V14.01,2013-02-22 23:13:00,
2013-02-22 18:14:00,36.1,28.0,30.36,ENE,69,0.0,2.0,72,0.00,,---,0.00,VWS V14.01,2013-02-22 23:14:00,
2013-02-22 18:15:00,36.0,27.9,30.36,ESE,105,2.0,2.0,72,0.00,,---,0.00,VWS V14.01,2013-02-22 23:15:00,
2013-02-22 18:16:00,36.1,28.0,30.36,ESE,108,0.0,2.0,72,0.00,,---,0.00,VWS V14.01,2013-02-22 23:16:00,
2013-02-22 18:17:00,36.1,28.0,30.36,ESE,108,0.0,2.0,72,0.00,,---,0.00,VWS V14.01,2013-02-22 23:17:00,
2013-02-22 18:18:00,36.0,27.9,30.36,ESE,109,0.0,2.0,72,0.00,,---,0.00,VWS V14.01,2013-02-22 23:18:00,
2013-02-22 18:19:00,36.0,27.9,30.36,ESE,109,1.0,2.0,72,0.00,,---,0.00,VWS V14.01,2013-02-22 23:19:00,
2013-02-22 18:20:00,36.0,27.9,30.36,SSE,156,0.0,2.0,72,0.00,,---,0.00,VWS V14.01,2013-02-22 23:20:00,
2013-02-22 18:21:00,36.0,27.9,30.36,SSE,159,0.0,2.0,72,0.00,,---,0.00,VWS V14.01,2013-02-22 23:21:00,
2013-02-22 18:22:00,36.0,27.9,30.36,ESE,102,1.0,2.0,72,0.00,,---,0.00,VWS V14.01,2013-02-22 23:22:00,
2013-02-22 18:23:00,36.1,28.0,30.36,ESE,110,0.0,5.0,72,0.00,,---,0.00,VWS V14.01,2013-02-22 23:23:00,
2013-02-22 18:24:00,36.1,28.0,30.36,ENE,67,1.0,8.0,72,0.00,,---,0.00,VWS V14.01,2013-02-22 23:24:00,
2013-02-22 18:25:00,36.1,28.0,30.36,South,186,0.0,8.0,72,0.00,,---,0.00,VWS V14.01,2013-02-22 23:25:00,
2013-02-22 18:26:00,36.1,28.0,30.36,East,92,0.0,8.0,72,0.00,,---,0.00,VWS V14.01,2013-02-22 23:26:00,
2013-02-22 18:27:00,36.1,28.0,30.36,South,181,0.0,8.0,72,0.00,,---,0.00,VWS V14.01,2013-02-22 23:27:00,
2013-02-22 18:28:00,36.1,28.0,30.36,East,97,0.0,8.0,72,0.00,,---,0.00,VWS V14.01,2013-02-22 23:28:00,
2013-02-22 18:29:00,36.1,28.0,30.36,North,5,0.0,8.0,72,0.00,,---,0.00,VWS V14.01,2013-02-22 23:29:00,
2013-02-22 18:30:00,36.1,28.3,30.36,SSW,193,0.0,8.0,73,0.00,,---,0.00,VWS V14.01,2013-02-22 23:30:00,
2013-02-22 18:31:00,36.1,28.3,30.36,SSW,193,0.0,0.0,73,0.00,,---,0.00,VWS V14.01,2013-02-22 23:31:00,
2013-02-22 18:32:00,36.1,28.3,30.35,ENE,76,0.0,1.0,73,0.00,,---,0.00,VWS V14.01,2013-02-22 23:32:00,
2013-02-22 18:33:00,36.1,28.0,30.35,NW,324,0.0,5.0,72,0.00,,---,0.00,VWS V14.01,2013-02-22 23:33:00,
2013-02-22 18:34:00,36.1,28.0,30.36,North,11,1.0,5.0,72,0.00,,---,0.00,VWS V14.01,2013-02-22 23:34:00,
2013-02-22 18:35:00,36.1,28.0,30.36,SE,131,0.0,5.0,72,0.00,,---,0.00,VWS V14.01,2013-02-22 23:35:00,
2013-02-22 18:36:00,36.1,28.0,30.36,SE,136,0.0,5.0,72,0.00,,---,0.00,VWS V14.01,2013-02-22 23:36:00,
2013-02-22 18:37:00,36.1,28.0,30.36,SE,132,1.0,5.0,72,0.00,,---,0.00,VWS V14.01,2013-02-22 23:37:00,
2013-02-22 18:38:00,36.1,28.0,30.36,SSE,148,0.0,7.0,72,0.00,,---,0.00,VWS V14.01,2013-02-22 23:38:00,
2013-02-22 18:39:00,36.1,28.0,30.36,NE,41,0.0,7.0,72,0.00,,---,0.00,VWS V14.01,2013-02-22 23:39:00,
2013-02-22 18:40:00,36.1,28.0,30.36,NE,42,0.0,7.0,72,0.00,,---,0.00,VWS V14.01,2013-02-22 23:40:00,
2013-02-22 18:41:00,36.1,28.0,30.36,East,97,0.0,7.0,72,0.00,,---,0.00,VWS V14.01,2013-02-22 23:41:00,
2013-02-22 18:42:00,36.2,28.1,30.35,East,86,0.0,7.0,72,0.00,,---,0.00,VWS V14.01,2013-02-22 23:42:00,
2013-02-22 18:43:00,36.1,28.0,30.35,South,180,1.0,7.0,72,0.00,,---,0.00,VWS V14.01,2013-02-22 23:43:00,
2013-02-22 18:44:00,36.1,28.0,30.35,North,9,0.0,7.0,72,0.00,,---,0.00,VWS V14.01,2013-02-22 23:44:00,
2013-02-22 18:45:00,36.1,28.0,30.35,SSE,150,0.0,7.0,72,0.00,,---,0.00,VWS V14.01,2013-02-22 23:45:00,
2013-02-22 18:46:00,36.1,27.6,30.35,SSE,159,0.0,7.0,71,0.00,,---,0.00,VWS V14.01,2013-02-22 23:46:00,
2013-02-22 18:47:00,36.1,27.6,30.36,ESE,109,0.0,7.0,71,0.00,,---,0.00,VWS V14.01,2013-02-22 23:47:00,
2013-02-22 18:48:00,36.1,27.6,30.36,SSW,201,1.0,7.0,71,0.00,,---,0.00,VWS V14.01,2013-02-22 23:48:00,
2013-02-22 18:49:00,36.1,27.6,30.36,SSW,200,0.0,7.0,71,0.00,,---,0.00,VWS V14.01,2013-02-22 23:49:00,
2013-02-22 18:50:00,36.1,27.6,30.36,SSE,150,0.0,7.0,71,0.00,,---,0.00,VWS V14.01,2013-02-22 23:50:00,
2013-02-22 18:51:00,36.1,27.6,30.36,SSE,150,0.0,7.0,71,0.00,,---,0.00,VWS V14.01,2013-02-22 23:51:00,
2013-02-22 18:52:00,36.1,27.6,30.36,South,172,0.0,7.0,71,0.00,,---,0.00,VWS V14.01,2013-02-22 23:52:00,
2013-02-22 18:53:00,36.1,27.6,30.36,South,174,0.0,7.0,71,0.00,,---,0.00,VWS V14.01,2013-02-22 23:53:00,
2013-02-22 18:54:00,36.1,27.6,30.36,SSE,167,0.0,7.0,71,0.00,,---,0.00,VWS V14.01,2013-02-22 23:54:00,
2013-02-22 18:55:00,36.1,27.6,30.36,SSE,166,0.0,7.0,71,0.00,,---,0.00,VWS V14.01,2013-02-22 23:55:00,
2013-02-22 18:56:00,36.1,27.6,30.36,SSE,166,0.0,7.0,71,0.00,,---,0.00,VWS V14.01,2013-02-22 23:56:00,
2013-02-22 18:57:00,36.1,27.3,30.36,SSE,166,0.0,7.0,70,0.00,,---,0.00,VWS V14.01,2013-02-22 23:57:00,
2013-02-22 18:58:00,36.1,27.3,30.36,East,98,0.0,7.0,70,0.00,,---,0.00,VWS V14.01,2013-02-22 23:58:00,
2013-02-22 18:59:00,36.1,27.3,30.36,ESE,105,0.0,7.0,70,0.00,,---,0.00,VWS V14.01,2013-02-22 23:59:00,
2013-02-22 19:00:00,36.1,27.3,30.36,South,175,3.0,7.0,70,0.00,,---,0.00,VWS V14.01,2013-02-23 00:00:00,
2013-02-22 19:01:00,36.1,27.3,30.37,South,186,0.0,2.0,70,0.00,,---,0.00,VWS V14.01,2013-02-23 00:01:00,
2013-02-22 19:02:00,36.1,27.3,30.37,SSE,159,5.0,5.0,70,0.00,,---,0.00,VWS V14.01,2013-02-23 00:02:00,
2013-02-22 19:03:00,36.1,27.3,30.37,SSE,168,3.0,5.0,70,0.00,,---,0.00,VWS V14.01,2013-02-23 00:03:00,
2013-02-22 19:04:00,36.1,27.3,30.37,South,175,0.0,5.0,70,0.00,,---,0.00,VWS V14.01,2013-02-23 00:04:00,
2013-02-22 19:05:00,36.1,27.3,30.37,South,184,3.0,5.0,70,0.00,,---,0.00,VWS V14.01,2013-02-23 00:05:00,
2013-02-22 19:06:00,36.1,27.3,30.37,South,180,4.0,5.0,70,0.00,,---,0.00,VWS V14.01,2013-02-23 00:06:00,
2013-02-22 19:07:00,36.2,27.4,30.37,South,182,4.0,6.0,70,0.00,,---,0.00,VWS V14.01,2013-02-23 00:07:00,
2013-02-22 19:08:00,36.2,27.4,30.38,South,184,5.0,6.0,70,0.00,,---,0.00,VWS V14.01,2013-02-23 00:08:00,
2013-02-22 19:09:00,36.2,27.4,30.38,South,181,5.0,6.0,70,0.00,,---,0.00,VWS V14.01,2013-02-23 00:09:00,
2013-02-22 19:10:00,36.2,27.4,30.38,South,188,7.0,8.0,70,0.00,,---,0.00,VWS V14.01,2013-02-23 00:10:00,
2013-02-22 19:11:00,36.2,27.4,30.37,SSW,196,5.0,8.0,70,0.00,,---,0.00,VWS V14.01,2013-02-23 00:11:00,
2013-02-22 19:12:00,36.3,28.1,30.37,SSW,198,5.0,8.0,72,0.00,,---,0.00,VWS V14.01,2013-02-23 00:12:00,
2013-02-22 19:13:00,36.2,28.4,30.37,SSW,202,5.0,8.0,73,0.00,,---,0.00,VWS V14.01,2013-02-23 00:13:00,
2013-02-22 19:14:00,36.2,28.7,30.37,SSW,210,5.0,8.0,74,0.00,,---,0.00,VWS V14.01,2013-02-23 00:14:00,
2013-02-22 19:15:00,36.2,28.7,30.37,SSW,207,4.0,8.0,74,0.00,,---,0.00,VWS V14.01,2013-02-23 00:15:00,
2013-02-22 19:16:00,36.1,28.6,30.37,SSW,209,4.0,8.0,74,0.00,,---,0.00,VWS V14.01,2013-02-23 00:16:00,
2013-02-22 19:17:00,36.1,29.0,30.37,SSW,202,3.0,8.0,75,0.00,,---,0.00,VWS V14.01,2013-02-23 00:17:00,
2013-02-22 19:18:00,36.1,29.0,30.37,SSW,202,4.0,8.0,75,0.00,,---,0.00,VWS V14.01,2013-02-23 00:18:00,
2013-02-22 19:19:00,36.0,28.9,30.36,SSW,202,4.0,8.0,75,0.00,,---,0.00,VWS V14.01,2013-02-23 00:19:00,
2013-02-22 19:20:00,36.0,28.9,30.36,SSW,199,5.0,8.0,75,0.00,,---,0.00,VWS V14.01,2013-02-23 00:20:00,
2013-02-22 19:21:00,36.0,28.9,30.36,SSW,200,4.0,8.0,75,0.00,,---,0.00,VWS V14.01,2013-02-23 00:21:00,
2013-02-22 19:22:00,36.0,28.9,30.36,SSW,200,1.0,8.0,75,0.00,,---,0.00,VWS V14.01,2013-02-23 00:22:00,
2013-02-22 19:23:00,35.9,28.8,30.35,South,190,0.0,8.0,75,0.00,,---,0.00,VWS V14.01,2013-02-23 00:23:00,
2013-02-22 19:24:00,35.9,28.8,30.35,South,190,0.0,8.0,75,0.00,,---,0.00,VWS V14.01,2013-02-23 00:24:00,
2013-02-22 19:25:00,35.9,28.8,30.35,South,190,0.0,8.0,75,0.00,,---,0.00,VWS V14.01,2013-02-23 00:25:00,
2013-02-22 19:26:00,35.8,28.7,30.35,South,190,1.0,8.0,75,0.00,,---,0.00,VWS V14.01,2013-02-23 00:26:00,
2013-02-22 19:27:00,35.8,28.7,30.35,South,190,1.0,8.0,75,0.00,,---,0.00,VWS V14.01,2013-02-23 00:27:00,
2013-02-22 19:28:00,35.7,28.6,30.35,South,191,3.0,8.0,75,0.00,,---,0.00,VWS V14.01,2013-02-23 00:28:00,
2013-02-22 19:29:00,35.7,28.6,30.35,South,191,3.0,8.0,75,0.00,,---,0.00,VWS V14.01,2013-02-23 00:29:00,
2013-02-22 19:30:00,35.7,28.6,30.35,South,191,1.0,8.0,75,0.00,,---,0.00,VWS V14.01,2013-02-23 00:30:00,
2013-02-22 19:31:00,35.7,28.6,30.36,South,191,1.0,3.0,75,0.00,,---,0.00,VWS V14.01,2013-02-23 00:31:00,
2013-02-22 19:32:00,35.7,28.6,30.36,South,186,4.0,4.0,75,0.00,,---,0.00,VWS V14.01,2013-02-23 00:32:00,
2013-02-22 19:33:00,35.7,28.6,30.35,South,186,0.0,4.0,75,0.00,,---,0.00,VWS V14.01,2013-02-23 00:33:00,
2013-02-22 19:34:00,35.7,28.6,30.35,South,186,1.0,4.0,75,0.00,,---,0.00,VWS V14.01,2013-02-23 00:34:00,
2013-02-22 19:35:00,35.7,28.6,30.35,South,186,2.0,4.0,75,0.00,,---,0.00,VWS V14.01,2013-02-23 00:35:00,
2013-02-22 19:36:00,35.7,28.6,30.35,South,188,4.0,4.0,75,0.00,,---,0.00,VWS V14.01,2013-02-23 00:36:00,
2013-02-22 19:37:00,35.7,28.6,30.36,South,188,3.0,5.0,75,0.00,,---,0.00,VWS V14.01,2013-02-23 00:37:00,
2013-02-22 19:38:00,35.7,28.9,30.36,South,189,5.0,6.0,76,0.00,,---,0.00,VWS V14.01,2013-02-23 00:38:00,
2013-02-22 19:39:00,35.7,28.6,30.35,South,190,4.0,6.0,75,0.00,,---,0.00,VWS V14.01,2013-02-23 00:39:00,
2013-02-22 19:40:00,35.7,28.9,30.35,South,183,4.0,6.0,76,0.00,,---,0.00,VWS V14.01,2013-02-23 00:40:00,
2013-02-22 19:41:00,35.7,28.6,30.35,South,183,3.0,6.0,75,0.00,,---,0.00,VWS V14.01,2013-02-23 00:41:00,
2013-02-22 19:42:00,35.7,28.6,30.35,South,184,4.0,6.0,75,0.00,,---,0.00,VWS V14.01,2013-02-23 00:42:00,
2013-02-22 19:43:00,35.7,28.6,30.35,South,183,1.0,6.0,75,0.00,,---,0.00,VWS V14.01,2013-02-23 00:43:00,
2013-02-22 19:44:00,35.7,28.6,30.35,South,180,4.0,6.0,75,0.00,,---,0.00,VWS V14.01,2013-02-23 00:44:00,
2013-02-22 19:45:00,35.6,28.5,30.36,South,186,2.0,6.0,75,0.00,,---,0.00,VWS V14.01,2013-02-23 00:45:00,
2013-02-22 19:46:00,35.6,28.5,30.36,South,186,4.0,6.0,75,0.00,,---,0.00,VWS V14.01,2013-02-23 00:46:00,
2013-02-22 19:47:00,35.6,28.5,30.36,South,180,5.0,6.0,75,0.00,,---,0.00,VWS V14.01,2013-02-23 00:47:00,
2013-02-22 19:48:00,35.7,28.6,30.36,South,178,3.0,6.0,75,0.00,,---,0.00,VWS V14.01,2013-02-23 00:48:00,
2013-02-22 19:49:00,35.6,28.5,30.36,South,182,6.0,6.0,75,0.00,,---,0.00,VWS V14.01,2013-02-23 00:49:00,
2013-02-22 19:50:00,35.7,28.6,30.36,South,185,4.0,6.0,75,0.00,,---,0.00,VWS V14.01,2013-02-23 00:50:00,
2013-02-22 19:51:00,35.7,28.6,30.36,South,186,5.0,6.0,75,0.00,,---,0.00,VWS V14.01,2013-02-23 00:51:00,
2013-02-22 19:52:00,35.6,28.5,30.36,South,186,1.0,6.0,75,0.00,,---,0.00,VWS V14.01,2013-02-23 00:52:00,
2013-02-22 19:53:00,35.7,28.6,30.36,South,186,1.0,6.0,75,0.00,,---,0.00,VWS V14.01,2013-02-23 00:53:00,
2013-02-22 19:54:00,35.7,28.6,30.36,South,186,1.0,6.0,75,0.00,,---,0.00,VWS V14.01,2013-02-23 00:54:00,
2013-02-22 19:55:00,35.7,28.6,30.36,South,182,1.0,6.0,75,0.00,,---,0.00,VWS V14.01,2013-02-23 00:55:00,
2013-02-22 19:56:00,35.7,28.6,30.35,South,182,0.0,6.0,75,0.00,,---,0.00,VWS V14.01,2013-02-23 00:56:00,
2013-02-22 19:57:00,35.7,28.6,30.35,South,178,1.0,6.0,75,0.00,,---,0.00,VWS V14.01,2013-02-23 00:57:00,
2013-02-22 19:58:00,35.7,28.6,30.36,South,178,0.0,6.0,75,0.00,,---,0.00,VWS V14.01,2013-02-23 00:58:00,
2013-02-22 19:59:00,35.6,28.1,30.36,South,182,4.0,6.0,74,0.00,,---,0.00,VWS V14.01,2013-02-23 00:59:00,
2013-02-22 20:00:00,35.6,28.1,30.35,South,182,3.0,6.0,74,0.00,,---,0.00,VWS V14.01,2013-02-23 01:00:00,
2013-02-22 20:01:00,35.6,28.1,30.36,South,175,4.0,5.0,74,0.00,,---,0.00,VWS V14.01,2013-02-23 01:01:00,
2013-02-22 20:02:00,35.6,28.1,30.36,South,191,6.0,6.0,74,0.00,,---,0.00,VWS V14.01,2013-02-23 01:02:00,
2013-02-22 20:03:00,35.7,28.2,30.36,South,188,4.0,7.0,74,0.00,,---,0.00,VWS V14.01,2013-02-23 01:03:00,
2013-02-22 20:04:00,35.7,28.2,30.36,South,189,4.0,7.0,74,0.00,,---,0.00,VWS V14.01,2013-02-23 01:04:00,
2013-02-22 20:05:00,35.7,28.2,30.36,South,190,5.0,7.0,74,0.00,,---,0.00,VWS V14.01,2013-02-23 01:05:00,
2013-02-22 20:06:00,35.7,28.2,30.36,SSW,194,5.0,7.0,74,0.00,,---,0.00,VWS V14.01,2013-02-23 01:06:00,
2013-02-22 20:07:00,35.7,28.6,30.36,SSW,195,5.0,7.0,75,0.00,,---,0.00,VWS V14.01,2013-02-23 01:07:00,
2013-02-22 20:08:00,35.8,28.7,30.36,South,190,6.0,7.0,75,0.00,,---,0.00,VWS V14.01,2013-02-23 01:08:00,
2013-02-22 20:09:00,35.8,28.7,30.36,SSW,192,5.0,7.0,75,0.00,,---,0.00,VWS V14.01,2013-02-23 01:09:00,
2013-02-22 20:10:00,35.8,28.3,30.36,South,188,5.0,7.0,74,0.00,,---,0.00,VWS V14.01,2013-02-23 01:10:00,
2013-02-22 20:11:00,35.8,28.3,30.36,SSW,192,5.0,7.0,74,0.00,,---,0.00,VWS V14.01,2013-02-23 01:11:00,
2013-02-22 20:12:00,35.8,28.3,30.36,SSW,193,7.0,7.0,74,0.00,,---,0.00,VWS V14.01,2013-02-23 01:12:00,
2013-02-22 20:13:00,35.8,28.3,30.36,South,191,5.0,7.0,74,0.00,,---,0.00,VWS V14.01,2013-02-23 01:13:00,
2013-02-22 20:14:00,35.8,28.3,30.36,South,187,5.0,7.0,74,0.00,,---,0.00,VWS V14.01,2013-02-23 01:14:00,
2013-02-22 20:15:00,35.8,28.0,30.36,South,188,4.0,7.0,73,0.00,,---,0.00,VWS V14.01,2013-02-23 01:15:00,
2013-02-22 20:16:00,35.7,27.9,30.36,South,190,3.0,7.0,73,0.00,,---,0.00,VWS V14.01,2013-02-23 01:16:00,
2013-02-22 20:17:00,35.8,28.3,30.36,SSW,192,3.0,7.0,74,0.00,,---,0.00,VWS V14.01,2013-02-23 01:17:00,
2013-02-22 20:18:00,35.8,28.3,30.36,SSW,195,2.0,7.0,74,0.00,,---,0.00,VWS V14.01,2013-02-23 01:18:00,
2013-02-22 20:19:00,35.8,28.3,30.36,South,188,3.0,7.0,74,0.00,,---,0.00,VWS V14.01,2013-02-23 01:19:00,
2013-02-22 20:20:00,35.8,28.3,30.36,South,191,3.0,7.0,74,0.00,,---,0.00,VWS V14.01,2013-02-23 01:20:00,
2013-02-22 20:21:00,35.8,28.3,30.36,South,190,4.0,7.0,74,0.00,,---,0.00,VWS V14.01,2013-02-23 01:21:00,
2013-02-22 20:22:00,35.8,28.3,30.36,South,184,4.0,7.0,74,0.00,,---,0.00,VWS V14.01,2013-02-23 01:22:00,
2013-02-22 20:23:00,35.8,28.3,30.36,South,190,3.0,7.0,74,0.00,,---,0.00,VWS V14.01,2013-02-23 01:23:00,
2013-02-22 20:24:00,35.8,28.3,30.36,South,190,2.0,7.0,74,0.00,,---,0.00,VWS V14.01,2013-02-23 01:24:00,
2013-02-22 20:25:00,35.8,28.3,30.36,South,190,2.0,7.0,74,0.00,,---,0.00,VWS V14.01,2013-02-23 01:25:00,
2013-02-22 20:26:00,35.8,28.3,30.36,South,190,0.0,7.0,74,0.00,,---,0.00,VWS V14.01,2013-02-23 01:26:00,
2013-02-22 20:27:00,35.8,28.3,30.36,South,190,1.0,7.0,74,0.00,,---,0.00,VWS V14.01,2013-02-23 01:27:00,
2013-02-22 20:28:00,35.8,28.3,30.36,South,184,3.0,7.0,74,0.00,,---,0.00,VWS V14.01,2013-02-23 01:28:00,
2013-02-22 20:29:00,35.8,28.3,30.35,South,184,1.0,7.0,74,0.00,,---,0.00,VWS V14.01,2013-02-23 01:29:00,
2013-02-22 20:30:00,35.7,28.2,30.35,South,184,1.0,7.0,74,0.00,,---,0.00,VWS V14.01,2013-02-23 01:30:00,
2013-02-22 20:31:00,35.7,28.2,30.35,South,184,0.0,1.0,74,0.00,,---,0.00,VWS V14.01,2013-02-23 01:31:00,
2013-02-22 20:32:00,35.7,28.2,30.35,South,184,1.0,3.0,74,0.00,,---,0.00,VWS V14.01,2013-02-23 01:32:00,
2013-02-22 20:33:00,35.7,27.9,30.36,South,184,0.0,3.0,73,0.00,,---,0.00,VWS V14.01,2013-02-23 01:33:00,
2013-02-22 20:34:00,35.7,27.9,30.36,South,184,3.0,3.0,73,0.00,,---,0.00,VWS V14.01,2013-02-23 01:34:00,
2013-02-22 20:35:00,35.7,27.9,30.36,South,184,0.0,3.0,73,0.00,,---,0.00,VWS V14.01,2013-02-23 01:35:00,
2013-02-22 20:36:00,35.7,27.9,30.36,South,176,3.0,4.0,73,0.00,,---,0.00,VWS V14.01,2013-02-23 01:36:00,
2013-02-22 20:37:00,35.7,27.9,30.36,South,177,2.0,4.0,73,0.00,,---,0.00,VWS V14.01,2013-02-23 01:37:00,
2013-02-22 20:38:00,35.7,27.9,30.35,South,178,1.0,4.0,73,0.00,,---,0.00,VWS V14.01,2013-02-23 01:38:00,
2013-02-22 20:39:00,35.7,27.9,30.35,South,182,2.0,4.0,73,0.00,,---,0.00,VWS V14.01,2013-02-23 01:39:00,
2013-02-22 20:40:00,35.7,27.9,30.35,South,189,5.0,6.0,73,0.00,,---,0.00,VWS V14.01,2013-02-23 01:40:00,
2013-02-22 20:41:00,35.7,27.9,30.35,South,188,3.0,6.0,73,0.00,,---,0.00,VWS V14.01,2013-02-23 01:41:00,
2013-02-22 20:42:00,35.7,27.9,30.35,South,173,1.0,6.0,73,0.00,,---,0.00,VWS V14.01,2013-02-23 01:42:00,
2013-02-22 20:43:00,35.7,27.9,30.35,SSE,161,1.0,6.0,73,0.00,,---,0.00,VWS V14.01,2013-02-23 01:43:00,
2013-02-22 20:44:00,35.7,27.9,30.35,SSE,167,1.0,6.0,73,0.00,,---,0.00,VWS V14.01,2013-02-23 01:44:00,
2013-02-22 20:45:00,35.7,27.9,30.35,SSE,161,6.0,6.0,73,0.00,,---,0.00,VWS V14.01,2013-02-23 01:45:00,
2013-02-22 20:46:00,35.7,27.9,30.35,SSE,157,2.0,6.0,73,0.00,,---,0.00,VWS V14.01,2013-02-23 01:46:00,
2013-02-22 20:47:00,35.7,27.9,30.35,SSE,165,1.0,6.0,73,0.00,,---,0.00,VWS V14.01,2013-02-23 01:47:00,
2013-02-22 20:48:00,35.7,27.9,30.35,South,172,1.0,6.0,73,0.00,,---,0.00,VWS V14.01,2013-02-23 01:48:00,
2013-02-22 20:49:00,35.7,27.9,30.35,South,176,1.0,6.0,73,0.00,,---,0.00,VWS V14.01,2013-02-23 01:49:00,
2013-02-22 20:50:00,35.7,27.9,30.35,South,174,0.0,6.0,73,0.00,,---,0.00,VWS V14.01,2013-02-23 01:50:00,
2013-02-22 20:51:00,35.7,27.9,30.35,South,173,1.0,6.0,73,0.00,,---,0.00,VWS V14.01,2013-02-23 01:51:00,
2013-02-22 20:52:00,35.7,27.9,30.35,SSE,165,1.0,6.0,73,0.00,,---,0.00,VWS V14.01,2013-02-23 01:52:00,
2013-02-22 20:53:00,35.7,27.9,30.35,SSE,165,0.0,6.0,73,0.00,,---,0.00,VWS V14.01,2013-02-23 01:53:00,
2013-02-22 20:54:00,35.7,27.9,30.35,SSE,165,0.0,6.0,73,0.00,,---,0.00,VWS V14.01,2013-02-23 01:54:00,
2013-02-22 20:55:00,35.7,27.9,30.35,South,171,1.0,6.0,73,0.00,,---,0.00,VWS V14.01,2013-02-23 01:55:00,
2013-02-22 20:56:00,35.7,27.9,30.35,South,178,1.0,6.0,73,0.00,,---,0.00,VWS V14.01,2013-02-23 01:56:00,
2013-02-22 20:57:00,35.7,27.9,30.36,South,180,1.0,6.0,73,0.00,,---,0.00,VWS V14.01,2013-02-23 01:57:00,
2013-02-22 20:58:00,35.7,27.9,30.35,South,185,4.0,6.0,73,0.00,,---,0.00,VWS V14.01,2013-02-23 01:58:00,
2013-02-22 20:59:00,35.7,27.9,30.35,SSE,168,3.0,6.0,73,0.00,,---,0.00,VWS V14.01,2013-02-23 01:59:00,
2013-02-22 21:00:00,35.7,27.9,30.35,South,182,5.0,6.0,73,0.00,,---,0.00,VWS V14.01,2013-02-23 02:00:00,
2013-02-22 21:01:00,35.7,27.9,30.35,South,183,1.0,5.0,73,0.00,,---,0.00,VWS V14.01,2013-02-23 02:01:00,
2013-02-22 21:02:00,35.7,27.9,30.35,South,183,0.0,5.0,73,0.00,,---,0.00,VWS V14.01,2013-02-23 02:02:00,
2013-02-22 21:03:00,35.7,27.9,30.35,South,186,3.0,5.0,73,0.00,,---,0.00,VWS V14.01,2013-02-23 02:03:00,
2013-02-22 21:04:00,35.7,27.9,30.35,South,189,1.0,5.0,73,0.00,,---,0.00,VWS V14.01,2013-02-23 02:04:00,
2013-02-22 21:05:00,35.7,27.9,30.36,SSW,202,3.0,5.0,73,0.00,,---,0.00,VWS V14.01,2013-02-23 02:05:00,
2013-02-22 21:06:00,35.7,28.2,30.36,SSW,198,3.0,5.0,74,0.00,,---,0.00,VWS V14.01,2013-02-23 02:06:00,
2013-02-22 21:07:00,35.7,28.2,30.36,South,191,1.0,5.0,74,0.00,,---,0.00,VWS V14.01,2013-02-23 02:07:00,
2013-02-22 21:08:00,35.7,28.2,30.36,South,191,0.0,5.0,74,0.00,,---,0.00,VWS V14.01,2013-02-23 02:08:00,
2013-02-22 21:09:00,35.7,28.2,30.36,South,181,2.0,5.0,74,0.00,,---,0.00,VWS V14.01,2013-02-23 02:09:00,
2013-02-22 21:10:00,35.7,28.2,30.35,South,184,1.0,5.0,74,0.00,,---,0.00,VWS V14.01,2013-02-23 02:10:00,
2013-02-22 21:11:00,35.7,28.2,30.35,South,184,0.0,5.0,74,0.00,,---,0.00,VWS V14.01,2013-02-23 02:11:00,
2013-02-22 21:12:00,35.7,28.2,30.35,South,184,2.0,5.0,74,0.00,,---,0.00,VWS V14.01,2013-02-23 02:12:00,
2013-02-22 21:13:00,35.7,28.2,30.35,South,184,1.0,5.0,74,0.00,,---,0.00,VWS V14.01,2013-02-23 02:13:00,
2013-02-22 21:14:00,35.7,28.2,30.36,South,184,1.0,5.0,74,0.00,,---,0.00,VWS V14.01,2013-02-23 02:14:00,
2013-02-22 21:15:00,35.7,28.2,30.35,South,185,1.0,5.0,74,0.00,,---,0.00,VWS V14.01,2013-02-23 02:15:00,
2013-02-22 21:16:00,35.7,28.6,30.36,SSW,202,1.0,5.0,75,0.00,,---,0.00,VWS V14.01,2013-02-23 02:16:00,
2013-02-22 21:17:00,35.7,28.6,30.36,SSW,202,1.0,5.0,75,0.00,,---,0.00,VWS V14.01,2013-02-23 02:17:00,
2013-02-22 21:18:00,35.7,28.6,30.36,SSW,202,1.0,5.0,75,0.00,,---,0.00,VWS V14.01,2013-02-23 02:18:00,
2013-02-22 21:19:00,35.7,28.6,30.36,SSW,202,1.0,5.0,75,0.00,,---,0.00,VWS V14.01,2013-02-23 02:19:00,
2013-02-22 21:20:00,35.7,28.6,30.36,SSW,202,2.0,5.0,75,0.00,,---,0.00,VWS V14.01,2013-02-23 02:20:00,
2013-02-22 21:21:00,35.6,28.5,30.35,SSW,203,3.0,5.0,75,0.00,,---,0.00,VWS V14.01,2013-02-23 02:21:00,
2013-02-22 21:22:00,35.6,28.1,30.36,SSW,204,3.0,5.0,74,0.00,,---,0.00,VWS V14.01,2013-02-23 02:22:00,
2013-02-22 21:23:00,35.6,28.5,30.35,SSW,204,2.0,5.0,75,0.00,,---,0.00,VWS V14.01,2013-02-23 02:23:00,
2013-02-22 21:24:00,35.6,28.5,30.35,SSW,204,2.0,5.0,75,0.00,,---,0.00,VWS V14.01,2013-02-23 02:24:00,
2013-02-22 21:25:00,35.6,28.5,30.35,SSW,204,1.0,5.0,75,0.00,,---,0.00,VWS V14.01,2013-02-23 02:25:00,
2013-02-22 21:26:00,35.6,28.5,30.35,SSW,203,2.0,5.0,75,0.00,,---,0.00,VWS V14.01,2013-02-23 02:26:00,
2013-02-22 21:27:00,35.6,28.5,30.35,SSW,206,3.0,5.0,75,0.00,,---,0.00,VWS V14.01,2013-02-23 02:27:00,
2013-02-22 21:28:00,35.6,28.5,30.35,SSW,206,3.0,5.0,75,0.00,,---,0.00,VWS V14.01,2013-02-23 02:28:00,
2013-02-22 21:29:00,35.6,28.5,30.35,SSW,207,2.0,5.0,75,0.00,,---,0.00,VWS V14.01,2013-02-23 02:29:00,
2013-02-22 21:30:00,35.6,28.5,30.35,SSW,207,3.0,5.0,75,0.00,,---,0.00,VWS V14.01,2013-02-23 02:30:00,
2013-02-22 21:31:00,35.6,28.5,30.35,SSW,204,2.0,4.0,75,0.00,,---,0.00,VWS V14.01,2013-02-23 02:31:00,
2013-02-22 21:32:00,35.6,28.5,30.35,SSW,205,3.0,4.0,75,0.00,,---,0.00,VWS V14.01,2013-02-23 02:32:00,
2013-02-22 21:33:00,35.6,28.5,30.35,SSW,205,2.0,4.0,75,0.00,,---,0.00,VWS V14.01,2013-02-23 02:33:00,
2013-02-22 21:34:00,35.7,28.6,30.35,SSW,205,3.0,4.0,75,0.00,,---,0.00,VWS V14.01,2013-02-23 02:34:00,
2013-02-22 21:35:00,35.7,28.6,30.35,SSW,204,3.0,4.0,75,0.00,,---,0.00,VWS V14.01,2013-02-23 02:35:00,
2013-02-22 21:36:00,35.6,28.5,30.35,SSW,203,2.0,4.0,75,0.00,,---,0.00,VWS V14.01,2013-02-23 02:36:00,
2013-02-22 21:37:00,35.6,28.5,30.35,SSW,204,3.0,4.0,75,0.00,,---,0.00,VWS V14.01,2013-02-23 02:37:00,
2013-02-22 21:38:00,35.6,28.5,30.35,SSW,204,2.0,4.0,75,0.00,,---,0.00,VWS V14.01,2013-02-23 02:38:00,
2013-02-22 21:39:00,35.6,28.5,30.35,SSW,200,3.0,4.0,75,0.00,,---,0.00,VWS V14.01,2013-02-23 02:39:00,
2013-02-22 21:40:00,35.6,28.5,30.35,SSW,200,2.0,4.0,75,0.00,,---,0.00,VWS V14.01,2013-02-23 02:40:00,
2013-02-22 21:41:00,35.6,28.5,30.35,SSW,200,2.0,4.0,75,0.00,,---,0.00,VWS V14.01,2013-02-23 02:41:00,
2013-02-22 21:42:00,35.6,28.5,30.35,SSW,200,2.0,4.0,75,0.00,,---,0.00,VWS V14.01,2013-02-23 02:42:00,
2013-02-22 21:43:00,35.6,28.5,30.35,SSW,194,3.0,5.0,75,0.00,,---,0.00,VWS V14.01,2013-02-23 02:43:00,
2013-02-22 21:44:00,35.6,28.1,30.35,SSW,192,3.0,5.0,74,0.00,,---,0.00,VWS V14.01,2013-02-23 02:44:00,
2013-02-22 21:45:00,35.6,28.5,30.35,SSW,194,4.0,5.0,75,0.00,,---,0.00,VWS V14.01,2013-02-23 02:45:00,
2013-02-22 21:46:00,35.6,28.5,30.35,SSW,194,3.0,5.0,75,0.00,,---,0.00,VWS V14.01,2013-02-23 02:46:00,
2013-02-22 21:47:00,35.6,28.5,30.35,SSW,195,4.0,5.0,75,0.00,,---,0.00,VWS V14.01,2013-02-23 02:47:00,
2013-02-22 21:48:00,35.6,28.1,30.35,SSW,196,2.0,5.0,74,0.00,,---,0.00,VWS V14.01,2013-02-23 02:48:00,
2013-02-22 21:49:00,35.6,28.1,30.35,SSW,192,3.0,5.0,74,0.00,,---,0.00,VWS V14.01,2013-02-23 02:49:00,
2013-02-22 21:50:00,35.5,28.0,30.35,SSW,193,2.0,5.0,74,0.00,,---,0.00,VWS V14.01,2013-02-23 02:50:00,
2013-02-22 21:51:00,35.5,28.0,30.35,South,189,2.0,5.0,74,0.00,,---,0.00,VWS V14.01,2013-02-23 02:51:00,
2013-02-22 21:52:00,35.5,28.0,30.35,South,190,3.0,5.0,74,0.00,,---,0.00,VWS V14.01,2013-02-23 02:52:00,
2013-02-22 21:53:00,35.5,28.0,30.35,SSW,192,2.0,5.0,74,0.00,,---,0.00,VWS V14.01,2013-02-23 02:53:00,
2013-02-22 21:54:00,35.5,28.0,30.35,SSW,193,3.0,5.0,74,0.00,,---,0.00,VWS V14.01,2013-02-23 02:54:00,
2013-02-22 21:55:00,35.5,28.0,30.35,SSW,194,3.0,5.0,74,0.00,,---,0.00,VWS V14.01,2013-02-23 02:55:00,
2013-02-22 21:56:00,35.5,28.0,30.35,SSW,194,2.0,5.0,74,0.00,,---,0.00,VWS V14.01,2013-02-23 02:56:00,
2013-02-22 21:57:00,35.5,28.0,30.35,SSW,192,2.0,5.0,74,0.00,,---,0.00,VWS V14.01,2013-02-23 02:57:00,
2013-02-22 21:58:00,35.5,28.0,30.35,SSW,192,5.0,5.0,74,0.00,,---,0.00,VWS V14.01,2013-02-23 02:58:00,
2013-02-22 21:59:00,35.5,28.0,30.35,SSW,193,4.0,6.0,74,0.00,,---,0.00,VWS V14.01,2013-02-23 02:59:00,
2013-02-22 22:00:00,35.5,28.0,30.35,SSW,194,4.0,6.0,74,0.00,,---,0.00,VWS V14.01,2013-02-23 03:00:00,
2013-02-22 22:01:00,35.5,28.0,30.35,SSW,196,4.0,5.0,74,0.00,,---,0.00,VWS V14.01,2013-02-23 03:01:00,
2013-02-22 22:02:00,35.5,28.0,30.35,SSW,196,4.0,5.0,74,0.00,,---,0.00,VWS V14.01,2013-02-23 03:02:00,
2013-02-22 22:03:00,35.5,28.0,30.35,SSW,194,5.0,5.0,74,0.00,,---,0.00,VWS V14.01,2013-02-23 03:03:00,
2013-02-22 22:04:00,35.5,28.0,30.35,SSW,195,2.0,6.0,74,0.00,,---,0.00,VWS V14.01,2013-02-23 03:04:00,
2013-02-22 22:05:00,35.5,28.0,30.35,SSW,194,2.0,6.0,74,0.00,,---,0.00,VWS V14.01,2013-02-23 03:05:00,
2013-02-22 22:06:00,35.5,28.0,30.35,SSW,195,3.0,6.0,74,0.00,,---,0.00,VWS V14.01,2013-02-23 03:06:00,
2013-02-22 22:07:00,35.5,28.0,30.35,SSW,195,2.0,6.0,74,0.00,,---,0.00,VWS V14.01,2013-02-23 03:07:00,
2013-02-22 22:08:00,35.5,28.0,30.35,SSW,194,3.0,6.0,74,0.00,,---,0.00,VWS V14.01,2013-02-23 03:08:00,
2013-02-22 22:09:00,35.5,28.0,30.35,SSW,194,2.0,6.0,74,0.00,,---,0.00,VWS V14.01,2013-02-23 03:09:00,
2013-02-22 22:10:00,35.5,28.0,30.35,SSW,195,3.0,6.0,74,0.00,,---,0.00,VWS V14.01,2013-02-23 03:10:00,
2013-02-22 22:11:00,35.5,28.0,30.35,SSW,192,3.0,6.0,74,0.00,,---,0.00,VWS V14.01,2013-02-23 03:11:00,
2013-02-22 22:12:00,35.5,28.0,30.35,SSW,192,2.0,6.0,74,0.00,,---,0.00,VWS V14.01,2013-02-23 03:12:00,
2013-02-22 22:13:00,35.5,28.0,30.35,SSW,192,2.0,6.0,74,0.00,,---,0.00,VWS V14.01,2013-02-23 03:13:00,
2013-02-22 22:14:00,35.5,28.0,30.35,SSW,192,2.0,6.0,74,0.00,,---,0.00,VWS V14.01,2013-02-23 03:14:00,
2013-02-22 22:15:00,35.5,28.4,30.35,SSW,192,3.0,6.0,75,0.00,,---,0.00,VWS V14.01,2013-02-23 03:15:00,
2013-02-22 22:16:00,35.5,28.0,30.35,SSW,192,3.0,6.0,74,0.00,,---,0.00,VWS V14.01,2013-02-23 03:16:00,
2013-02-22 22:17:00,35.5,28.0,30.35,SSW,192,3.0,6.0,74,0.00,,---,0.00,VWS V14.01,2013-02-23 03:17:00,
2013-02-22 22:18:00,35.5,28.4,30.35,SSW,192,2.0,6.0,75,0.00,,---,0.00,VWS V14.01,2013-02-23 03:18:00,
2013-02-22 22:19:00,35.5,28.4,30.35,SSW,192,2.0,6.0,75,0.00,,---,0.00,VWS V14.01,2013-02-23 03:19:00,
2013-02-22 22:20:00,35.5,28.0,30.35,SSW,192,2.0,6.0,74,0.00,,---,0.00,VWS V14.01,2013-02-23 03:20:00,
2013-02-22 22:21:00,35.5,28.0,30.34,SSW,192,1.0,6.0,74,0.00,,---,0.00,VWS V14.01,2013-02-23 03:21:00,
2013-02-22 22:22:00,35.5,28.0,30.34,SSW,192,1.0,6.0,74,0.00,,---,0.00,VWS V14.01,2013-02-23 03:22:00,
2013-02-22 22:23:00,35.5,28.0,30.34,SSW,192,1.0,6.0,74,0.00,,---,0.00,VWS V14.01,2013-02-23 03:23:00,
2013-02-22 22:24:00,35.5,28.4,30.35,SSW,194,2.0,6.0,75,0.00,,---,0.00,VWS V14.01,2013-02-23 03:24:00,
2013-02-22 22:25:00,35.5,28.0,30.34,SSW,194,2.0,6.0,74,0.00,,---,0.00,VWS V14.01,2013-02-23 03:25:00,
2013-02-22 22:26:00,35.5,28.0,30.34,South,191,2.0,6.0,74,0.00,,---,0.00,VWS V14.01,2013-02-23 03:26:00,
2013-02-22 22:27:00,35.5,28.0,30.34,South,191,2.0,6.0,74,0.00,,---,0.00,VWS V14.01,2013-02-23 03:27:00,
2013-02-22 22:28:00,35.5,28.4,30.34,SSW,192,2.0,6.0,75,0.00,,---,0.00,VWS V14.01,2013-02-23 03:28:00,
2013-02-22 22:29:00,35.5,28.4,30.34,SSW,192,2.0,6.0,75,0.00,,---,0.00,VWS V14.01,2013-02-23 03:29:00,
2013-02-22 22:30:00,35.5,28.0,30.34,SSW,193,1.0,6.0,74,0.00,,---,0.00,VWS V14.01,2013-02-23 03:30:00,
2013-02-22 22:31:00,35.5,28.0,30.34,SSW,196,3.0,4.0,74,0.00,,---,0.00,VWS V14.01,2013-02-23 03:31:00,
2013-02-22 22:32:00,35.5,28.4,30.34,SSW,196,3.0,4.0,75,0.00,,---,0.00,VWS V14.01,2013-02-23 03:32:00,
2013-02-22 22:33:00,35.5,28.4,30.34,SSW,196,2.0,4.0,75,0.00,,---,0.00,VWS V14.01,2013-02-23 03:33:00,
2013-02-22 22:34:00,35.5,28.0,30.34,SSW,196,2.0,4.0,74,0.00,,---,0.00,VWS V14.01,2013-02-23 03:34:00,
2013-02-22 22:35:00,35.5,28.0,30.34,SSW,196,2.0,4.0,74,0.00,,---,0.00,VWS V14.01,2013-02-23 03:35:00,
2013-02-22 22:36:00,35.6,28.5,30.34,SSW,196,1.0,4.0,75,0.00,,---,0.00,VWS V14.01,2013-02-23 03:36:00,
2013-02-22 22:37:00,35.5,28.4,30.34,SSW,196,2.0,4.0,75,0.00,,---,0.00,VWS V14.01,2013-02-23 03:37:00,
2013-02-22 22:38:00,35.6,28.5,30.34,SSW,196,1.0,4.0,75,0.00,,---,0.00,VWS V14.01,2013-02-23 03:38:00,
2013-02-22 22:39:00,35.5,28.4,30.34,SSW,196,2.0,4.0,75,0.00,,---,0.00,VWS V14.01,2013-02-23 03:39:00,
2013-02-22 22:40:00,35.5,28.4,30.34,SSW,196,3.0,4.0,75,0.00,,---,0.00,VWS V14.01,2013-02-23 03:40:00,
2013-02-22 22:41:00,35.5,28.0,30.34,SSW,196,1.0,4.0,74,0.00,,---,0.00,VWS V14.01,2013-02-23 03:41:00,
2013-02-22 22:42:00,35.4,28.0,30.34,SSW,196,1.0,4.0,74,0.00,,---,0.00,VWS V14.01,2013-02-23 03:42:00,
2013-02-22 22:43:00,35.4,28.0,30.34,SSW,196,1.0,4.0,74,0.00,,---,0.00,VWS V14.01,2013-02-23 03:43:00,
2013-02-22 22:44:00,35.4,28.0,30.34,SSW,196,2.0,4.0,74,0.00,,---,0.00,VWS V14.01,2013-02-23 03:44:00,
2013-02-22 22:45:00,35.4,28.0,30.35,SSW,196,2.0,4.0,74,0.00,,---,0.00,VWS V14.01,2013-02-23 03:45:00,
2013-02-22 22:46:00,35.4,28.0,30.34,SSW,192,3.0,4.0,74,0.00,,---,0.00,VWS V14.01,2013-02-23 03:46:00,
2013-02-22 22:47:00,35.4,28.0,30.34,SSW,192,4.0,4.0,74,0.00,,---,0.00,VWS V14.01,2013-02-23 03:47:00,
2013-02-22 22:48:00,35.4,28.0,30.34,SSW,192,2.0,4.0,74,0.00,,---,0.00,VWS V14.01,2013-02-23 03:48:00,
2013-02-22 22:49:00,35.4,28.0,30.35,SSW,192,1.0,4.0,74,0.00,,---,0.00,VWS V14.01,2013-02-23 03:49:00,
2013-02-22 22:50:00,35.4,28.0,30.35,SSW,192,2.0,4.0,74,0.00,,---,0.00,VWS V14.01,2013-02-23 03:50:00,
2013-02-22 22:51:00,35.4,28.0,30.35,SSW,192,3.0,4.0,74,0.00,,---,0.00,VWS V14.01,2013-02-23 03:51:00,
2013-02-22 22:52:00,35.4,28.0,30.34,SSW,192,1.0,4.0,74,0.00,,---,0.00,VWS V14.01,2013-02-23 03:52:00,
2013-02-22 22:53:00,35.4,28.0,30.34,SSW,192,2.0,4.0,74,0.00,,---,0.00,VWS V14.01,2013-02-23 03:53:00,
2013-02-22 22:54:00,35.3,27.9,30.34,SSW,192,1.0,4.0,74,0.00,,---,0.00,VWS V14.01,2013-02-23 03:54:00,
2013-02-22 22:55:00,35.3,27.9,30.34,SSW,192,2.0,4.0,74,0.00,,---,0.00,VWS V14.01,2013-02-23 03:55:00,
2013-02-22 22:56:00,35.4,28.0,30.34,SSW,200,2.0,5.0,74,0.00,,---,0.00,VWS V14.01,2013-02-23 03:56:00,
2013-02-22 22:57:00,35.4,28.0,30.34,SSW,200,1.0,5.0,74,0.00,,---,0.00,VWS V14.01,2013-02-23 03:57:00,
2013-02-22 22:58:00,35.3,27.9,30.34,South,191,2.0,5.0,74,0.00,,---,0.00,VWS V14.01,2013-02-23 03:58:00,
2013-02-22 22:59:00,35.3,27.9,30.34,South,189,2.0,5.0,74,0.00,,---,0.00,VWS V14.01,2013-02-23 03:59:00,
2013-02-22 23:00:00,35.3,27.9,30.34,South,189,1.0,5.0,74,0.00,,---,0.00,VWS V14.01,2013-02-23 04:00:00,
2013-02-22 23:01:00,35.3,27.9,30.34,South,189,2.0,3.0,74,0.00,,---,0.00,VWS V14.01,2013-02-23 04:01:00,
2013-02-22 23:02:00,35.3,27.9,30.34,South,190,1.0,3.0,74,0.00,,---,0.00,VWS V14.01,2013-02-23 04:02:00,
2013-02-22 23:03:00,35.3,27.9,30.34,South,190,2.0,3.0,74,0.00,,---,0.00,VWS V14.01,2013-02-23 04:03:00,
2013-02-22 23:04:00,35.3,27.9,30.34,South,190,3.0,3.0,74,0.00,,---,0.00,VWS V14.01,2013-02-23 04:04:00,
2013-02-22 23:05:00,35.2,27.8,30.34,South,190,2.0,3.0,74,0.00,,---,0.00,VWS V14.01,2013-02-23 04:05:00,
2013-02-22 23:06:00,35.2,27.8,30.34,South,190,2.0,3.0,74,0.00,,---,0.00,VWS V14.01,2013-02-23 04:06:00,
2013-02-22 23:07:00,35.2,27.8,30.33,South,186,2.0,3.0,74,0.00,,---,0.00,VWS V14.01,2013-02-23 04:07:00,
2013-02-22 23:08:00,35.2,27.8,30.33,South,186,2.0,3.0,74,0.00,,---,0.00,VWS V14.01,2013-02-23 04:08:00,
2013-02-22 23:09:00,35.2,27.8,30.33,South,186,2.0,3.0,74,0.00,,---,0.00,VWS V14.01,2013-02-23 04:09:00,
2013-02-22 23:10:00,35.2,27.8,30.33,South,186,2.0,3.0,74,0.00,,---,0.00,VWS V14.01,2013-02-23 04:10:00,
2013-02-22 23:11:00,35.1,27.7,30.33,South,186,2.0,3.0,74,0.00,,---,0.00,VWS V14.01,2013-02-23 04:11:00,
2013-02-22 23:12:00,35.1,27.7,30.33,South,186,1.0,3.0,74,0.00,,---,0.00,VWS V14.01,2013-02-23 04:12:00,
2013-02-22 23:13:00,35.1,27.7,30.33,South,186,2.0,3.0,74,0.00,,---,0.00,VWS V14.01,2013-02-23 04:13:00,
2013-02-22 23:14:00,35.0,27.6,30.33,South,186,1.0,3.0,74,0.00,,---,0.00,VWS V14.01,2013-02-23 04:14:00,
2013-02-22 23:15:00,35.0,27.6,30.33,South,186,1.0,3.0,74,0.00,,---,0.00,VWS V14.01,2013-02-23 04:15:00,
2013-02-22 23:16:00,35.0,27.6,30.33,South,186,1.0,3.0,74,0.00,,---,0.00,VWS V14.01,2013-02-23 04:16:00,
2013-02-22 23:17:00,35.0,27.6,30.34,South,186,1.0,3.0,74,0.00,,---,0.00,VWS V14.01,2013-02-23 04:17:00,
2013-02-22 23:18:00,35.0,27.6,30.34,South,191,2.0,3.0,74,0.00,,---,0.00,VWS V14.01,2013-02-23 04:18:00,
2013-02-22 23:19:00,35.0,27.6,30.34,South,191,1.0,3.0,74,0.00,,---,0.00,VWS V14.01,2013-02-23 04:19:00,
2013-02-22 23:20:00,35.0,27.9,30.34,South,191,1.0,3.0,75,0.00,,---,0.00,VWS V14.01,2013-02-23 04:20:00,
2013-02-22 23:21:00,35.0,27.9,30.34,South,191,1.0,3.0,75,0.00,,---,0.00,VWS V14.01,2013-02-23 04:21:00,
2013-02-22 23:22:00,35.0,27.9,30.33,South,191,1.0,3.0,75,0.00,,---,0.00,VWS V14.01,2013-02-23 04:22:00,
2013-02-22 23:23:00,35.0,27.9,30.33,South,191,1.0,3.0,75,0.00,,---,0.00,VWS V14.01,2013-02-23 04:23:00,
2013-02-22 23:24:00,35.0,27.9,30.33,South,191,1.0,3.0,75,0.00,,---,0.00,VWS V14.01,2013-02-23 04:24:00,
2013-02-22 23:25:00,34.9,27.8,30.33,South,191,0.0,3.0,75,0.00,,---,0.00,VWS V14.01,2013-02-23 04:25:00,
2013-02-22 23:26:00,34.9,27.8,30.33,South,191,1.0,3.0,75,0.00,,---,0.00,VWS V14.01,2013-02-23 04:26:00,
2013-02-22 23:27:00,34.9,27.8,30.33,South,191,0.0,3.0,75,0.00,,---,0.00,VWS V14.01,2013-02-23 04:27:00,
2013-02-22 23:28:00,34.8,27.7,30.33,South,191,0.0,3.0,75,0.00,,---,0.00,VWS V14.01,2013-02-23 04:28:00,
2013-02-22 23:29:00,34.9,27.8,30.33,South,191,0.0,3.0,75,0.00,,---,0.00,VWS V14.01,2013-02-23 04:29:00,
2013-02-22 23:30:00,34.8,27.7,30.33,South,191,0.0,3.0,75,0.00,,---,0.00,VWS V14.01,2013-02-23 04:30:00,
2013-02-22 23:31:00,34.8,27.7,30.33,South,191,0.0,0.0,75,0.00,,---,0.00,VWS V14.01,2013-02-23 04:31:00,
2013-02-22 23:32:00,34.8,27.7,30.33,South,191,0.0,0.0,75,0.00,,---,0.00,VWS V14.01,2013-02-23 04:32:00,
2013-02-22 23:33:00,34.8,27.4,30.33,South,191,0.0,0.0,74,0.00,,---,0.00,VWS V14.01,2013-02-23 04:33:00,
2013-02-22 23:34:00,34.7,27.3,30.33,South,191,0.0,0.0,74,0.00,,---,0.00,VWS V14.01,2013-02-23 04:34:00,
2013-02-22 23:35:00,34.7,27.3,30.33,South,184,0.0,0.0,74,0.00,,---,0.00,VWS V14.01,2013-02-23 04:35:00,
2013-02-22 23:36:00,34.7,27.3,30.33,South,184,0.0,0.0,74,0.00,,---,0.00,VWS V14.01,2013-02-23 04:36:00,
2013-02-22 23:37:00,34.7,27.3,30.33,South,184,0.0,0.0,74,0.00,,---,0.00,VWS V14.01,2013-02-23 04:37:00,
2013-02-22 23:38:00,34.8,27.4,30.33,South,184,0.0,0.0,74,0.00,,---,0.00,VWS V14.01,2013-02-23 04:38:00,
2013-02-22 23:39:00,34.8,27.4,30.33,South,184,0.0,0.0,74,0.00,,---,0.00,VWS V14.01,2013-02-23 04:39:00,
2013-02-22 23:40:00,34.8,27.4,30.33,South,184,0.0,0.0,74,0.00,,---,0.00,VWS V14.01,2013-02-23 04:40:00,
2013-02-22 23:41:00,34.8,27.4,30.33,South,184,0.0,0.0,74,0.00,,---,0.00,VWS V14.01,2013-02-23 04:41:00,
2013-02-22 23:42:00,34.8,27.4,30.33,South,184,0.0,0.0,74,0.00,,---,0.00,VWS V14.01,2013-02-23 04:42:00,
2013-02-22 23:43:00,34.8,27.4,30.33,South,184,0.0,0.0,74,0.00,,---,0.00,VWS V14.01,2013-02-23 04:43:00,
2013-02-22 23:44:00,34.8,27.4,30.33,South,184,0.0,0.0,74,0.00,,---,0.00,VWS V14.01,2013-02-23 04:44:00,
2013-02-22 23:45:00,34.8,27.4,30.33,South,184,0.0,0.0,74,0.00,,---,0.00,VWS V14.01,2013-02-23 04:45:00,
2013-02-22 23:46:00,34.8,27.4,30.33,South,184,0.0,0.0,74,0.00,,---,0.00,VWS V14.01,2013-02-23 04:46:00,
2013-02-22 23:47:00,34.8,27.4,30.33,South,184,0.0,0.0,74,0.00,,---,0.00,VWS V14.01,2013-02-23 04:47:00,
2013-02-22 23:48:00,34.8,27.4,30.33,South,184,0.0,0.0,74,0.00,,---,0.00,VWS V14.01,2013-02-23 04:48:00,
2013-02-22 23:49:00,34.8,27.7,30.33,South,184,0.0,0.0,75,0.00,,---,0.00,VWS V14.01,2013-02-23 04:49:00,
2013-02-22 23:50:00,34.8,27.7,30.33,South,184,0.0,0.0,75,0.00,,---,0.00,VWS V14.01,2013-02-23 04:50:00,
2013-02-22 23:51:00,34.8,27.7,30.33,South,184,0.0,0.0,75,0.00,,---,0.00,VWS V14.01,2013-02-23 04:51:00,
2013-02-22 23:52:00,34.8,27.7,30.33,South,184,0.0,0.0,75,0.00,,---,0.00,VWS V14.01,2013-02-23 04:52:00,
2013-02-22 23:53:00,34.9,27.8,30.33,South,184,0.0,0.0,75,0.00,,---,0.00,VWS V14.01,2013-02-23 04:53:00,
2013-02-22 23:54:00,34.9,27.8,30.33,South,184,0.0,0.0,75,0.00,,---,0.00,VWS V14.01,2013-02-23 04:54:00,
2013-02-22 23:55:00,34.9,27.8,30.33,South,184,0.0,0.0,75,0.00,,---,0.00,VWS V14.01,2013-02-23 04:55:00,
2013-02-22 23:56:00,34.9,27.8,30.33,South,184,0.0,0.0,75,0.00,,---,0.00,VWS V14.01,2013-02-23 04:56:00,
2013-02-22 23:57:00,34.9,27.8,30.33,South,184,0.0,0.0,75,0.00,,---,0.00,VWS V14.01,2013-02-23 04:57:00,
2013-02-22 23:58:00,34.9,27.8,30.33,South,184,0.0,0.0,75,0.00,,---,0.00,VWS V14.01,2013-02-23 04:58:00,
2013-02-22 23:59:00,34.9,27.8,30.33,South,184,0.0,0.0,75,0.00,,---,0.00,VWS V14.01,2013-02-23 04:59:00,